<?xml version="1.0" encoding="UTF-8" standalone="no" ?>
<gpx xmlns="http://www.topografix.com/GPX/1/1" xmlns:xsi="http://www.w3.org/2001/XMLSchema-instance" xsi:schemaLocation="http://www.topografix.com/GPX/1/1 http://www.topografix.com/GPX/1/1/gpx.xsd" version="1.1" creator="VisuGPX - https://www.visugpx.com">
  <metadata>
    <name>Les calanques: de Cassis à la Ciotat</name>
    <desc><![CDATA[Cassis à la Ciotat, par la route des crêtes]]></desc>
  </metadata>
  <trk>
    <name><![CDATA[J1 20-AVR-19 08:32:32 PM]]></name>
    <trkseg>
      <trkpt lat="43.21462" lon="5.53748">
        <ele>-68.12</ele>
        <time>2019-04-20T14:03:52Z</time>
      </trkpt>
      <trkpt lat="43.21463" lon="5.53749">
        <ele>-69.08</ele>
        <time>2019-04-20T14:04:05Z</time>
      </trkpt>
      <trkpt lat="43.21462" lon="5.53748">
        <ele>-69.08</ele>
        <time>2019-04-20T14:04:21Z</time>
      </trkpt>
      <trkpt lat="43.21462" lon="5.53743">
        <ele>-67.64</ele>
        <time>2019-04-20T14:04:40Z</time>
      </trkpt>
      <trkpt lat="43.21464" lon="5.53745">
        <ele>-66.67</ele>
        <time>2019-04-20T14:05:00Z</time>
      </trkpt>
      <trkpt lat="43.21464" lon="5.53745">
        <ele>8.79</ele>
        <time>2019-04-20T14:05:03Z</time>
      </trkpt>
      <trkpt lat="43.21465" lon="5.53745">
        <ele>8.79</ele>
        <time>2019-04-20T14:05:04Z</time>
      </trkpt>
      <trkpt lat="43.21465" lon="5.53745">
        <ele>5.91</ele>
        <time>2019-04-20T14:05:09Z</time>
      </trkpt>
      <trkpt lat="43.21462" lon="5.53745">
        <ele>6.39</ele>
        <time>2019-04-20T14:05:29Z</time>
      </trkpt>
      <trkpt lat="43.21461" lon="5.53745">
        <ele>5.91</ele>
        <time>2019-04-20T14:05:43Z</time>
      </trkpt>
      <trkpt lat="43.2146" lon="5.53741">
        <ele>6.39</ele>
        <time>2019-04-20T14:05:57Z</time>
      </trkpt>
      <trkpt lat="43.21458" lon="5.53739">
        <ele>5.91</ele>
        <time>2019-04-20T14:06:13Z</time>
      </trkpt>
      <trkpt lat="43.21457" lon="5.53744">
        <ele>6.87</ele>
        <time>2019-04-20T14:06:31Z</time>
      </trkpt>
      <trkpt lat="43.21456" lon="5.53746">
        <ele>6.39</ele>
        <time>2019-04-20T14:06:40Z</time>
      </trkpt>
      <trkpt lat="43.21459" lon="5.53746">
        <ele>6.87</ele>
        <time>2019-04-20T14:06:51Z</time>
      </trkpt>
      <trkpt lat="43.21456" lon="5.53745">
        <ele>6.39</ele>
        <time>2019-04-20T14:07:00Z</time>
      </trkpt>
      <trkpt lat="43.21453" lon="5.53749">
        <ele>5.42</ele>
        <time>2019-04-20T14:07:08Z</time>
      </trkpt>
      <trkpt lat="43.21451" lon="5.53755">
        <ele>6.87</ele>
        <time>2019-04-20T14:07:17Z</time>
      </trkpt>
      <trkpt lat="43.21445" lon="5.5376">
        <ele>7.35</ele>
        <time>2019-04-20T14:07:28Z</time>
      </trkpt>
      <trkpt lat="43.21437" lon="5.53773">
        <ele>6.39</ele>
        <time>2019-04-20T14:07:42Z</time>
      </trkpt>
      <trkpt lat="43.21437" lon="5.53778">
        <ele>6.87</ele>
        <time>2019-04-20T14:07:58Z</time>
      </trkpt>
      <trkpt lat="43.21437" lon="5.53777">
        <ele>6.87</ele>
        <time>2019-04-20T14:07:59Z</time>
      </trkpt>
      <trkpt lat="43.21432" lon="5.53774">
        <ele>6.39</ele>
        <time>2019-04-20T14:08:12Z</time>
      </trkpt>
      <trkpt lat="43.21433" lon="5.53776">
        <ele>5.91</ele>
        <time>2019-04-20T14:08:14Z</time>
      </trkpt>
      <trkpt lat="43.21421" lon="5.5379">
        <ele>5.91</ele>
        <time>2019-04-20T14:08:30Z</time>
      </trkpt>
      <trkpt lat="43.21417" lon="5.538">
        <ele>5.91</ele>
        <time>2019-04-20T14:08:44Z</time>
      </trkpt>
      <trkpt lat="43.21415" lon="5.53803">
        <ele>6.39</ele>
        <time>2019-04-20T14:08:46Z</time>
      </trkpt>
      <trkpt lat="43.21411" lon="5.5382">
        <ele>5.42</ele>
        <time>2019-04-20T14:09:00Z</time>
      </trkpt>
      <trkpt lat="43.21409" lon="5.53822">
        <ele>5.91</ele>
        <time>2019-04-20T14:09:02Z</time>
      </trkpt>
      <trkpt lat="43.21404" lon="5.53825">
        <ele>5.42</ele>
        <time>2019-04-20T14:09:17Z</time>
      </trkpt>
      <trkpt lat="43.21395" lon="5.53824">
        <ele>6.87</ele>
        <time>2019-04-20T14:09:30Z</time>
      </trkpt>
      <trkpt lat="43.21393" lon="5.53823">
        <ele>6.87</ele>
        <time>2019-04-20T14:09:43Z</time>
      </trkpt>
      <trkpt lat="43.21389" lon="5.53846">
        <ele>7.83</ele>
        <time>2019-04-20T14:09:57Z</time>
      </trkpt>
      <trkpt lat="43.2138" lon="5.53859">
        <ele>7.35</ele>
        <time>2019-04-20T14:10:11Z</time>
      </trkpt>
      <trkpt lat="43.21377" lon="5.53871">
        <ele>7.83</ele>
        <time>2019-04-20T14:10:20Z</time>
      </trkpt>
      <trkpt lat="43.21376" lon="5.53883">
        <ele>7.35</ele>
        <time>2019-04-20T14:10:28Z</time>
      </trkpt>
      <trkpt lat="43.21377" lon="5.53889">
        <ele>8.31</ele>
        <time>2019-04-20T14:10:35Z</time>
      </trkpt>
      <trkpt lat="43.2138" lon="5.53897">
        <ele>7.35</ele>
        <time>2019-04-20T14:10:41Z</time>
      </trkpt>
      <trkpt lat="43.21381" lon="5.53903">
        <ele>7.35</ele>
        <time>2019-04-20T14:10:45Z</time>
      </trkpt>
      <trkpt lat="43.21381" lon="5.5391">
        <ele>7.35</ele>
        <time>2019-04-20T14:10:47Z</time>
      </trkpt>
      <trkpt lat="43.21381" lon="5.53911">
        <ele>7.83</ele>
        <time>2019-04-20T14:10:48Z</time>
      </trkpt>
      <trkpt lat="43.2138" lon="5.53913">
        <ele>7.83</ele>
        <time>2019-04-20T14:10:49Z</time>
      </trkpt>
      <trkpt lat="43.21377" lon="5.53919">
        <ele>7.35</ele>
        <time>2019-04-20T14:10:54Z</time>
      </trkpt>
      <trkpt lat="43.21376" lon="5.53921">
        <ele>7.35</ele>
        <time>2019-04-20T14:10:55Z</time>
      </trkpt>
      <trkpt lat="43.21376" lon="5.53925">
        <ele>7.35</ele>
        <time>2019-04-20T14:10:58Z</time>
      </trkpt>
      <trkpt lat="43.21376" lon="5.53931">
        <ele>7.83</ele>
        <time>2019-04-20T14:11:04Z</time>
      </trkpt>
      <trkpt lat="43.21377" lon="5.53933">
        <ele>7.83</ele>
        <time>2019-04-20T14:11:05Z</time>
      </trkpt>
      <trkpt lat="43.21377" lon="5.53936">
        <ele>7.83</ele>
        <time>2019-04-20T14:11:06Z</time>
      </trkpt>
      <trkpt lat="43.21376" lon="5.53942">
        <ele>8.31</ele>
        <time>2019-04-20T14:11:12Z</time>
      </trkpt>
      <trkpt lat="43.21376" lon="5.53944">
        <ele>8.79</ele>
        <time>2019-04-20T14:11:13Z</time>
      </trkpt>
      <trkpt lat="43.21376" lon="5.53947">
        <ele>8.31</ele>
        <time>2019-04-20T14:11:14Z</time>
      </trkpt>
      <trkpt lat="43.21376" lon="5.53953">
        <ele>8.31</ele>
        <time>2019-04-20T14:11:20Z</time>
      </trkpt>
      <trkpt lat="43.21376" lon="5.53956">
        <ele>8.79</ele>
        <time>2019-04-20T14:11:23Z</time>
      </trkpt>
      <trkpt lat="43.21376" lon="5.53959">
        <ele>8.79</ele>
        <time>2019-04-20T14:11:24Z</time>
      </trkpt>
      <trkpt lat="43.21376" lon="5.53961">
        <ele>8.31</ele>
        <time>2019-04-20T14:11:25Z</time>
      </trkpt>
      <trkpt lat="43.21375" lon="5.53978">
        <ele>9.27</ele>
        <time>2019-04-20T14:11:37Z</time>
      </trkpt>
      <trkpt lat="43.21376" lon="5.53981">
        <ele>9.27</ele>
        <time>2019-04-20T14:11:38Z</time>
      </trkpt>
      <trkpt lat="43.21376" lon="5.53983">
        <ele>8.79</ele>
        <time>2019-04-20T14:11:39Z</time>
      </trkpt>
      <trkpt lat="43.21376" lon="5.53999">
        <ele>9.75</ele>
        <time>2019-04-20T14:11:52Z</time>
      </trkpt>
      <trkpt lat="43.21376" lon="5.54025">
        <ele>10.71</ele>
        <time>2019-04-20T14:12:08Z</time>
      </trkpt>
      <trkpt lat="43.21375" lon="5.54031">
        <ele>11.19</ele>
        <time>2019-04-20T14:12:13Z</time>
      </trkpt>
      <trkpt lat="43.21374" lon="5.54033">
        <ele>10.71</ele>
        <time>2019-04-20T14:12:14Z</time>
      </trkpt>
      <trkpt lat="43.2137" lon="5.54049">
        <ele>11.67</ele>
        <time>2019-04-20T14:12:24Z</time>
      </trkpt>
      <trkpt lat="43.21368" lon="5.54064">
        <ele>11.67</ele>
        <time>2019-04-20T14:12:34Z</time>
      </trkpt>
      <trkpt lat="43.21366" lon="5.54066">
        <ele>12.15</ele>
        <time>2019-04-20T14:12:44Z</time>
      </trkpt>
      <trkpt lat="43.21366" lon="5.54067">
        <ele>12.15</ele>
        <time>2019-04-20T14:12:45Z</time>
      </trkpt>
      <trkpt lat="43.21367" lon="5.54068">
        <ele>12.15</ele>
        <time>2019-04-20T14:12:46Z</time>
      </trkpt>
      <trkpt lat="43.21367" lon="5.54074">
        <ele>11.67</ele>
        <time>2019-04-20T14:12:57Z</time>
      </trkpt>
      <trkpt lat="43.21368" lon="5.54079">
        <ele>12.15</ele>
        <time>2019-04-20T14:13:04Z</time>
      </trkpt>
      <trkpt lat="43.21371" lon="5.54086">
        <ele>12.15</ele>
        <time>2019-04-20T14:13:10Z</time>
      </trkpt>
      <trkpt lat="43.2137" lon="5.54088">
        <ele>12.15</ele>
        <time>2019-04-20T14:13:11Z</time>
      </trkpt>
      <trkpt lat="43.21365" lon="5.54096">
        <ele>12.63</ele>
        <time>2019-04-20T14:13:17Z</time>
      </trkpt>
      <trkpt lat="43.21364" lon="5.54113">
        <ele>13.12</ele>
        <time>2019-04-20T14:13:25Z</time>
      </trkpt>
      <trkpt lat="43.21365" lon="5.54116">
        <ele>13.12</ele>
        <time>2019-04-20T14:13:26Z</time>
      </trkpt>
      <trkpt lat="43.21365" lon="5.5412">
        <ele>13.12</ele>
        <time>2019-04-20T14:13:29Z</time>
      </trkpt>
      <trkpt lat="43.21364" lon="5.54127">
        <ele>14.08</ele>
        <time>2019-04-20T14:13:33Z</time>
      </trkpt>
      <trkpt lat="43.21362" lon="5.54134">
        <ele>13.6</ele>
        <time>2019-04-20T14:13:38Z</time>
      </trkpt>
      <trkpt lat="43.21356" lon="5.5414">
        <ele>15.04</ele>
        <time>2019-04-20T14:13:48Z</time>
      </trkpt>
      <trkpt lat="43.21353" lon="5.54147">
        <ele>15.04</ele>
        <time>2019-04-20T14:14:02Z</time>
      </trkpt>
      <trkpt lat="43.21351" lon="5.54152">
        <ele>16</ele>
        <time>2019-04-20T14:14:08Z</time>
      </trkpt>
      <trkpt lat="43.2135" lon="5.54154">
        <ele>16</ele>
        <time>2019-04-20T14:14:09Z</time>
      </trkpt>
      <trkpt lat="43.21343" lon="5.5416">
        <ele>17.44</ele>
        <time>2019-04-20T14:14:17Z</time>
      </trkpt>
      <trkpt lat="43.21339" lon="5.54166">
        <ele>17.44</ele>
        <time>2019-04-20T14:14:23Z</time>
      </trkpt>
      <trkpt lat="43.21338" lon="5.54169">
        <ele>17.92</ele>
        <time>2019-04-20T14:14:26Z</time>
      </trkpt>
      <trkpt lat="43.21337" lon="5.54171">
        <ele>17.44</ele>
        <time>2019-04-20T14:14:27Z</time>
      </trkpt>
      <trkpt lat="43.21336" lon="5.54172">
        <ele>17.44</ele>
        <time>2019-04-20T14:14:28Z</time>
      </trkpt>
      <trkpt lat="43.21335" lon="5.54174">
        <ele>17.44</ele>
        <time>2019-04-20T14:14:29Z</time>
      </trkpt>
      <trkpt lat="43.21333" lon="5.54175">
        <ele>17.44</ele>
        <time>2019-04-20T14:14:30Z</time>
      </trkpt>
      <trkpt lat="43.21331" lon="5.54176">
        <ele>17.44</ele>
        <time>2019-04-20T14:14:31Z</time>
      </trkpt>
      <trkpt lat="43.21325" lon="5.54183">
        <ele>19.36</ele>
        <time>2019-04-20T14:14:43Z</time>
      </trkpt>
      <trkpt lat="43.2132" lon="5.5419">
        <ele>19.84</ele>
        <time>2019-04-20T14:14:53Z</time>
      </trkpt>
      <trkpt lat="43.21319" lon="5.54191">
        <ele>19.84</ele>
        <time>2019-04-20T14:14:54Z</time>
      </trkpt>
      <trkpt lat="43.21317" lon="5.54193">
        <ele>20.32</ele>
        <time>2019-04-20T14:14:55Z</time>
      </trkpt>
      <trkpt lat="43.21312" lon="5.54207">
        <ele>22.25</ele>
        <time>2019-04-20T14:15:05Z</time>
      </trkpt>
      <trkpt lat="43.21308" lon="5.54223">
        <ele>23.21</ele>
        <time>2019-04-20T14:15:16Z</time>
      </trkpt>
      <trkpt lat="43.21306" lon="5.54233">
        <ele>24.65</ele>
        <time>2019-04-20T14:15:24Z</time>
      </trkpt>
      <trkpt lat="43.21305" lon="5.54235">
        <ele>24.17</ele>
        <time>2019-04-20T14:15:25Z</time>
      </trkpt>
      <trkpt lat="43.21304" lon="5.54238">
        <ele>25.13</ele>
        <time>2019-04-20T14:15:26Z</time>
      </trkpt>
      <trkpt lat="43.21292" lon="5.54253">
        <ele>26.09</ele>
        <time>2019-04-20T14:15:38Z</time>
      </trkpt>
      <trkpt lat="43.21272" lon="5.54261">
        <ele>26.57</ele>
        <time>2019-04-20T14:15:54Z</time>
      </trkpt>
      <trkpt lat="43.21268" lon="5.54266">
        <ele>25.61</ele>
        <time>2019-04-20T14:16:00Z</time>
      </trkpt>
      <trkpt lat="43.21267" lon="5.54268">
        <ele>26.09</ele>
        <time>2019-04-20T14:16:01Z</time>
      </trkpt>
      <trkpt lat="43.21265" lon="5.54273">
        <ele>25.61</ele>
        <time>2019-04-20T14:16:07Z</time>
      </trkpt>
      <trkpt lat="43.21264" lon="5.54274">
        <ele>25.61</ele>
        <time>2019-04-20T14:16:08Z</time>
      </trkpt>
      <trkpt lat="43.21261" lon="5.54278">
        <ele>26.09</ele>
        <time>2019-04-20T14:16:13Z</time>
      </trkpt>
      <trkpt lat="43.21261" lon="5.54279">
        <ele>25.61</ele>
        <time>2019-04-20T14:16:14Z</time>
      </trkpt>
      <trkpt lat="43.21261" lon="5.54281">
        <ele>25.61</ele>
        <time>2019-04-20T14:16:15Z</time>
      </trkpt>
      <trkpt lat="43.21261" lon="5.54283">
        <ele>26.09</ele>
        <time>2019-04-20T14:16:16Z</time>
      </trkpt>
      <trkpt lat="43.2126" lon="5.54286">
        <ele>26.09</ele>
        <time>2019-04-20T14:16:17Z</time>
      </trkpt>
      <trkpt lat="43.2126" lon="5.54288">
        <ele>25.61</ele>
        <time>2019-04-20T14:16:18Z</time>
      </trkpt>
      <trkpt lat="43.21259" lon="5.5429">
        <ele>25.61</ele>
        <time>2019-04-20T14:16:19Z</time>
      </trkpt>
      <trkpt lat="43.2125" lon="5.54308">
        <ele>23.21</ele>
        <time>2019-04-20T14:16:31Z</time>
      </trkpt>
      <trkpt lat="43.2124" lon="5.54319">
        <ele>23.21</ele>
        <time>2019-04-20T14:16:39Z</time>
      </trkpt>
      <trkpt lat="43.21239" lon="5.5432">
        <ele>23.21</ele>
        <time>2019-04-20T14:16:40Z</time>
      </trkpt>
      <trkpt lat="43.21238" lon="5.54321">
        <ele>23.21</ele>
        <time>2019-04-20T14:16:41Z</time>
      </trkpt>
      <trkpt lat="43.21238" lon="5.54322">
        <ele>22.73</ele>
        <time>2019-04-20T14:16:42Z</time>
      </trkpt>
      <trkpt lat="43.21238" lon="5.54324">
        <ele>23.21</ele>
        <time>2019-04-20T14:16:43Z</time>
      </trkpt>
      <trkpt lat="43.21237" lon="5.54325">
        <ele>23.21</ele>
        <time>2019-04-20T14:16:44Z</time>
      </trkpt>
      <trkpt lat="43.21237" lon="5.54328">
        <ele>22.73</ele>
        <time>2019-04-20T14:16:45Z</time>
      </trkpt>
      <trkpt lat="43.21229" lon="5.54344">
        <ele>22.73</ele>
        <time>2019-04-20T14:16:55Z</time>
      </trkpt>
      <trkpt lat="43.21227" lon="5.54348">
        <ele>23.21</ele>
        <time>2019-04-20T14:16:58Z</time>
      </trkpt>
      <trkpt lat="43.21226" lon="5.5435">
        <ele>23.21</ele>
        <time>2019-04-20T14:16:59Z</time>
      </trkpt>
      <trkpt lat="43.21225" lon="5.54352">
        <ele>22.73</ele>
        <time>2019-04-20T14:17:00Z</time>
      </trkpt>
      <trkpt lat="43.21225" lon="5.54354">
        <ele>23.21</ele>
        <time>2019-04-20T14:17:01Z</time>
      </trkpt>
      <trkpt lat="43.2122" lon="5.54365">
        <ele>21.29</ele>
        <time>2019-04-20T14:17:11Z</time>
      </trkpt>
      <trkpt lat="43.21215" lon="5.54376">
        <ele>20.32</ele>
        <time>2019-04-20T14:17:21Z</time>
      </trkpt>
      <trkpt lat="43.21214" lon="5.54378">
        <ele>19.84</ele>
        <time>2019-04-20T14:17:22Z</time>
      </trkpt>
      <trkpt lat="43.21208" lon="5.54396">
        <ele>19.36</ele>
        <time>2019-04-20T14:17:34Z</time>
      </trkpt>
      <trkpt lat="43.21197" lon="5.54418">
        <ele>20.32</ele>
        <time>2019-04-20T14:17:47Z</time>
      </trkpt>
      <trkpt lat="43.21194" lon="5.54426">
        <ele>20.32</ele>
        <time>2019-04-20T14:17:54Z</time>
      </trkpt>
      <trkpt lat="43.21194" lon="5.54428">
        <ele>20.32</ele>
        <time>2019-04-20T14:17:55Z</time>
      </trkpt>
      <trkpt lat="43.21194" lon="5.5443">
        <ele>20.32</ele>
        <time>2019-04-20T14:17:56Z</time>
      </trkpt>
      <trkpt lat="43.21193" lon="5.54433">
        <ele>20.81</ele>
        <time>2019-04-20T14:17:57Z</time>
      </trkpt>
      <trkpt lat="43.21192" lon="5.54435">
        <ele>20.32</ele>
        <time>2019-04-20T14:17:58Z</time>
      </trkpt>
      <trkpt lat="43.21192" lon="5.54436">
        <ele>20.32</ele>
        <time>2019-04-20T14:17:59Z</time>
      </trkpt>
      <trkpt lat="43.21189" lon="5.5444">
        <ele>19.84</ele>
        <time>2019-04-20T14:18:03Z</time>
      </trkpt>
      <trkpt lat="43.21188" lon="5.54441">
        <ele>19.84</ele>
        <time>2019-04-20T14:18:04Z</time>
      </trkpt>
      <trkpt lat="43.21186" lon="5.54445">
        <ele>20.81</ele>
        <time>2019-04-20T14:18:07Z</time>
      </trkpt>
      <trkpt lat="43.21185" lon="5.54447">
        <ele>20.32</ele>
        <time>2019-04-20T14:18:08Z</time>
      </trkpt>
      <trkpt lat="43.21184" lon="5.5445">
        <ele>20.32</ele>
        <time>2019-04-20T14:18:12Z</time>
      </trkpt>
      <trkpt lat="43.21183" lon="5.54452">
        <ele>20.32</ele>
        <time>2019-04-20T14:18:13Z</time>
      </trkpt>
      <trkpt lat="43.21182" lon="5.54455">
        <ele>20.32</ele>
        <time>2019-04-20T14:18:15Z</time>
      </trkpt>
      <trkpt lat="43.21182" lon="5.54457">
        <ele>20.32</ele>
        <time>2019-04-20T14:18:16Z</time>
      </trkpt>
      <trkpt lat="43.21182" lon="5.54458">
        <ele>20.32</ele>
        <time>2019-04-20T14:18:17Z</time>
      </trkpt>
      <trkpt lat="43.21178" lon="5.5447">
        <ele>19.84</ele>
        <time>2019-04-20T14:18:27Z</time>
      </trkpt>
      <trkpt lat="43.21175" lon="5.54477">
        <ele>19.84</ele>
        <time>2019-04-20T14:18:32Z</time>
      </trkpt>
      <trkpt lat="43.21173" lon="5.54478">
        <ele>20.32</ele>
        <time>2019-04-20T14:18:33Z</time>
      </trkpt>
      <trkpt lat="43.21171" lon="5.5448">
        <ele>20.32</ele>
        <time>2019-04-20T14:18:34Z</time>
      </trkpt>
      <trkpt lat="43.2117" lon="5.54481">
        <ele>19.84</ele>
        <time>2019-04-20T14:18:35Z</time>
      </trkpt>
      <trkpt lat="43.21161" lon="5.54495">
        <ele>20.81</ele>
        <time>2019-04-20T14:18:49Z</time>
      </trkpt>
      <trkpt lat="43.2116" lon="5.54496">
        <ele>20.32</ele>
        <time>2019-04-20T14:18:50Z</time>
      </trkpt>
      <trkpt lat="43.21153" lon="5.54506">
        <ele>20.81</ele>
        <time>2019-04-20T14:18:59Z</time>
      </trkpt>
      <trkpt lat="43.2114" lon="5.5452">
        <ele>23.21</ele>
        <time>2019-04-20T14:19:15Z</time>
      </trkpt>
      <trkpt lat="43.21128" lon="5.54531">
        <ele>24.65</ele>
        <time>2019-04-20T14:19:27Z</time>
      </trkpt>
      <trkpt lat="43.21118" lon="5.54546">
        <ele>27.05</ele>
        <time>2019-04-20T14:19:47Z</time>
      </trkpt>
      <trkpt lat="43.21119" lon="5.54564">
        <ele>27.05</ele>
        <time>2019-04-20T14:20:06Z</time>
      </trkpt>
      <trkpt lat="43.21118" lon="5.5457">
        <ele>27.05</ele>
        <time>2019-04-20T14:20:10Z</time>
      </trkpt>
      <trkpt lat="43.2111" lon="5.54586">
        <ele>28.5</ele>
        <time>2019-04-20T14:20:25Z</time>
      </trkpt>
      <trkpt lat="43.21106" lon="5.54605">
        <ele>28.98</ele>
        <time>2019-04-20T14:20:41Z</time>
      </trkpt>
      <trkpt lat="43.21106" lon="5.54608">
        <ele>29.46</ele>
        <time>2019-04-20T14:20:42Z</time>
      </trkpt>
      <trkpt lat="43.21105" lon="5.54609">
        <ele>28.98</ele>
        <time>2019-04-20T14:20:43Z</time>
      </trkpt>
      <trkpt lat="43.21103" lon="5.54625">
        <ele>29.46</ele>
        <time>2019-04-20T14:20:55Z</time>
      </trkpt>
      <trkpt lat="43.21103" lon="5.54628">
        <ele>29.46</ele>
        <time>2019-04-20T14:20:57Z</time>
      </trkpt>
      <trkpt lat="43.21104" lon="5.5463">
        <ele>28.98</ele>
        <time>2019-04-20T14:20:58Z</time>
      </trkpt>
      <trkpt lat="43.21104" lon="5.54632">
        <ele>29.46</ele>
        <time>2019-04-20T14:20:59Z</time>
      </trkpt>
      <trkpt lat="43.21104" lon="5.54634">
        <ele>29.46</ele>
        <time>2019-04-20T14:21:00Z</time>
      </trkpt>
      <trkpt lat="43.21104" lon="5.54636">
        <ele>28.98</ele>
        <time>2019-04-20T14:21:01Z</time>
      </trkpt>
      <trkpt lat="43.21104" lon="5.54641">
        <ele>28.98</ele>
        <time>2019-04-20T14:21:06Z</time>
      </trkpt>
      <trkpt lat="43.21101" lon="5.54658">
        <ele>28.98</ele>
        <time>2019-04-20T14:21:16Z</time>
      </trkpt>
      <trkpt lat="43.21101" lon="5.5466">
        <ele>28.5</ele>
        <time>2019-04-20T14:21:18Z</time>
      </trkpt>
      <trkpt lat="43.21101" lon="5.54662">
        <ele>28.5</ele>
        <time>2019-04-20T14:21:19Z</time>
      </trkpt>
      <trkpt lat="43.21099" lon="5.54668">
        <ele>27.53</ele>
        <time>2019-04-20T14:21:25Z</time>
      </trkpt>
      <trkpt lat="43.21097" lon="5.54683">
        <ele>28.02</ele>
        <time>2019-04-20T14:21:36Z</time>
      </trkpt>
      <trkpt lat="43.21091" lon="5.54705">
        <ele>28.5</ele>
        <time>2019-04-20T14:21:51Z</time>
      </trkpt>
      <trkpt lat="43.2109" lon="5.5471">
        <ele>28.5</ele>
        <time>2019-04-20T14:21:55Z</time>
      </trkpt>
      <trkpt lat="43.21089" lon="5.54712">
        <ele>28.98</ele>
        <time>2019-04-20T14:21:56Z</time>
      </trkpt>
      <trkpt lat="43.21088" lon="5.54714">
        <ele>28.5</ele>
        <time>2019-04-20T14:21:57Z</time>
      </trkpt>
      <trkpt lat="43.21088" lon="5.54715">
        <ele>28.98</ele>
        <time>2019-04-20T14:21:58Z</time>
      </trkpt>
      <trkpt lat="43.21086" lon="5.54724">
        <ele>29.46</ele>
        <time>2019-04-20T14:22:06Z</time>
      </trkpt>
      <trkpt lat="43.21085" lon="5.54725">
        <ele>29.94</ele>
        <time>2019-04-20T14:22:07Z</time>
      </trkpt>
      <trkpt lat="43.21083" lon="5.54727">
        <ele>29.94</ele>
        <time>2019-04-20T14:22:08Z</time>
      </trkpt>
      <trkpt lat="43.21082" lon="5.54729">
        <ele>29.94</ele>
        <time>2019-04-20T14:22:09Z</time>
      </trkpt>
      <trkpt lat="43.21081" lon="5.54731">
        <ele>29.46</ele>
        <time>2019-04-20T14:22:10Z</time>
      </trkpt>
      <trkpt lat="43.2108" lon="5.54733">
        <ele>29.94</ele>
        <time>2019-04-20T14:22:11Z</time>
      </trkpt>
      <trkpt lat="43.21078" lon="5.54735">
        <ele>29.94</ele>
        <time>2019-04-20T14:22:12Z</time>
      </trkpt>
      <trkpt lat="43.21076" lon="5.54737">
        <ele>29.94</ele>
        <time>2019-04-20T14:22:13Z</time>
      </trkpt>
      <trkpt lat="43.2107" lon="5.54746">
        <ele>30.42</ele>
        <time>2019-04-20T14:22:24Z</time>
      </trkpt>
      <trkpt lat="43.21062" lon="5.54766">
        <ele>31.38</ele>
        <time>2019-04-20T14:22:36Z</time>
      </trkpt>
      <trkpt lat="43.21054" lon="5.54778">
        <ele>31.86</ele>
        <time>2019-04-20T14:22:48Z</time>
      </trkpt>
      <trkpt lat="43.21054" lon="5.5478">
        <ele>31.86</ele>
        <time>2019-04-20T14:22:49Z</time>
      </trkpt>
      <trkpt lat="43.21046" lon="5.54795">
        <ele>31.38</ele>
        <time>2019-04-20T14:23:01Z</time>
      </trkpt>
      <trkpt lat="43.21039" lon="5.54809">
        <ele>31.86</ele>
        <time>2019-04-20T14:23:12Z</time>
      </trkpt>
      <trkpt lat="43.21034" lon="5.54815">
        <ele>30.9</ele>
        <time>2019-04-20T14:23:18Z</time>
      </trkpt>
      <trkpt lat="43.21033" lon="5.54816">
        <ele>31.86</ele>
        <time>2019-04-20T14:23:19Z</time>
      </trkpt>
      <trkpt lat="43.21031" lon="5.54817">
        <ele>31.38</ele>
        <time>2019-04-20T14:23:20Z</time>
      </trkpt>
      <trkpt lat="43.21021" lon="5.54816">
        <ele>31.38</ele>
        <time>2019-04-20T14:23:29Z</time>
      </trkpt>
      <trkpt lat="43.21021" lon="5.54818">
        <ele>31.86</ele>
        <time>2019-04-20T14:23:30Z</time>
      </trkpt>
      <trkpt lat="43.21017" lon="5.54822">
        <ele>31.86</ele>
        <time>2019-04-20T14:23:40Z</time>
      </trkpt>
      <trkpt lat="43.21017" lon="5.54825">
        <ele>32.34</ele>
        <time>2019-04-20T14:23:43Z</time>
      </trkpt>
      <trkpt lat="43.21012" lon="5.54834">
        <ele>32.82</ele>
        <time>2019-04-20T14:23:55Z</time>
      </trkpt>
      <trkpt lat="43.21008" lon="5.54836">
        <ele>33.3</ele>
        <time>2019-04-20T14:24:06Z</time>
      </trkpt>
      <trkpt lat="43.21005" lon="5.54842">
        <ele>33.78</ele>
        <time>2019-04-20T14:24:17Z</time>
      </trkpt>
      <trkpt lat="43.21005" lon="5.54844">
        <ele>33.3</ele>
        <time>2019-04-20T14:24:18Z</time>
      </trkpt>
      <trkpt lat="43.21005" lon="5.54846">
        <ele>33.78</ele>
        <time>2019-04-20T14:24:19Z</time>
      </trkpt>
      <trkpt lat="43.21001" lon="5.54849">
        <ele>34.26</ele>
        <time>2019-04-20T14:24:29Z</time>
      </trkpt>
      <trkpt lat="43.20988" lon="5.54872">
        <ele>35.23</ele>
        <time>2019-04-20T14:24:41Z</time>
      </trkpt>
      <trkpt lat="43.20981" lon="5.54895">
        <ele>36.19</ele>
        <time>2019-04-20T14:24:53Z</time>
      </trkpt>
      <trkpt lat="43.20975" lon="5.54909">
        <ele>38.11</ele>
        <time>2019-04-20T14:25:06Z</time>
      </trkpt>
      <trkpt lat="43.20975" lon="5.54911">
        <ele>38.11</ele>
        <time>2019-04-20T14:25:07Z</time>
      </trkpt>
      <trkpt lat="43.2097" lon="5.54925">
        <ele>39.07</ele>
        <time>2019-04-20T14:25:18Z</time>
      </trkpt>
      <trkpt lat="43.20964" lon="5.54941">
        <ele>40.03</ele>
        <time>2019-04-20T14:25:32Z</time>
      </trkpt>
      <trkpt lat="43.20957" lon="5.54955">
        <ele>40.99</ele>
        <time>2019-04-20T14:25:42Z</time>
      </trkpt>
      <trkpt lat="43.20955" lon="5.54965">
        <ele>41.47</ele>
        <time>2019-04-20T14:25:52Z</time>
      </trkpt>
      <trkpt lat="43.20955" lon="5.54967">
        <ele>41.95</ele>
        <time>2019-04-20T14:25:53Z</time>
      </trkpt>
      <trkpt lat="43.20955" lon="5.5497">
        <ele>41.95</ele>
        <time>2019-04-20T14:25:54Z</time>
      </trkpt>
      <trkpt lat="43.20954" lon="5.54972">
        <ele>41.95</ele>
        <time>2019-04-20T14:25:55Z</time>
      </trkpt>
      <trkpt lat="43.20954" lon="5.54974">
        <ele>42.44</ele>
        <time>2019-04-20T14:25:56Z</time>
      </trkpt>
      <trkpt lat="43.20953" lon="5.54976">
        <ele>41.95</ele>
        <time>2019-04-20T14:25:57Z</time>
      </trkpt>
      <trkpt lat="43.20951" lon="5.54981">
        <ele>42.44</ele>
        <time>2019-04-20T14:26:02Z</time>
      </trkpt>
      <trkpt lat="43.2095" lon="5.54986">
        <ele>43.4</ele>
        <time>2019-04-20T14:26:05Z</time>
      </trkpt>
      <trkpt lat="43.20949" lon="5.54989">
        <ele>43.4</ele>
        <time>2019-04-20T14:26:06Z</time>
      </trkpt>
      <trkpt lat="43.20946" lon="5.54994">
        <ele>43.88</ele>
        <time>2019-04-20T14:26:12Z</time>
      </trkpt>
      <trkpt lat="43.20945" lon="5.54996">
        <ele>44.36</ele>
        <time>2019-04-20T14:26:13Z</time>
      </trkpt>
      <trkpt lat="43.20942" lon="5.55003">
        <ele>45.8</ele>
        <time>2019-04-20T14:26:18Z</time>
      </trkpt>
      <trkpt lat="43.20941" lon="5.55004">
        <ele>45.32</ele>
        <time>2019-04-20T14:26:19Z</time>
      </trkpt>
      <trkpt lat="43.20938" lon="5.55009">
        <ele>45.8</ele>
        <time>2019-04-20T14:26:23Z</time>
      </trkpt>
      <trkpt lat="43.20938" lon="5.55011">
        <ele>45.8</ele>
        <time>2019-04-20T14:26:24Z</time>
      </trkpt>
      <trkpt lat="43.20937" lon="5.55014">
        <ele>45.32</ele>
        <time>2019-04-20T14:26:25Z</time>
      </trkpt>
      <trkpt lat="43.20936" lon="5.55016">
        <ele>46.28</ele>
        <time>2019-04-20T14:26:26Z</time>
      </trkpt>
      <trkpt lat="43.20934" lon="5.55019">
        <ele>46.76</ele>
        <time>2019-04-20T14:26:30Z</time>
      </trkpt>
      <trkpt lat="43.20933" lon="5.5502">
        <ele>46.76</ele>
        <time>2019-04-20T14:26:31Z</time>
      </trkpt>
      <trkpt lat="43.20932" lon="5.55022">
        <ele>46.76</ele>
        <time>2019-04-20T14:26:32Z</time>
      </trkpt>
      <trkpt lat="43.20928" lon="5.55038">
        <ele>48.2</ele>
        <time>2019-04-20T14:26:44Z</time>
      </trkpt>
      <trkpt lat="43.20926" lon="5.55047">
        <ele>48.68</ele>
        <time>2019-04-20T14:26:53Z</time>
      </trkpt>
      <trkpt lat="43.20925" lon="5.55063">
        <ele>50.13</ele>
        <time>2019-04-20T14:27:05Z</time>
      </trkpt>
      <trkpt lat="43.20926" lon="5.5507">
        <ele>50.13</ele>
        <time>2019-04-20T14:27:10Z</time>
      </trkpt>
      <trkpt lat="43.20926" lon="5.55072">
        <ele>51.09</ele>
        <time>2019-04-20T14:27:11Z</time>
      </trkpt>
      <trkpt lat="43.20926" lon="5.55074">
        <ele>51.09</ele>
        <time>2019-04-20T14:27:12Z</time>
      </trkpt>
      <trkpt lat="43.20925" lon="5.5508">
        <ele>52.05</ele>
        <time>2019-04-20T14:27:17Z</time>
      </trkpt>
      <trkpt lat="43.20923" lon="5.55098">
        <ele>53.97</ele>
        <time>2019-04-20T14:27:29Z</time>
      </trkpt>
      <trkpt lat="43.20923" lon="5.55106">
        <ele>54.45</ele>
        <time>2019-04-20T14:27:36Z</time>
      </trkpt>
      <trkpt lat="43.20923" lon="5.55111">
        <ele>55.41</ele>
        <time>2019-04-20T14:27:40Z</time>
      </trkpt>
      <trkpt lat="43.20922" lon="5.55113">
        <ele>54.93</ele>
        <time>2019-04-20T14:27:41Z</time>
      </trkpt>
      <trkpt lat="43.20922" lon="5.55118">
        <ele>55.89</ele>
        <time>2019-04-20T14:27:45Z</time>
      </trkpt>
      <trkpt lat="43.20921" lon="5.55121">
        <ele>56.37</ele>
        <time>2019-04-20T14:27:57Z</time>
      </trkpt>
      <trkpt lat="43.20921" lon="5.55131">
        <ele>57.34</ele>
        <time>2019-04-20T14:28:10Z</time>
      </trkpt>
      <trkpt lat="43.20918" lon="5.55142">
        <ele>59.26</ele>
        <time>2019-04-20T14:28:22Z</time>
      </trkpt>
      <trkpt lat="43.20919" lon="5.55153">
        <ele>60.7</ele>
        <time>2019-04-20T14:28:32Z</time>
      </trkpt>
      <trkpt lat="43.20918" lon="5.55155">
        <ele>61.18</ele>
        <time>2019-04-20T14:28:34Z</time>
      </trkpt>
      <trkpt lat="43.20917" lon="5.55158">
        <ele>60.7</ele>
        <time>2019-04-20T14:28:35Z</time>
      </trkpt>
      <trkpt lat="43.20916" lon="5.5516">
        <ele>61.18</ele>
        <time>2019-04-20T14:28:36Z</time>
      </trkpt>
      <trkpt lat="43.20917" lon="5.5517">
        <ele>61.66</ele>
        <time>2019-04-20T14:28:45Z</time>
      </trkpt>
      <trkpt lat="43.20919" lon="5.55184">
        <ele>63.58</ele>
        <time>2019-04-20T14:28:56Z</time>
      </trkpt>
      <trkpt lat="43.2092" lon="5.55199">
        <ele>65.51</ele>
        <time>2019-04-20T14:29:10Z</time>
      </trkpt>
      <trkpt lat="43.20917" lon="5.55212">
        <ele>67.43</ele>
        <time>2019-04-20T14:29:24Z</time>
      </trkpt>
      <trkpt lat="43.20916" lon="5.55228">
        <ele>68.87</ele>
        <time>2019-04-20T14:29:40Z</time>
      </trkpt>
      <trkpt lat="43.20916" lon="5.5523">
        <ele>69.35</ele>
        <time>2019-04-20T14:29:41Z</time>
      </trkpt>
      <trkpt lat="43.20915" lon="5.55244">
        <ele>70.79</ele>
        <time>2019-04-20T14:29:53Z</time>
      </trkpt>
      <trkpt lat="43.20918" lon="5.5526">
        <ele>72.72</ele>
        <time>2019-04-20T14:30:08Z</time>
      </trkpt>
      <trkpt lat="43.20915" lon="5.55269">
        <ele>74.16</ele>
        <time>2019-04-20T14:30:20Z</time>
      </trkpt>
      <trkpt lat="43.20916" lon="5.55275">
        <ele>74.64</ele>
        <time>2019-04-20T14:30:33Z</time>
      </trkpt>
      <trkpt lat="43.20915" lon="5.55285">
        <ele>76.08</ele>
        <time>2019-04-20T14:30:43Z</time>
      </trkpt>
      <trkpt lat="43.20916" lon="5.55291">
        <ele>77.04</ele>
        <time>2019-04-20T14:30:50Z</time>
      </trkpt>
      <trkpt lat="43.20917" lon="5.55293">
        <ele>77.04</ele>
        <time>2019-04-20T14:30:51Z</time>
      </trkpt>
      <trkpt lat="43.20917" lon="5.55297">
        <ele>77.04</ele>
        <time>2019-04-20T14:30:55Z</time>
      </trkpt>
      <trkpt lat="43.20917" lon="5.55299">
        <ele>78</ele>
        <time>2019-04-20T14:30:56Z</time>
      </trkpt>
      <trkpt lat="43.20916" lon="5.55305">
        <ele>78.97</ele>
        <time>2019-04-20T14:31:05Z</time>
      </trkpt>
      <trkpt lat="43.20916" lon="5.55307">
        <ele>79.45</ele>
        <time>2019-04-20T14:31:06Z</time>
      </trkpt>
      <trkpt lat="43.20916" lon="5.55317">
        <ele>80.41</ele>
        <time>2019-04-20T14:31:17Z</time>
      </trkpt>
      <trkpt lat="43.20916" lon="5.55319">
        <ele>80.89</ele>
        <time>2019-04-20T14:31:18Z</time>
      </trkpt>
      <trkpt lat="43.20917" lon="5.5533">
        <ele>81.37</ele>
        <time>2019-04-20T14:31:26Z</time>
      </trkpt>
      <trkpt lat="43.20917" lon="5.55332">
        <ele>81.37</ele>
        <time>2019-04-20T14:31:27Z</time>
      </trkpt>
      <trkpt lat="43.20919" lon="5.55351">
        <ele>83.77</ele>
        <time>2019-04-20T14:31:39Z</time>
      </trkpt>
      <trkpt lat="43.20918" lon="5.55363">
        <ele>85.21</ele>
        <time>2019-04-20T14:31:51Z</time>
      </trkpt>
      <trkpt lat="43.20917" lon="5.55378">
        <ele>87.14</ele>
        <time>2019-04-20T14:32:05Z</time>
      </trkpt>
      <trkpt lat="43.20918" lon="5.55386">
        <ele>89.06</ele>
        <time>2019-04-20T14:32:12Z</time>
      </trkpt>
      <trkpt lat="43.20918" lon="5.5539">
        <ele>89.54</ele>
        <time>2019-04-20T14:32:15Z</time>
      </trkpt>
      <trkpt lat="43.20919" lon="5.55392">
        <ele>90.98</ele>
        <time>2019-04-20T14:32:29Z</time>
      </trkpt>
      <trkpt lat="43.2092" lon="5.55395">
        <ele>90.98</ele>
        <time>2019-04-20T14:32:42Z</time>
      </trkpt>
      <trkpt lat="43.20918" lon="5.55403">
        <ele>91.46</ele>
        <time>2019-04-20T14:32:49Z</time>
      </trkpt>
      <trkpt lat="43.20918" lon="5.55415">
        <ele>93.39</ele>
        <time>2019-04-20T14:33:00Z</time>
      </trkpt>
      <trkpt lat="43.20915" lon="5.55427">
        <ele>94.35</ele>
        <time>2019-04-20T14:33:12Z</time>
      </trkpt>
      <trkpt lat="43.20914" lon="5.5543">
        <ele>94.35</ele>
        <time>2019-04-20T14:33:15Z</time>
      </trkpt>
      <trkpt lat="43.2091" lon="5.55429">
        <ele>95.31</ele>
        <time>2019-04-20T14:33:30Z</time>
      </trkpt>
      <trkpt lat="43.20908" lon="5.55429">
        <ele>94.83</ele>
        <time>2019-04-20T14:33:44Z</time>
      </trkpt>
      <trkpt lat="43.20912" lon="5.55431">
        <ele>94.35</ele>
        <time>2019-04-20T14:33:50Z</time>
      </trkpt>
      <trkpt lat="43.20916" lon="5.55442">
        <ele>96.27</ele>
        <time>2019-04-20T14:34:04Z</time>
      </trkpt>
      <trkpt lat="43.20918" lon="5.55452">
        <ele>97.23</ele>
        <time>2019-04-20T14:34:15Z</time>
      </trkpt>
      <trkpt lat="43.20917" lon="5.55463">
        <ele>99.15</ele>
        <time>2019-04-20T14:34:30Z</time>
      </trkpt>
      <trkpt lat="43.20917" lon="5.55475">
        <ele>102.04</ele>
        <time>2019-04-20T14:34:46Z</time>
      </trkpt>
      <trkpt lat="43.20916" lon="5.55485">
        <ele>103</ele>
        <time>2019-04-20T14:34:58Z</time>
      </trkpt>
      <trkpt lat="43.20917" lon="5.55498">
        <ele>104.92</ele>
        <time>2019-04-20T14:35:10Z</time>
      </trkpt>
      <trkpt lat="43.20919" lon="5.55507">
        <ele>105.88</ele>
        <time>2019-04-20T14:35:18Z</time>
      </trkpt>
      <trkpt lat="43.20921" lon="5.55517">
        <ele>107.81</ele>
        <time>2019-04-20T14:35:29Z</time>
      </trkpt>
      <trkpt lat="43.20921" lon="5.55533">
        <ele>109.73</ele>
        <time>2019-04-20T14:35:43Z</time>
      </trkpt>
      <trkpt lat="43.20922" lon="5.55535">
        <ele>110.21</ele>
        <time>2019-04-20T14:35:56Z</time>
      </trkpt>
      <trkpt lat="43.2092" lon="5.55536">
        <ele>109.25</ele>
        <time>2019-04-20T14:36:15Z</time>
      </trkpt>
      <trkpt lat="43.20917" lon="5.55537">
        <ele>109.73</ele>
        <time>2019-04-20T14:36:34Z</time>
      </trkpt>
      <trkpt lat="43.2092" lon="5.55547">
        <ele>111.65</ele>
        <time>2019-04-20T14:36:43Z</time>
      </trkpt>
      <trkpt lat="43.20921" lon="5.5555">
        <ele>112.13</ele>
        <time>2019-04-20T14:36:46Z</time>
      </trkpt>
      <trkpt lat="43.20919" lon="5.55558">
        <ele>114.05</ele>
        <time>2019-04-20T14:37:00Z</time>
      </trkpt>
      <trkpt lat="43.20919" lon="5.55567">
        <ele>115.98</ele>
        <time>2019-04-20T14:37:11Z</time>
      </trkpt>
      <trkpt lat="43.20919" lon="5.55574">
        <ele>117.42</ele>
        <time>2019-04-20T14:37:21Z</time>
      </trkpt>
      <trkpt lat="43.2092" lon="5.55577">
        <ele>118.86</ele>
        <time>2019-04-20T14:37:25Z</time>
      </trkpt>
      <trkpt lat="43.20921" lon="5.55587">
        <ele>119.82</ele>
        <time>2019-04-20T14:37:35Z</time>
      </trkpt>
      <trkpt lat="43.20922" lon="5.5559">
        <ele>120.3</ele>
        <time>2019-04-20T14:37:38Z</time>
      </trkpt>
      <trkpt lat="43.20923" lon="5.55592">
        <ele>121.26</ele>
        <time>2019-04-20T14:37:41Z</time>
      </trkpt>
      <trkpt lat="43.20929" lon="5.55602">
        <ele>123.19</ele>
        <time>2019-04-20T14:37:55Z</time>
      </trkpt>
      <trkpt lat="43.20934" lon="5.55609">
        <ele>126.55</ele>
        <time>2019-04-20T14:38:09Z</time>
      </trkpt>
      <trkpt lat="43.20938" lon="5.55618">
        <ele>128.95</ele>
        <time>2019-04-20T14:38:21Z</time>
      </trkpt>
      <trkpt lat="43.20937" lon="5.55625">
        <ele>129.92</ele>
        <time>2019-04-20T14:38:33Z</time>
      </trkpt>
      <trkpt lat="43.20933" lon="5.55624">
        <ele>129.92</ele>
        <time>2019-04-20T14:38:46Z</time>
      </trkpt>
      <trkpt lat="43.20935" lon="5.55626">
        <ele>129.43</ele>
        <time>2019-04-20T14:39:01Z</time>
      </trkpt>
      <trkpt lat="43.20942" lon="5.55633">
        <ele>131.84</ele>
        <time>2019-04-20T14:39:16Z</time>
      </trkpt>
      <trkpt lat="43.20947" lon="5.55646">
        <ele>135.2</ele>
        <time>2019-04-20T14:39:28Z</time>
      </trkpt>
      <trkpt lat="43.20956" lon="5.55656">
        <ele>138.09</ele>
        <time>2019-04-20T14:39:40Z</time>
      </trkpt>
      <trkpt lat="43.20952" lon="5.55657">
        <ele>138.57</ele>
        <time>2019-04-20T14:39:43Z</time>
      </trkpt>
      <trkpt lat="43.2095" lon="5.55657">
        <ele>138.57</ele>
        <time>2019-04-20T14:39:44Z</time>
      </trkpt>
      <trkpt lat="43.20938" lon="5.55661">
        <ele>139.05</ele>
        <time>2019-04-20T14:39:58Z</time>
      </trkpt>
      <trkpt lat="43.20934" lon="5.55659">
        <ele>140.01</ele>
        <time>2019-04-20T14:40:14Z</time>
      </trkpt>
      <trkpt lat="43.20923" lon="5.55662">
        <ele>141.93</ele>
        <time>2019-04-20T14:40:32Z</time>
      </trkpt>
      <trkpt lat="43.2091" lon="5.55667">
        <ele>142.89</ele>
        <time>2019-04-20T14:40:42Z</time>
      </trkpt>
      <trkpt lat="43.209" lon="5.55673">
        <ele>144.34</ele>
        <time>2019-04-20T14:40:56Z</time>
      </trkpt>
      <trkpt lat="43.20886" lon="5.55678">
        <ele>147.22</ele>
        <time>2019-04-20T14:41:10Z</time>
      </trkpt>
      <trkpt lat="43.2088" lon="5.55685">
        <ele>149.14</ele>
        <time>2019-04-20T14:41:20Z</time>
      </trkpt>
      <trkpt lat="43.20875" lon="5.55701">
        <ele>150.58</ele>
        <time>2019-04-20T14:41:30Z</time>
      </trkpt>
      <trkpt lat="43.20872" lon="5.55712">
        <ele>152.03</ele>
        <time>2019-04-20T14:41:40Z</time>
      </trkpt>
      <trkpt lat="43.20872" lon="5.55714">
        <ele>152.03</ele>
        <time>2019-04-20T14:41:41Z</time>
      </trkpt>
      <trkpt lat="43.20872" lon="5.55718">
        <ele>153.47</ele>
        <time>2019-04-20T14:41:46Z</time>
      </trkpt>
      <trkpt lat="43.20871" lon="5.55719">
        <ele>153.47</ele>
        <time>2019-04-20T14:41:47Z</time>
      </trkpt>
      <trkpt lat="43.20871" lon="5.55723">
        <ele>153.95</ele>
        <time>2019-04-20T14:41:50Z</time>
      </trkpt>
      <trkpt lat="43.20871" lon="5.55725">
        <ele>154.43</ele>
        <time>2019-04-20T14:41:51Z</time>
      </trkpt>
      <trkpt lat="43.2087" lon="5.5573">
        <ele>154.43</ele>
        <time>2019-04-20T14:41:55Z</time>
      </trkpt>
      <trkpt lat="43.2087" lon="5.55732">
        <ele>154.91</ele>
        <time>2019-04-20T14:41:56Z</time>
      </trkpt>
      <trkpt lat="43.20869" lon="5.55735">
        <ele>154.91</ele>
        <time>2019-04-20T14:41:59Z</time>
      </trkpt>
      <trkpt lat="43.20865" lon="5.55739">
        <ele>154.91</ele>
        <time>2019-04-20T14:42:11Z</time>
      </trkpt>
      <trkpt lat="43.20863" lon="5.5574">
        <ele>154.91</ele>
        <time>2019-04-20T14:42:14Z</time>
      </trkpt>
      <trkpt lat="43.2086" lon="5.55745">
        <ele>155.87</ele>
        <time>2019-04-20T14:42:19Z</time>
      </trkpt>
      <trkpt lat="43.20856" lon="5.55756">
        <ele>158.75</ele>
        <time>2019-04-20T14:42:30Z</time>
      </trkpt>
      <trkpt lat="43.2085" lon="5.55766">
        <ele>161.16</ele>
        <time>2019-04-20T14:42:42Z</time>
      </trkpt>
      <trkpt lat="43.20844" lon="5.55778">
        <ele>163.56</ele>
        <time>2019-04-20T14:42:55Z</time>
      </trkpt>
      <trkpt lat="43.20833" lon="5.55788">
        <ele>165.48</ele>
        <time>2019-04-20T14:43:09Z</time>
      </trkpt>
      <trkpt lat="43.20825" lon="5.55799">
        <ele>166.45</ele>
        <time>2019-04-20T14:43:24Z</time>
      </trkpt>
      <trkpt lat="43.20819" lon="5.55808">
        <ele>168.85</ele>
        <time>2019-04-20T14:43:36Z</time>
      </trkpt>
      <trkpt lat="43.20818" lon="5.55809">
        <ele>169.33</ele>
        <time>2019-04-20T14:43:37Z</time>
      </trkpt>
      <trkpt lat="43.20815" lon="5.55814">
        <ele>169.81</ele>
        <time>2019-04-20T14:43:41Z</time>
      </trkpt>
      <trkpt lat="43.20812" lon="5.55824">
        <ele>171.73</ele>
        <time>2019-04-20T14:43:52Z</time>
      </trkpt>
      <trkpt lat="43.20807" lon="5.55829">
        <ele>173.17</ele>
        <time>2019-04-20T14:44:00Z</time>
      </trkpt>
      <trkpt lat="43.20802" lon="5.55845">
        <ele>176.06</ele>
        <time>2019-04-20T14:44:15Z</time>
      </trkpt>
      <trkpt lat="43.20801" lon="5.55847">
        <ele>176.06</ele>
        <time>2019-04-20T14:44:16Z</time>
      </trkpt>
      <trkpt lat="43.20794" lon="5.55861">
        <ele>178.46</ele>
        <time>2019-04-20T14:44:29Z</time>
      </trkpt>
      <trkpt lat="43.20789" lon="5.55872">
        <ele>179.9</ele>
        <time>2019-04-20T14:44:40Z</time>
      </trkpt>
      <trkpt lat="43.20785" lon="5.55887">
        <ele>182.31</ele>
        <time>2019-04-20T14:44:55Z</time>
      </trkpt>
      <trkpt lat="43.20785" lon="5.5589">
        <ele>182.31</ele>
        <time>2019-04-20T14:44:58Z</time>
      </trkpt>
      <trkpt lat="43.20784" lon="5.55897">
        <ele>183.27</ele>
        <time>2019-04-20T14:45:03Z</time>
      </trkpt>
      <trkpt lat="43.20779" lon="5.55906">
        <ele>185.19</ele>
        <time>2019-04-20T14:45:15Z</time>
      </trkpt>
      <trkpt lat="43.20778" lon="5.55916">
        <ele>186.63</ele>
        <time>2019-04-20T14:45:35Z</time>
      </trkpt>
      <trkpt lat="43.20778" lon="5.55926">
        <ele>187.59</ele>
        <time>2019-04-20T14:45:43Z</time>
      </trkpt>
      <trkpt lat="43.20776" lon="5.55934">
        <ele>188.56</ele>
        <time>2019-04-20T14:45:52Z</time>
      </trkpt>
      <trkpt lat="43.20774" lon="5.55948">
        <ele>190.96</ele>
        <time>2019-04-20T14:46:04Z</time>
      </trkpt>
      <trkpt lat="43.20774" lon="5.5595">
        <ele>191.44</ele>
        <time>2019-04-20T14:46:05Z</time>
      </trkpt>
      <trkpt lat="43.20774" lon="5.55959">
        <ele>192.4</ele>
        <time>2019-04-20T14:46:14Z</time>
      </trkpt>
      <trkpt lat="43.20774" lon="5.55961">
        <ele>192.88</ele>
        <time>2019-04-20T14:46:15Z</time>
      </trkpt>
      <trkpt lat="43.20773" lon="5.55966">
        <ele>193.84</ele>
        <time>2019-04-20T14:46:19Z</time>
      </trkpt>
      <trkpt lat="43.20773" lon="5.55968">
        <ele>193.84</ele>
        <time>2019-04-20T14:46:20Z</time>
      </trkpt>
      <trkpt lat="43.20772" lon="5.55972">
        <ele>194.8</ele>
        <time>2019-04-20T14:46:23Z</time>
      </trkpt>
      <trkpt lat="43.20772" lon="5.55974">
        <ele>194.8</ele>
        <time>2019-04-20T14:46:24Z</time>
      </trkpt>
      <trkpt lat="43.20767" lon="5.55985">
        <ele>196.73</ele>
        <time>2019-04-20T14:46:35Z</time>
      </trkpt>
      <trkpt lat="43.2076" lon="5.55993">
        <ele>198.17</ele>
        <time>2019-04-20T14:46:47Z</time>
      </trkpt>
      <trkpt lat="43.20757" lon="5.55998">
        <ele>200.09</ele>
        <time>2019-04-20T14:46:57Z</time>
      </trkpt>
      <trkpt lat="43.20756" lon="5.55999">
        <ele>199.61</ele>
        <time>2019-04-20T14:46:58Z</time>
      </trkpt>
      <trkpt lat="43.20754" lon="5.56003">
        <ele>200.09</ele>
        <time>2019-04-20T14:47:02Z</time>
      </trkpt>
      <trkpt lat="43.20753" lon="5.56005">
        <ele>200.57</ele>
        <time>2019-04-20T14:47:05Z</time>
      </trkpt>
      <trkpt lat="43.20749" lon="5.56015">
        <ele>202.49</ele>
        <time>2019-04-20T14:47:16Z</time>
      </trkpt>
      <trkpt lat="43.20748" lon="5.56017">
        <ele>203.46</ele>
        <time>2019-04-20T14:47:19Z</time>
      </trkpt>
      <trkpt lat="43.20747" lon="5.56024">
        <ele>204.9</ele>
        <time>2019-04-20T14:47:26Z</time>
      </trkpt>
      <trkpt lat="43.20747" lon="5.56025">
        <ele>204.42</ele>
        <time>2019-04-20T14:47:27Z</time>
      </trkpt>
      <trkpt lat="43.20747" lon="5.5603">
        <ele>204.9</ele>
        <time>2019-04-20T14:47:31Z</time>
      </trkpt>
      <trkpt lat="43.20748" lon="5.56032">
        <ele>205.86</ele>
        <time>2019-04-20T14:47:35Z</time>
      </trkpt>
      <trkpt lat="43.20748" lon="5.56033">
        <ele>205.86</ele>
        <time>2019-04-20T14:47:36Z</time>
      </trkpt>
      <trkpt lat="43.20747" lon="5.56045">
        <ele>208.26</ele>
        <time>2019-04-20T14:47:48Z</time>
      </trkpt>
      <trkpt lat="43.20746" lon="5.56047">
        <ele>209.22</ele>
        <time>2019-04-20T14:47:51Z</time>
      </trkpt>
      <trkpt lat="43.20746" lon="5.56049">
        <ele>209.7</ele>
        <time>2019-04-20T14:47:52Z</time>
      </trkpt>
      <trkpt lat="43.20746" lon="5.56063">
        <ele>212.11</ele>
        <time>2019-04-20T14:48:03Z</time>
      </trkpt>
      <trkpt lat="43.20746" lon="5.56076">
        <ele>213.07</ele>
        <time>2019-04-20T14:48:14Z</time>
      </trkpt>
      <trkpt lat="43.20745" lon="5.5608">
        <ele>214.03</ele>
        <time>2019-04-20T14:48:17Z</time>
      </trkpt>
      <trkpt lat="43.20745" lon="5.56083">
        <ele>215.47</ele>
        <time>2019-04-20T14:48:18Z</time>
      </trkpt>
      <trkpt lat="43.20745" lon="5.56086">
        <ele>214.99</ele>
        <time>2019-04-20T14:48:19Z</time>
      </trkpt>
      <trkpt lat="43.20744" lon="5.56093">
        <ele>214.51</ele>
        <time>2019-04-20T14:48:23Z</time>
      </trkpt>
      <trkpt lat="43.20744" lon="5.56095">
        <ele>215.47</ele>
        <time>2019-04-20T14:48:24Z</time>
      </trkpt>
      <trkpt lat="43.20744" lon="5.56102">
        <ele>215.47</ele>
        <time>2019-04-20T14:48:30Z</time>
      </trkpt>
      <trkpt lat="43.20744" lon="5.56103">
        <ele>215.47</ele>
        <time>2019-04-20T14:48:31Z</time>
      </trkpt>
      <trkpt lat="43.20739" lon="5.56115">
        <ele>215.47</ele>
        <time>2019-04-20T14:48:42Z</time>
      </trkpt>
      <trkpt lat="43.20737" lon="5.5612">
        <ele>215.95</ele>
        <time>2019-04-20T14:48:58Z</time>
      </trkpt>
      <trkpt lat="43.2074" lon="5.56117">
        <ele>215.47</ele>
        <time>2019-04-20T14:49:21Z</time>
      </trkpt>
      <trkpt lat="43.20738" lon="5.56119">
        <ele>215.95</ele>
        <time>2019-04-20T14:49:40Z</time>
      </trkpt>
      <trkpt lat="43.2074" lon="5.5612">
        <ele>216.43</ele>
        <time>2019-04-20T14:49:53Z</time>
      </trkpt>
      <trkpt lat="43.20742" lon="5.56123">
        <ele>215.95</ele>
        <time>2019-04-20T14:50:03Z</time>
      </trkpt>
      <trkpt lat="43.20743" lon="5.56124">
        <ele>215.47</ele>
        <time>2019-04-20T14:50:04Z</time>
      </trkpt>
      <trkpt lat="43.20743" lon="5.56127">
        <ele>215.95</ele>
        <time>2019-04-20T14:50:05Z</time>
      </trkpt>
      <trkpt lat="43.20744" lon="5.56129">
        <ele>214.51</ele>
        <time>2019-04-20T14:50:06Z</time>
      </trkpt>
      <trkpt lat="43.20742" lon="5.5614">
        <ele>214.03</ele>
        <time>2019-04-20T14:50:14Z</time>
      </trkpt>
      <trkpt lat="43.20741" lon="5.56142">
        <ele>215.47</ele>
        <time>2019-04-20T14:50:15Z</time>
      </trkpt>
      <trkpt lat="43.20743" lon="5.56158">
        <ele>213.55</ele>
        <time>2019-04-20T14:50:26Z</time>
      </trkpt>
      <trkpt lat="43.20742" lon="5.56156">
        <ele>213.55</ele>
        <time>2019-04-20T14:50:29Z</time>
      </trkpt>
      <trkpt lat="43.20742" lon="5.56153">
        <ele>213.55</ele>
        <time>2019-04-20T14:50:31Z</time>
      </trkpt>
      <trkpt lat="43.20741" lon="5.56152">
        <ele>214.03</ele>
        <time>2019-04-20T14:50:32Z</time>
      </trkpt>
      <trkpt lat="43.2074" lon="5.56151">
        <ele>213.55</ele>
        <time>2019-04-20T14:50:33Z</time>
      </trkpt>
      <trkpt lat="43.2074" lon="5.56149">
        <ele>213.55</ele>
        <time>2019-04-20T14:50:34Z</time>
      </trkpt>
      <trkpt lat="43.20739" lon="5.56147">
        <ele>213.55</ele>
        <time>2019-04-20T14:50:35Z</time>
      </trkpt>
      <trkpt lat="43.2074" lon="5.56144">
        <ele>213.55</ele>
        <time>2019-04-20T14:50:36Z</time>
      </trkpt>
      <trkpt lat="43.20739" lon="5.56129">
        <ele>215.47</ele>
        <time>2019-04-20T14:50:47Z</time>
      </trkpt>
      <trkpt lat="43.20737" lon="5.5611">
        <ele>215.95</ele>
        <time>2019-04-20T14:50:59Z</time>
      </trkpt>
      <trkpt lat="43.20736" lon="5.561">
        <ele>215.95</ele>
        <time>2019-04-20T14:51:05Z</time>
      </trkpt>
      <trkpt lat="43.20735" lon="5.56098">
        <ele>215.47</ele>
        <time>2019-04-20T14:51:06Z</time>
      </trkpt>
      <trkpt lat="43.20734" lon="5.56097">
        <ele>216.91</ele>
        <time>2019-04-20T14:51:10Z</time>
      </trkpt>
      <trkpt lat="43.20733" lon="5.56096">
        <ele>216.91</ele>
        <time>2019-04-20T14:51:11Z</time>
      </trkpt>
      <trkpt lat="43.20731" lon="5.56088">
        <ele>218.84</ele>
        <time>2019-04-20T14:51:21Z</time>
      </trkpt>
      <trkpt lat="43.20729" lon="5.56082">
        <ele>220.28</ele>
        <time>2019-04-20T14:51:35Z</time>
      </trkpt>
      <trkpt lat="43.20726" lon="5.56073">
        <ele>220.28</ele>
        <time>2019-04-20T14:51:42Z</time>
      </trkpt>
      <trkpt lat="43.20724" lon="5.56058">
        <ele>221.72</ele>
        <time>2019-04-20T14:51:56Z</time>
      </trkpt>
      <trkpt lat="43.20722" lon="5.56053">
        <ele>222.2</ele>
        <time>2019-04-20T14:52:00Z</time>
      </trkpt>
      <trkpt lat="43.20722" lon="5.56047">
        <ele>221.72</ele>
        <time>2019-04-20T14:52:04Z</time>
      </trkpt>
      <trkpt lat="43.20717" lon="5.5604">
        <ele>223.16</ele>
        <time>2019-04-20T14:52:13Z</time>
      </trkpt>
      <trkpt lat="43.20716" lon="5.56039">
        <ele>223.64</ele>
        <time>2019-04-20T14:52:15Z</time>
      </trkpt>
      <trkpt lat="43.20712" lon="5.56035">
        <ele>223.64</ele>
        <time>2019-04-20T14:52:24Z</time>
      </trkpt>
      <trkpt lat="43.20708" lon="5.56032">
        <ele>224.61</ele>
        <time>2019-04-20T14:52:36Z</time>
      </trkpt>
      <trkpt lat="43.20704" lon="5.56026">
        <ele>226.05</ele>
        <time>2019-04-20T14:52:49Z</time>
      </trkpt>
      <trkpt lat="43.20701" lon="5.56027">
        <ele>227.49</ele>
        <time>2019-04-20T14:53:07Z</time>
      </trkpt>
      <trkpt lat="43.20702" lon="5.56029">
        <ele>226.53</ele>
        <time>2019-04-20T14:53:21Z</time>
      </trkpt>
      <trkpt lat="43.207" lon="5.56027">
        <ele>226.53</ele>
        <time>2019-04-20T14:53:32Z</time>
      </trkpt>
      <trkpt lat="43.20698" lon="5.56028">
        <ele>228.93</ele>
        <time>2019-04-20T14:53:41Z</time>
      </trkpt>
      <trkpt lat="43.20697" lon="5.56031">
        <ele>229.41</ele>
        <time>2019-04-20T14:53:43Z</time>
      </trkpt>
      <trkpt lat="43.20696" lon="5.56035">
        <ele>231.81</ele>
        <time>2019-04-20T14:53:54Z</time>
      </trkpt>
      <trkpt lat="43.20697" lon="5.56033">
        <ele>230.85</ele>
        <time>2019-04-20T14:54:00Z</time>
      </trkpt>
      <trkpt lat="43.20701" lon="5.56048">
        <ele>231.33</ele>
        <time>2019-04-20T14:54:11Z</time>
      </trkpt>
      <trkpt lat="43.20701" lon="5.5605">
        <ele>231.33</ele>
        <time>2019-04-20T14:54:15Z</time>
      </trkpt>
      <trkpt lat="43.207" lon="5.5605">
        <ele>231.33</ele>
        <time>2019-04-20T14:54:26Z</time>
      </trkpt>
      <trkpt lat="43.207" lon="5.56048">
        <ele>231.33</ele>
        <time>2019-04-20T14:54:28Z</time>
      </trkpt>
      <trkpt lat="43.20698" lon="5.56034">
        <ele>231.33</ele>
        <time>2019-04-20T14:54:38Z</time>
      </trkpt>
      <trkpt lat="43.20699" lon="5.56036">
        <ele>230.85</ele>
        <time>2019-04-20T14:54:46Z</time>
      </trkpt>
      <trkpt lat="43.20701" lon="5.56043">
        <ele>231.33</ele>
        <time>2019-04-20T14:54:50Z</time>
      </trkpt>
      <trkpt lat="43.20702" lon="5.56052">
        <ele>231.81</ele>
        <time>2019-04-20T14:54:56Z</time>
      </trkpt>
      <trkpt lat="43.20701" lon="5.56058">
        <ele>231.33</ele>
        <time>2019-04-20T14:55:00Z</time>
      </trkpt>
      <trkpt lat="43.207" lon="5.56062">
        <ele>231.81</ele>
        <time>2019-04-20T14:55:04Z</time>
      </trkpt>
      <trkpt lat="43.207" lon="5.56051">
        <ele>231.33</ele>
        <time>2019-04-20T14:55:11Z</time>
      </trkpt>
      <trkpt lat="43.20696" lon="5.56044">
        <ele>233.74</ele>
        <time>2019-04-20T14:55:19Z</time>
      </trkpt>
      <trkpt lat="43.20692" lon="5.56046">
        <ele>235.18</ele>
        <time>2019-04-20T14:55:26Z</time>
      </trkpt>
      <trkpt lat="43.20691" lon="5.56051">
        <ele>238.06</ele>
        <time>2019-04-20T14:55:32Z</time>
      </trkpt>
      <trkpt lat="43.20687" lon="5.56042">
        <ele>238.54</ele>
        <time>2019-04-20T14:55:40Z</time>
      </trkpt>
      <trkpt lat="43.20685" lon="5.56037">
        <ele>239.02</ele>
        <time>2019-04-20T14:55:45Z</time>
      </trkpt>
      <trkpt lat="43.20682" lon="5.56033">
        <ele>239.99</ele>
        <time>2019-04-20T14:55:52Z</time>
      </trkpt>
      <trkpt lat="43.20681" lon="5.56031">
        <ele>242.39</ele>
        <time>2019-04-20T14:55:57Z</time>
      </trkpt>
      <trkpt lat="43.2068" lon="5.56035">
        <ele>242.39</ele>
        <time>2019-04-20T14:56:00Z</time>
      </trkpt>
      <trkpt lat="43.20676" lon="5.56043">
        <ele>244.31</ele>
        <time>2019-04-20T14:56:11Z</time>
      </trkpt>
      <trkpt lat="43.20672" lon="5.56048">
        <ele>247.2</ele>
        <time>2019-04-20T14:56:22Z</time>
      </trkpt>
      <trkpt lat="43.2067" lon="5.56053">
        <ele>249.6</ele>
        <time>2019-04-20T14:56:32Z</time>
      </trkpt>
      <trkpt lat="43.20668" lon="5.56052">
        <ele>252</ele>
        <time>2019-04-20T14:56:47Z</time>
      </trkpt>
      <trkpt lat="43.20666" lon="5.56048">
        <ele>252.96</ele>
        <time>2019-04-20T14:57:04Z</time>
      </trkpt>
      <trkpt lat="43.20665" lon="5.56048">
        <ele>253.44</ele>
        <time>2019-04-20T14:57:06Z</time>
      </trkpt>
      <trkpt lat="43.20662" lon="5.56044">
        <ele>255.37</ele>
        <time>2019-04-20T14:57:16Z</time>
      </trkpt>
      <trkpt lat="43.20658" lon="5.56039">
        <ele>257.77</ele>
        <time>2019-04-20T14:57:26Z</time>
      </trkpt>
      <trkpt lat="43.20657" lon="5.56038">
        <ele>258.25</ele>
        <time>2019-04-20T14:57:28Z</time>
      </trkpt>
      <trkpt lat="43.20652" lon="5.56033">
        <ele>261.14</ele>
        <time>2019-04-20T14:57:42Z</time>
      </trkpt>
      <trkpt lat="43.20651" lon="5.56029">
        <ele>261.14</ele>
        <time>2019-04-20T14:57:55Z</time>
      </trkpt>
      <trkpt lat="43.20651" lon="5.56028">
        <ele>263.06</ele>
        <time>2019-04-20T14:58:19Z</time>
      </trkpt>
      <trkpt lat="43.2065" lon="5.56028">
        <ele>263.06</ele>
        <time>2019-04-20T14:58:21Z</time>
      </trkpt>
      <trkpt lat="43.20648" lon="5.56024">
        <ele>264.5</ele>
        <time>2019-04-20T14:58:35Z</time>
      </trkpt>
      <trkpt lat="43.20647" lon="5.56025">
        <ele>264.98</ele>
        <time>2019-04-20T14:58:56Z</time>
      </trkpt>
      <trkpt lat="43.20646" lon="5.56027">
        <ele>264.5</ele>
        <time>2019-04-20T14:59:17Z</time>
      </trkpt>
      <trkpt lat="43.20646" lon="5.56024">
        <ele>264.98</ele>
        <time>2019-04-20T14:59:29Z</time>
      </trkpt>
      <trkpt lat="43.20645" lon="5.56021">
        <ele>265.46</ele>
        <time>2019-04-20T14:59:32Z</time>
      </trkpt>
      <trkpt lat="43.20642" lon="5.56013">
        <ele>267.38</ele>
        <time>2019-04-20T14:59:45Z</time>
      </trkpt>
      <trkpt lat="43.20641" lon="5.56008">
        <ele>267.38</ele>
        <time>2019-04-20T14:59:59Z</time>
      </trkpt>
      <trkpt lat="43.20635" lon="5.55997">
        <ele>268.83</ele>
        <time>2019-04-20T15:00:11Z</time>
      </trkpt>
      <trkpt lat="43.20631" lon="5.55992">
        <ele>270.75</ele>
        <time>2019-04-20T15:00:22Z</time>
      </trkpt>
      <trkpt lat="43.20629" lon="5.55991">
        <ele>271.71</ele>
        <time>2019-04-20T15:00:35Z</time>
      </trkpt>
      <trkpt lat="43.20624" lon="5.55982">
        <ele>274.11</ele>
        <time>2019-04-20T15:00:47Z</time>
      </trkpt>
      <trkpt lat="43.20623" lon="5.5598">
        <ele>273.63</ele>
        <time>2019-04-20T15:00:53Z</time>
      </trkpt>
      <trkpt lat="43.2062" lon="5.55978">
        <ele>275.07</ele>
        <time>2019-04-20T15:00:58Z</time>
      </trkpt>
      <trkpt lat="43.20614" lon="5.55973">
        <ele>275.07</ele>
        <time>2019-04-20T15:01:09Z</time>
      </trkpt>
      <trkpt lat="43.20609" lon="5.55968">
        <ele>277.48</ele>
        <time>2019-04-20T15:01:17Z</time>
      </trkpt>
      <trkpt lat="43.206" lon="5.5596">
        <ele>280.36</ele>
        <time>2019-04-20T15:01:30Z</time>
      </trkpt>
      <trkpt lat="43.20595" lon="5.55958">
        <ele>281.8</ele>
        <time>2019-04-20T15:01:43Z</time>
      </trkpt>
      <trkpt lat="43.20594" lon="5.55958">
        <ele>280.84</ele>
        <time>2019-04-20T15:01:44Z</time>
      </trkpt>
      <trkpt lat="43.20591" lon="5.55954">
        <ele>282.77</ele>
        <time>2019-04-20T15:01:50Z</time>
      </trkpt>
      <trkpt lat="43.20582" lon="5.55945">
        <ele>284.21</ele>
        <time>2019-04-20T15:02:03Z</time>
      </trkpt>
      <trkpt lat="43.20579" lon="5.55943">
        <ele>286.13</ele>
        <time>2019-04-20T15:02:08Z</time>
      </trkpt>
      <trkpt lat="43.2057" lon="5.55939">
        <ele>286.61</ele>
        <time>2019-04-20T15:02:22Z</time>
      </trkpt>
      <trkpt lat="43.20569" lon="5.55938">
        <ele>287.09</ele>
        <time>2019-04-20T15:02:36Z</time>
      </trkpt>
      <trkpt lat="43.20565" lon="5.55937">
        <ele>285.65</ele>
        <time>2019-04-20T15:02:47Z</time>
      </trkpt>
      <trkpt lat="43.20568" lon="5.55937">
        <ele>287.09</ele>
        <time>2019-04-20T15:03:03Z</time>
      </trkpt>
      <trkpt lat="43.20567" lon="5.55938">
        <ele>287.57</ele>
        <time>2019-04-20T15:03:19Z</time>
      </trkpt>
      <trkpt lat="43.20568" lon="5.55939">
        <ele>286.61</ele>
        <time>2019-04-20T15:03:35Z</time>
      </trkpt>
      <trkpt lat="43.20567" lon="5.55938">
        <ele>287.57</ele>
        <time>2019-04-20T15:03:48Z</time>
      </trkpt>
      <trkpt lat="43.20566" lon="5.55936">
        <ele>287.57</ele>
        <time>2019-04-20T15:04:01Z</time>
      </trkpt>
      <trkpt lat="43.20567" lon="5.55935">
        <ele>287.09</ele>
        <time>2019-04-20T15:04:18Z</time>
      </trkpt>
      <trkpt lat="43.20563" lon="5.55936">
        <ele>288.05</ele>
        <time>2019-04-20T15:04:26Z</time>
      </trkpt>
      <trkpt lat="43.20557" lon="5.55931">
        <ele>288.53</ele>
        <time>2019-04-20T15:04:35Z</time>
      </trkpt>
      <trkpt lat="43.20554" lon="5.55928">
        <ele>289.01</ele>
        <time>2019-04-20T15:04:39Z</time>
      </trkpt>
      <trkpt lat="43.20552" lon="5.55927">
        <ele>289.49</ele>
        <time>2019-04-20T15:04:41Z</time>
      </trkpt>
      <trkpt lat="43.2055" lon="5.55926">
        <ele>289.49</ele>
        <time>2019-04-20T15:04:42Z</time>
      </trkpt>
      <trkpt lat="43.20549" lon="5.55925">
        <ele>289.49</ele>
        <time>2019-04-20T15:04:43Z</time>
      </trkpt>
      <trkpt lat="43.20546" lon="5.55923">
        <ele>289.97</ele>
        <time>2019-04-20T15:04:46Z</time>
      </trkpt>
      <trkpt lat="43.20544" lon="5.55921">
        <ele>290.46</ele>
        <time>2019-04-20T15:04:49Z</time>
      </trkpt>
      <trkpt lat="43.20543" lon="5.5592">
        <ele>290.46</ele>
        <time>2019-04-20T15:04:50Z</time>
      </trkpt>
      <trkpt lat="43.20542" lon="5.55919">
        <ele>290.94</ele>
        <time>2019-04-20T15:04:51Z</time>
      </trkpt>
      <trkpt lat="43.20536" lon="5.55913">
        <ele>290.94</ele>
        <time>2019-04-20T15:05:00Z</time>
      </trkpt>
      <trkpt lat="43.20535" lon="5.55912">
        <ele>291.42</ele>
        <time>2019-04-20T15:05:01Z</time>
      </trkpt>
      <trkpt lat="43.20532" lon="5.55909">
        <ele>290.94</ele>
        <time>2019-04-20T15:05:07Z</time>
      </trkpt>
      <trkpt lat="43.20529" lon="5.55908">
        <ele>290.94</ele>
        <time>2019-04-20T15:05:09Z</time>
      </trkpt>
      <trkpt lat="43.20525" lon="5.55906">
        <ele>291.9</ele>
        <time>2019-04-20T15:05:13Z</time>
      </trkpt>
      <trkpt lat="43.20524" lon="5.55905">
        <ele>290.94</ele>
        <time>2019-04-20T15:05:14Z</time>
      </trkpt>
      <trkpt lat="43.20522" lon="5.55904">
        <ele>291.42</ele>
        <time>2019-04-20T15:05:15Z</time>
      </trkpt>
      <trkpt lat="43.20518" lon="5.55898">
        <ele>292.38</ele>
        <time>2019-04-20T15:05:26Z</time>
      </trkpt>
      <trkpt lat="43.20518" lon="5.55897">
        <ele>292.38</ele>
        <time>2019-04-20T15:05:39Z</time>
      </trkpt>
      <trkpt lat="43.20517" lon="5.55896">
        <ele>292.38</ele>
        <time>2019-04-20T15:05:56Z</time>
      </trkpt>
      <trkpt lat="43.20516" lon="5.55896">
        <ele>292.38</ele>
        <time>2019-04-20T15:06:14Z</time>
      </trkpt>
      <trkpt lat="43.20512" lon="5.55893">
        <ele>292.38</ele>
        <time>2019-04-20T15:06:31Z</time>
      </trkpt>
      <trkpt lat="43.2051" lon="5.55893">
        <ele>292.86</ele>
        <time>2019-04-20T15:06:34Z</time>
      </trkpt>
      <trkpt lat="43.20507" lon="5.55891">
        <ele>293.34</ele>
        <time>2019-04-20T15:06:39Z</time>
      </trkpt>
      <trkpt lat="43.20497" lon="5.55884">
        <ele>296.22</ele>
        <time>2019-04-20T15:06:50Z</time>
      </trkpt>
      <trkpt lat="43.20493" lon="5.55881">
        <ele>296.22</ele>
        <time>2019-04-20T15:06:56Z</time>
      </trkpt>
      <trkpt lat="43.20492" lon="5.5588">
        <ele>297.18</ele>
        <time>2019-04-20T15:06:57Z</time>
      </trkpt>
      <trkpt lat="43.2049" lon="5.55879">
        <ele>297.18</ele>
        <time>2019-04-20T15:07:00Z</time>
      </trkpt>
      <trkpt lat="43.20489" lon="5.55878">
        <ele>297.18</ele>
        <time>2019-04-20T15:07:01Z</time>
      </trkpt>
      <trkpt lat="43.20482" lon="5.55872">
        <ele>298.63</ele>
        <time>2019-04-20T15:07:11Z</time>
      </trkpt>
      <trkpt lat="43.20474" lon="5.55863">
        <ele>299.59</ele>
        <time>2019-04-20T15:07:23Z</time>
      </trkpt>
      <trkpt lat="43.20467" lon="5.55856">
        <ele>301.03</ele>
        <time>2019-04-20T15:07:33Z</time>
      </trkpt>
      <trkpt lat="43.20466" lon="5.55855">
        <ele>301.03</ele>
        <time>2019-04-20T15:07:34Z</time>
      </trkpt>
      <trkpt lat="43.20465" lon="5.55853">
        <ele>301.03</ele>
        <time>2019-04-20T15:07:35Z</time>
      </trkpt>
      <trkpt lat="43.20461" lon="5.55846">
        <ele>301.99</ele>
        <time>2019-04-20T15:07:42Z</time>
      </trkpt>
      <trkpt lat="43.20457" lon="5.55841">
        <ele>302.47</ele>
        <time>2019-04-20T15:07:48Z</time>
      </trkpt>
      <trkpt lat="43.20454" lon="5.55833">
        <ele>302.95</ele>
        <time>2019-04-20T15:07:56Z</time>
      </trkpt>
      <trkpt lat="43.20453" lon="5.55832">
        <ele>303.43</ele>
        <time>2019-04-20T15:07:57Z</time>
      </trkpt>
      <trkpt lat="43.20446" lon="5.55819">
        <ele>305.84</ele>
        <time>2019-04-20T15:08:09Z</time>
      </trkpt>
      <trkpt lat="43.2044" lon="5.55806">
        <ele>306.32</ele>
        <time>2019-04-20T15:08:20Z</time>
      </trkpt>
      <trkpt lat="43.20434" lon="5.55797">
        <ele>306.32</ele>
        <time>2019-04-20T15:08:31Z</time>
      </trkpt>
      <trkpt lat="43.20427" lon="5.55789">
        <ele>306.32</ele>
        <time>2019-04-20T15:08:43Z</time>
      </trkpt>
      <trkpt lat="43.20425" lon="5.55785">
        <ele>307.76</ele>
        <time>2019-04-20T15:08:55Z</time>
      </trkpt>
      <trkpt lat="43.20424" lon="5.55786">
        <ele>307.76</ele>
        <time>2019-04-20T15:09:02Z</time>
      </trkpt>
      <trkpt lat="43.20421" lon="5.55782">
        <ele>308.24</ele>
        <time>2019-04-20T15:09:15Z</time>
      </trkpt>
      <trkpt lat="43.20422" lon="5.55778">
        <ele>308.24</ele>
        <time>2019-04-20T15:09:26Z</time>
      </trkpt>
      <trkpt lat="43.2042" lon="5.55779">
        <ele>307.76</ele>
        <time>2019-04-20T15:09:52Z</time>
      </trkpt>
      <trkpt lat="43.2042" lon="5.55781">
        <ele>307.28</ele>
        <time>2019-04-20T15:10:02Z</time>
      </trkpt>
      <trkpt lat="43.20418" lon="5.55779">
        <ele>306.8</ele>
        <time>2019-04-20T15:10:05Z</time>
      </trkpt>
      <trkpt lat="43.20415" lon="5.55776">
        <ele>308.72</ele>
        <time>2019-04-20T15:10:09Z</time>
      </trkpt>
      <trkpt lat="43.20407" lon="5.55765">
        <ele>310.16</ele>
        <time>2019-04-20T15:10:19Z</time>
      </trkpt>
      <trkpt lat="43.20401" lon="5.55757">
        <ele>311.12</ele>
        <time>2019-04-20T15:10:30Z</time>
      </trkpt>
      <trkpt lat="43.20399" lon="5.55753">
        <ele>312.09</ele>
        <time>2019-04-20T15:10:36Z</time>
      </trkpt>
      <trkpt lat="43.20394" lon="5.55746">
        <ele>312.57</ele>
        <time>2019-04-20T15:10:45Z</time>
      </trkpt>
      <trkpt lat="43.20393" lon="5.55745">
        <ele>312.57</ele>
        <time>2019-04-20T15:10:46Z</time>
      </trkpt>
      <trkpt lat="43.20384" lon="5.55736">
        <ele>312.57</ele>
        <time>2019-04-20T15:10:57Z</time>
      </trkpt>
      <trkpt lat="43.20377" lon="5.55732">
        <ele>312.57</ele>
        <time>2019-04-20T15:11:09Z</time>
      </trkpt>
      <trkpt lat="43.2037" lon="5.55727">
        <ele>312.57</ele>
        <time>2019-04-20T15:11:19Z</time>
      </trkpt>
      <trkpt lat="43.20369" lon="5.55725">
        <ele>312.57</ele>
        <time>2019-04-20T15:11:36Z</time>
      </trkpt>
      <trkpt lat="43.2036" lon="5.55722">
        <ele>313.05</ele>
        <time>2019-04-20T15:11:58Z</time>
      </trkpt>
      <trkpt lat="43.20345" lon="5.55718">
        <ele>312.57</ele>
        <time>2019-04-20T15:12:13Z</time>
      </trkpt>
      <trkpt lat="43.20331" lon="5.55711">
        <ele>313.05</ele>
        <time>2019-04-20T15:12:24Z</time>
      </trkpt>
      <trkpt lat="43.20321" lon="5.55708">
        <ele>312.57</ele>
        <time>2019-04-20T15:12:34Z</time>
      </trkpt>
      <trkpt lat="43.20309" lon="5.55699">
        <ele>311.6</ele>
        <time>2019-04-20T15:12:44Z</time>
      </trkpt>
      <trkpt lat="43.203" lon="5.55691">
        <ele>311.12</ele>
        <time>2019-04-20T15:12:56Z</time>
      </trkpt>
      <trkpt lat="43.20286" lon="5.55679">
        <ele>310.16</ele>
        <time>2019-04-20T15:13:06Z</time>
      </trkpt>
      <trkpt lat="43.20276" lon="5.55669">
        <ele>308.72</ele>
        <time>2019-04-20T15:13:18Z</time>
      </trkpt>
      <trkpt lat="43.20271" lon="5.55664">
        <ele>308.72</ele>
        <time>2019-04-20T15:13:24Z</time>
      </trkpt>
      <trkpt lat="43.20269" lon="5.55661">
        <ele>308.72</ele>
        <time>2019-04-20T15:13:26Z</time>
      </trkpt>
      <trkpt lat="43.20268" lon="5.55659">
        <ele>308.72</ele>
        <time>2019-04-20T15:13:27Z</time>
      </trkpt>
      <trkpt lat="43.20266" lon="5.55655">
        <ele>308.24</ele>
        <time>2019-04-20T15:13:29Z</time>
      </trkpt>
      <trkpt lat="43.20265" lon="5.55654">
        <ele>308.24</ele>
        <time>2019-04-20T15:13:30Z</time>
      </trkpt>
      <trkpt lat="43.2026" lon="5.55644">
        <ele>309.2</ele>
        <time>2019-04-20T15:13:40Z</time>
      </trkpt>
      <trkpt lat="43.20258" lon="5.55641">
        <ele>308.72</ele>
        <time>2019-04-20T15:13:44Z</time>
      </trkpt>
      <trkpt lat="43.20258" lon="5.55639">
        <ele>308.72</ele>
        <time>2019-04-20T15:13:45Z</time>
      </trkpt>
      <trkpt lat="43.20257" lon="5.55636">
        <ele>308.72</ele>
        <time>2019-04-20T15:13:46Z</time>
      </trkpt>
      <trkpt lat="43.20257" lon="5.55631">
        <ele>310.16</ele>
        <time>2019-04-20T15:13:51Z</time>
      </trkpt>
      <trkpt lat="43.20257" lon="5.5563">
        <ele>310.16</ele>
        <time>2019-04-20T15:13:52Z</time>
      </trkpt>
      <trkpt lat="43.20257" lon="5.55627">
        <ele>310.16</ele>
        <time>2019-04-20T15:13:53Z</time>
      </trkpt>
      <trkpt lat="43.20257" lon="5.55625">
        <ele>310.16</ele>
        <time>2019-04-20T15:13:54Z</time>
      </trkpt>
      <trkpt lat="43.20257" lon="5.5562">
        <ele>310.16</ele>
        <time>2019-04-20T15:14:00Z</time>
      </trkpt>
      <trkpt lat="43.20257" lon="5.55618">
        <ele>310.64</ele>
        <time>2019-04-20T15:14:01Z</time>
      </trkpt>
      <trkpt lat="43.20256" lon="5.55611">
        <ele>311.12</ele>
        <time>2019-04-20T15:14:04Z</time>
      </trkpt>
      <trkpt lat="43.20256" lon="5.55607">
        <ele>312.09</ele>
        <time>2019-04-20T15:14:18Z</time>
      </trkpt>
      <trkpt lat="43.20256" lon="5.55606">
        <ele>310.16</ele>
        <time>2019-04-20T15:14:35Z</time>
      </trkpt>
      <trkpt lat="43.20254" lon="5.55601">
        <ele>310.16</ele>
        <time>2019-04-20T15:15:04Z</time>
      </trkpt>
      <trkpt lat="43.20255" lon="5.55604">
        <ele>310.64</ele>
        <time>2019-04-20T15:15:18Z</time>
      </trkpt>
      <trkpt lat="43.20255" lon="5.55602">
        <ele>310.16</ele>
        <time>2019-04-20T15:15:20Z</time>
      </trkpt>
      <trkpt lat="43.20254" lon="5.556">
        <ele>310.16</ele>
        <time>2019-04-20T15:15:21Z</time>
      </trkpt>
      <trkpt lat="43.20252" lon="5.55589">
        <ele>310.16</ele>
        <time>2019-04-20T15:15:30Z</time>
      </trkpt>
      <trkpt lat="43.20252" lon="5.55586">
        <ele>310.64</ele>
        <time>2019-04-20T15:15:32Z</time>
      </trkpt>
      <trkpt lat="43.20252" lon="5.55584">
        <ele>310.64</ele>
        <time>2019-04-20T15:15:33Z</time>
      </trkpt>
      <trkpt lat="43.20251" lon="5.55579">
        <ele>311.12</ele>
        <time>2019-04-20T15:15:37Z</time>
      </trkpt>
      <trkpt lat="43.2025" lon="5.55577">
        <ele>311.6</ele>
        <time>2019-04-20T15:15:38Z</time>
      </trkpt>
      <trkpt lat="43.20246" lon="5.55565">
        <ele>311.6</ele>
        <time>2019-04-20T15:15:47Z</time>
      </trkpt>
      <trkpt lat="43.20246" lon="5.55563">
        <ele>311.6</ele>
        <time>2019-04-20T15:15:57Z</time>
      </trkpt>
      <trkpt lat="43.20245" lon="5.55559">
        <ele>310.64</ele>
        <time>2019-04-20T15:16:12Z</time>
      </trkpt>
      <trkpt lat="43.20243" lon="5.55551">
        <ele>310.64</ele>
        <time>2019-04-20T15:16:23Z</time>
      </trkpt>
      <trkpt lat="43.20241" lon="5.55551">
        <ele>310.64</ele>
        <time>2019-04-20T15:16:45Z</time>
      </trkpt>
      <trkpt lat="43.20236" lon="5.55541">
        <ele>311.6</ele>
        <time>2019-04-20T15:16:56Z</time>
      </trkpt>
      <trkpt lat="43.20233" lon="5.55539">
        <ele>311.12</ele>
        <time>2019-04-20T15:17:05Z</time>
      </trkpt>
      <trkpt lat="43.20231" lon="5.55537">
        <ele>311.12</ele>
        <time>2019-04-20T15:17:06Z</time>
      </trkpt>
      <trkpt lat="43.2023" lon="5.55536">
        <ele>310.64</ele>
        <time>2019-04-20T15:17:07Z</time>
      </trkpt>
      <trkpt lat="43.20228" lon="5.55534">
        <ele>311.12</ele>
        <time>2019-04-20T15:17:10Z</time>
      </trkpt>
      <trkpt lat="43.20227" lon="5.55533">
        <ele>311.6</ele>
        <time>2019-04-20T15:17:11Z</time>
      </trkpt>
      <trkpt lat="43.20223" lon="5.55527">
        <ele>311.6</ele>
        <time>2019-04-20T15:17:17Z</time>
      </trkpt>
      <trkpt lat="43.20222" lon="5.55526">
        <ele>311.6</ele>
        <time>2019-04-20T15:17:18Z</time>
      </trkpt>
      <trkpt lat="43.20221" lon="5.55524">
        <ele>311.6</ele>
        <time>2019-04-20T15:17:19Z</time>
      </trkpt>
      <trkpt lat="43.20219" lon="5.55523">
        <ele>311.6</ele>
        <time>2019-04-20T15:17:20Z</time>
      </trkpt>
      <trkpt lat="43.20212" lon="5.55515">
        <ele>312.57</ele>
        <time>2019-04-20T15:17:30Z</time>
      </trkpt>
      <trkpt lat="43.20211" lon="5.55514">
        <ele>312.57</ele>
        <time>2019-04-20T15:17:31Z</time>
      </trkpt>
      <trkpt lat="43.2021" lon="5.55511">
        <ele>312.09</ele>
        <time>2019-04-20T15:17:32Z</time>
      </trkpt>
      <trkpt lat="43.20206" lon="5.55507">
        <ele>313.53</ele>
        <time>2019-04-20T15:17:38Z</time>
      </trkpt>
      <trkpt lat="43.20205" lon="5.55505">
        <ele>313.53</ele>
        <time>2019-04-20T15:17:39Z</time>
      </trkpt>
      <trkpt lat="43.20204" lon="5.55503">
        <ele>313.53</ele>
        <time>2019-04-20T15:17:40Z</time>
      </trkpt>
      <trkpt lat="43.20203" lon="5.55501">
        <ele>313.53</ele>
        <time>2019-04-20T15:17:41Z</time>
      </trkpt>
      <trkpt lat="43.20203" lon="5.55499">
        <ele>313.05</ele>
        <time>2019-04-20T15:17:42Z</time>
      </trkpt>
      <trkpt lat="43.20202" lon="5.55497">
        <ele>313.53</ele>
        <time>2019-04-20T15:17:46Z</time>
      </trkpt>
      <trkpt lat="43.20201" lon="5.55495">
        <ele>313.53</ele>
        <time>2019-04-20T15:17:47Z</time>
      </trkpt>
      <trkpt lat="43.202" lon="5.55493">
        <ele>313.05</ele>
        <time>2019-04-20T15:17:48Z</time>
      </trkpt>
      <trkpt lat="43.20198" lon="5.5549">
        <ele>312.57</ele>
        <time>2019-04-20T15:17:49Z</time>
      </trkpt>
      <trkpt lat="43.20197" lon="5.55489">
        <ele>313.53</ele>
        <time>2019-04-20T15:17:50Z</time>
      </trkpt>
      <trkpt lat="43.20194" lon="5.5548">
        <ele>312.09</ele>
        <time>2019-04-20T15:17:59Z</time>
      </trkpt>
      <trkpt lat="43.20194" lon="5.55477">
        <ele>313.05</ele>
        <time>2019-04-20T15:18:02Z</time>
      </trkpt>
      <trkpt lat="43.20193" lon="5.55475">
        <ele>313.05</ele>
        <time>2019-04-20T15:18:03Z</time>
      </trkpt>
      <trkpt lat="43.20192" lon="5.55473">
        <ele>312.57</ele>
        <time>2019-04-20T15:18:04Z</time>
      </trkpt>
      <trkpt lat="43.20188" lon="5.55466">
        <ele>313.05</ele>
        <time>2019-04-20T15:18:10Z</time>
      </trkpt>
      <trkpt lat="43.20185" lon="5.5546">
        <ele>314.01</ele>
        <time>2019-04-20T15:18:15Z</time>
      </trkpt>
      <trkpt lat="43.20184" lon="5.55458">
        <ele>313.53</ele>
        <time>2019-04-20T15:18:16Z</time>
      </trkpt>
      <trkpt lat="43.20181" lon="5.55454">
        <ele>313.53</ele>
        <time>2019-04-20T15:18:20Z</time>
      </trkpt>
      <trkpt lat="43.20181" lon="5.55452">
        <ele>313.53</ele>
        <time>2019-04-20T15:18:21Z</time>
      </trkpt>
      <trkpt lat="43.2018" lon="5.5545">
        <ele>313.05</ele>
        <time>2019-04-20T15:18:22Z</time>
      </trkpt>
      <trkpt lat="43.20179" lon="5.55449">
        <ele>313.53</ele>
        <time>2019-04-20T15:18:23Z</time>
      </trkpt>
      <trkpt lat="43.20177" lon="5.55445">
        <ele>313.53</ele>
        <time>2019-04-20T15:18:27Z</time>
      </trkpt>
      <trkpt lat="43.20176" lon="5.55443">
        <ele>313.05</ele>
        <time>2019-04-20T15:18:28Z</time>
      </trkpt>
      <trkpt lat="43.2017" lon="5.55429">
        <ele>314.01</ele>
        <time>2019-04-20T15:18:39Z</time>
      </trkpt>
      <trkpt lat="43.20165" lon="5.55422">
        <ele>314.01</ele>
        <time>2019-04-20T15:18:47Z</time>
      </trkpt>
      <trkpt lat="43.20162" lon="5.55419">
        <ele>314.97</ele>
        <time>2019-04-20T15:18:51Z</time>
      </trkpt>
      <trkpt lat="43.20161" lon="5.55418">
        <ele>314.49</ele>
        <time>2019-04-20T15:18:52Z</time>
      </trkpt>
      <trkpt lat="43.20159" lon="5.55418">
        <ele>314.97</ele>
        <time>2019-04-20T15:18:55Z</time>
      </trkpt>
      <trkpt lat="43.20157" lon="5.55418">
        <ele>314.97</ele>
        <time>2019-04-20T15:19:02Z</time>
      </trkpt>
      <trkpt lat="43.20155" lon="5.5542">
        <ele>315.45</ele>
        <time>2019-04-20T15:19:12Z</time>
      </trkpt>
      <trkpt lat="43.20155" lon="5.55422">
        <ele>315.45</ele>
        <time>2019-04-20T15:19:29Z</time>
      </trkpt>
      <trkpt lat="43.20155" lon="5.55422">
        <ele>314.49</ele>
        <time>2019-04-20T15:19:54Z</time>
      </trkpt>
      <trkpt lat="43.20152" lon="5.55423">
        <ele>314.97</ele>
        <time>2019-04-20T15:20:16Z</time>
      </trkpt>
      <trkpt lat="43.20152" lon="5.55424">
        <ele>314.49</ele>
        <time>2019-04-20T15:20:40Z</time>
      </trkpt>
      <trkpt lat="43.20155" lon="5.55419">
        <ele>316.41</ele>
        <time>2019-04-20T15:21:12Z</time>
      </trkpt>
      <trkpt lat="43.20155" lon="5.55418">
        <ele>315.93</ele>
        <time>2019-04-20T15:21:41Z</time>
      </trkpt>
      <trkpt lat="43.20157" lon="5.55415">
        <ele>316.41</ele>
        <time>2019-04-20T15:21:52Z</time>
      </trkpt>
      <trkpt lat="43.20156" lon="5.55413">
        <ele>316.41</ele>
        <time>2019-04-20T15:21:53Z</time>
      </trkpt>
      <trkpt lat="43.20155" lon="5.55411">
        <ele>316.41</ele>
        <time>2019-04-20T15:21:54Z</time>
      </trkpt>
      <trkpt lat="43.20154" lon="5.55409">
        <ele>316.41</ele>
        <time>2019-04-20T15:21:55Z</time>
      </trkpt>
      <trkpt lat="43.20153" lon="5.55408">
        <ele>315.93</ele>
        <time>2019-04-20T15:21:56Z</time>
      </trkpt>
      <trkpt lat="43.20146" lon="5.55401">
        <ele>316.89</ele>
        <time>2019-04-20T15:22:05Z</time>
      </trkpt>
      <trkpt lat="43.20146" lon="5.554">
        <ele>316.89</ele>
        <time>2019-04-20T15:22:06Z</time>
      </trkpt>
      <trkpt lat="43.20145" lon="5.55399">
        <ele>315.93</ele>
        <time>2019-04-20T15:22:07Z</time>
      </trkpt>
      <trkpt lat="43.20139" lon="5.55395">
        <ele>316.89</ele>
        <time>2019-04-20T15:22:15Z</time>
      </trkpt>
      <trkpt lat="43.20138" lon="5.55394">
        <ele>316.89</ele>
        <time>2019-04-20T15:22:16Z</time>
      </trkpt>
      <trkpt lat="43.20136" lon="5.55393">
        <ele>316.89</ele>
        <time>2019-04-20T15:22:17Z</time>
      </trkpt>
      <trkpt lat="43.20131" lon="5.55389">
        <ele>318.81</ele>
        <time>2019-04-20T15:22:31Z</time>
      </trkpt>
      <trkpt lat="43.2013" lon="5.55389">
        <ele>317.85</ele>
        <time>2019-04-20T15:22:37Z</time>
      </trkpt>
      <trkpt lat="43.20128" lon="5.55389">
        <ele>318.33</ele>
        <time>2019-04-20T15:22:38Z</time>
      </trkpt>
      <trkpt lat="43.20121" lon="5.55386">
        <ele>318.33</ele>
        <time>2019-04-20T15:22:47Z</time>
      </trkpt>
      <trkpt lat="43.20115" lon="5.55384">
        <ele>319.3</ele>
        <time>2019-04-20T15:22:53Z</time>
      </trkpt>
      <trkpt lat="43.20106" lon="5.5538">
        <ele>320.74</ele>
        <time>2019-04-20T15:23:03Z</time>
      </trkpt>
      <trkpt lat="43.20101" lon="5.55376">
        <ele>320.74</ele>
        <time>2019-04-20T15:23:17Z</time>
      </trkpt>
      <trkpt lat="43.20092" lon="5.55372">
        <ele>322.18</ele>
        <time>2019-04-20T15:23:33Z</time>
      </trkpt>
      <trkpt lat="43.20081" lon="5.55369">
        <ele>323.14</ele>
        <time>2019-04-20T15:23:48Z</time>
      </trkpt>
      <trkpt lat="43.20075" lon="5.55363">
        <ele>322.18</ele>
        <time>2019-04-20T15:24:05Z</time>
      </trkpt>
      <trkpt lat="43.20069" lon="5.55364">
        <ele>322.66</ele>
        <time>2019-04-20T15:24:12Z</time>
      </trkpt>
      <trkpt lat="43.20067" lon="5.55363">
        <ele>323.14</ele>
        <time>2019-04-20T15:24:16Z</time>
      </trkpt>
      <trkpt lat="43.20064" lon="5.55363">
        <ele>323.14</ele>
        <time>2019-04-20T15:24:20Z</time>
      </trkpt>
      <trkpt lat="43.20063" lon="5.55363">
        <ele>323.62</ele>
        <time>2019-04-20T15:24:21Z</time>
      </trkpt>
      <trkpt lat="43.20053" lon="5.55361">
        <ele>324.58</ele>
        <time>2019-04-20T15:24:31Z</time>
      </trkpt>
      <trkpt lat="43.20052" lon="5.55361">
        <ele>324.58</ele>
        <time>2019-04-20T15:24:32Z</time>
      </trkpt>
      <trkpt lat="43.20051" lon="5.5536">
        <ele>325.06</ele>
        <time>2019-04-20T15:24:33Z</time>
      </trkpt>
      <trkpt lat="43.20048" lon="5.55359">
        <ele>325.54</ele>
        <time>2019-04-20T15:24:38Z</time>
      </trkpt>
      <trkpt lat="43.20046" lon="5.55358">
        <ele>325.54</ele>
        <time>2019-04-20T15:24:39Z</time>
      </trkpt>
      <trkpt lat="43.20038" lon="5.55357">
        <ele>326.5</ele>
        <time>2019-04-20T15:24:46Z</time>
      </trkpt>
      <trkpt lat="43.20037" lon="5.55357">
        <ele>326.02</ele>
        <time>2019-04-20T15:24:47Z</time>
      </trkpt>
      <trkpt lat="43.20028" lon="5.55355">
        <ele>326.5</ele>
        <time>2019-04-20T15:24:55Z</time>
      </trkpt>
      <trkpt lat="43.20021" lon="5.55356">
        <ele>326.99</ele>
        <time>2019-04-20T15:25:04Z</time>
      </trkpt>
      <trkpt lat="43.2002" lon="5.55356">
        <ele>327.47</ele>
        <time>2019-04-20T15:25:05Z</time>
      </trkpt>
      <trkpt lat="43.20018" lon="5.55356">
        <ele>326.99</ele>
        <time>2019-04-20T15:25:06Z</time>
      </trkpt>
      <trkpt lat="43.20013" lon="5.55356">
        <ele>327.95</ele>
        <time>2019-04-20T15:25:11Z</time>
      </trkpt>
      <trkpt lat="43.20012" lon="5.55356">
        <ele>327.47</ele>
        <time>2019-04-20T15:25:12Z</time>
      </trkpt>
      <trkpt lat="43.20007" lon="5.55355">
        <ele>327.95</ele>
        <time>2019-04-20T15:25:17Z</time>
      </trkpt>
      <trkpt lat="43.20006" lon="5.55355">
        <ele>327.95</ele>
        <time>2019-04-20T15:25:18Z</time>
      </trkpt>
      <trkpt lat="43.20004" lon="5.55355">
        <ele>327.95</ele>
        <time>2019-04-20T15:25:19Z</time>
      </trkpt>
      <trkpt lat="43.2" lon="5.55356">
        <ele>327.95</ele>
        <time>2019-04-20T15:25:23Z</time>
      </trkpt>
      <trkpt lat="43.19999" lon="5.55356">
        <ele>328.43</ele>
        <time>2019-04-20T15:25:24Z</time>
      </trkpt>
      <trkpt lat="43.19989" lon="5.55356">
        <ele>328.91</ele>
        <time>2019-04-20T15:25:34Z</time>
      </trkpt>
      <trkpt lat="43.19978" lon="5.55354">
        <ele>329.87</ele>
        <time>2019-04-20T15:25:43Z</time>
      </trkpt>
      <trkpt lat="43.19968" lon="5.55352">
        <ele>330.35</ele>
        <time>2019-04-20T15:25:52Z</time>
      </trkpt>
      <trkpt lat="43.19966" lon="5.55351">
        <ele>330.83</ele>
        <time>2019-04-20T15:25:56Z</time>
      </trkpt>
      <trkpt lat="43.19965" lon="5.5535">
        <ele>330.83</ele>
        <time>2019-04-20T15:25:57Z</time>
      </trkpt>
      <trkpt lat="43.19961" lon="5.55349">
        <ele>330.83</ele>
        <time>2019-04-20T15:26:02Z</time>
      </trkpt>
      <trkpt lat="43.19959" lon="5.55348">
        <ele>331.31</ele>
        <time>2019-04-20T15:26:03Z</time>
      </trkpt>
      <trkpt lat="43.19958" lon="5.55348">
        <ele>330.83</ele>
        <time>2019-04-20T15:26:04Z</time>
      </trkpt>
      <trkpt lat="43.19946" lon="5.55344">
        <ele>332.27</ele>
        <time>2019-04-20T15:26:15Z</time>
      </trkpt>
      <trkpt lat="43.19941" lon="5.55341">
        <ele>333.23</ele>
        <time>2019-04-20T15:26:22Z</time>
      </trkpt>
      <trkpt lat="43.19939" lon="5.55339">
        <ele>333.71</ele>
        <time>2019-04-20T15:26:23Z</time>
      </trkpt>
      <trkpt lat="43.19938" lon="5.55332">
        <ele>334.2</ele>
        <time>2019-04-20T15:26:28Z</time>
      </trkpt>
      <trkpt lat="43.19939" lon="5.5533">
        <ele>333.23</ele>
        <time>2019-04-20T15:26:29Z</time>
      </trkpt>
      <trkpt lat="43.19939" lon="5.55311">
        <ele>332.75</ele>
        <time>2019-04-20T15:26:41Z</time>
      </trkpt>
      <trkpt lat="43.1994" lon="5.55307">
        <ele>332.75</ele>
        <time>2019-04-20T15:26:53Z</time>
      </trkpt>
      <trkpt lat="43.19939" lon="5.55308">
        <ele>332.27</ele>
        <time>2019-04-20T15:27:06Z</time>
      </trkpt>
      <trkpt lat="43.19943" lon="5.55309">
        <ele>332.75</ele>
        <time>2019-04-20T15:27:28Z</time>
      </trkpt>
      <trkpt lat="43.1994" lon="5.55306">
        <ele>333.23</ele>
        <time>2019-04-20T15:27:58Z</time>
      </trkpt>
      <trkpt lat="43.19939" lon="5.55307">
        <ele>332.27</ele>
        <time>2019-04-20T15:28:12Z</time>
      </trkpt>
      <trkpt lat="43.19939" lon="5.55304">
        <ele>332.75</ele>
        <time>2019-04-20T15:28:13Z</time>
      </trkpt>
      <trkpt lat="43.19938" lon="5.55302">
        <ele>333.23</ele>
        <time>2019-04-20T15:28:14Z</time>
      </trkpt>
      <trkpt lat="43.19939" lon="5.5529">
        <ele>331.79</ele>
        <time>2019-04-20T15:28:22Z</time>
      </trkpt>
      <trkpt lat="43.1994" lon="5.55289">
        <ele>331.79</ele>
        <time>2019-04-20T15:28:23Z</time>
      </trkpt>
      <trkpt lat="43.1994" lon="5.55287">
        <ele>331.79</ele>
        <time>2019-04-20T15:28:24Z</time>
      </trkpt>
      <trkpt lat="43.1994" lon="5.55285">
        <ele>331.79</ele>
        <time>2019-04-20T15:28:25Z</time>
      </trkpt>
      <trkpt lat="43.1994" lon="5.55282">
        <ele>332.27</ele>
        <time>2019-04-20T15:28:26Z</time>
      </trkpt>
      <trkpt lat="43.19941" lon="5.5528">
        <ele>331.79</ele>
        <time>2019-04-20T15:28:27Z</time>
      </trkpt>
      <trkpt lat="43.19941" lon="5.55277">
        <ele>332.27</ele>
        <time>2019-04-20T15:28:29Z</time>
      </trkpt>
      <trkpt lat="43.19944" lon="5.55271">
        <ele>331.79</ele>
        <time>2019-04-20T15:28:35Z</time>
      </trkpt>
      <trkpt lat="43.19945" lon="5.5527">
        <ele>331.79</ele>
        <time>2019-04-20T15:28:36Z</time>
      </trkpt>
      <trkpt lat="43.19947" lon="5.55268">
        <ele>331.79</ele>
        <time>2019-04-20T15:28:40Z</time>
      </trkpt>
      <trkpt lat="43.19948" lon="5.55265">
        <ele>331.79</ele>
        <time>2019-04-20T15:28:44Z</time>
      </trkpt>
      <trkpt lat="43.19959" lon="5.55251">
        <ele>330.83</ele>
        <time>2019-04-20T15:28:54Z</time>
      </trkpt>
      <trkpt lat="43.19967" lon="5.55235">
        <ele>331.79</ele>
        <time>2019-04-20T15:29:08Z</time>
      </trkpt>
      <trkpt lat="43.19971" lon="5.55226">
        <ele>329.39</ele>
        <time>2019-04-20T15:29:21Z</time>
      </trkpt>
      <trkpt lat="43.19972" lon="5.55225">
        <ele>331.79</ele>
        <time>2019-04-20T15:29:25Z</time>
      </trkpt>
      <trkpt lat="43.19972" lon="5.55226">
        <ele>330.35</ele>
        <time>2019-04-20T15:29:47Z</time>
      </trkpt>
      <trkpt lat="43.19972" lon="5.55225">
        <ele>330.35</ele>
        <time>2019-04-20T15:30:06Z</time>
      </trkpt>
      <trkpt lat="43.19972" lon="5.55228">
        <ele>330.35</ele>
        <time>2019-04-20T15:30:22Z</time>
      </trkpt>
      <trkpt lat="43.19973" lon="5.55228">
        <ele>330.83</ele>
        <time>2019-04-20T15:30:31Z</time>
      </trkpt>
      <trkpt lat="43.19973" lon="5.55228">
        <ele>330.83</ele>
        <time>2019-04-20T15:30:35Z</time>
      </trkpt>
      <trkpt lat="43.1997" lon="5.55226">
        <ele>330.35</ele>
        <time>2019-04-20T15:30:45Z</time>
      </trkpt>
      <trkpt lat="43.19971" lon="5.55222">
        <ele>330.35</ele>
        <time>2019-04-20T15:31:02Z</time>
      </trkpt>
      <trkpt lat="43.19971" lon="5.55223">
        <ele>329.87</ele>
        <time>2019-04-20T15:31:21Z</time>
      </trkpt>
      <trkpt lat="43.1997" lon="5.55224">
        <ele>329.87</ele>
        <time>2019-04-20T15:31:43Z</time>
      </trkpt>
      <trkpt lat="43.19971" lon="5.55227">
        <ele>330.83</ele>
        <time>2019-04-20T15:31:49Z</time>
      </trkpt>
      <trkpt lat="43.1997" lon="5.55227">
        <ele>330.35</ele>
        <time>2019-04-20T15:31:54Z</time>
      </trkpt>
      <trkpt lat="43.19971" lon="5.55226">
        <ele>331.31</ele>
        <time>2019-04-20T15:31:57Z</time>
      </trkpt>
      <trkpt lat="43.19971" lon="5.55228">
        <ele>329.87</ele>
        <time>2019-04-20T15:32:06Z</time>
      </trkpt>
      <trkpt lat="43.19969" lon="5.55227">
        <ele>330.83</ele>
        <time>2019-04-20T15:32:16Z</time>
      </trkpt>
      <trkpt lat="43.19969" lon="5.55227">
        <ele>330.35</ele>
        <time>2019-04-20T15:32:30Z</time>
      </trkpt>
      <trkpt lat="43.19969" lon="5.55228">
        <ele>330.35</ele>
        <time>2019-04-20T15:32:47Z</time>
      </trkpt>
      <trkpt lat="43.1997" lon="5.55227">
        <ele>329.39</ele>
        <time>2019-04-20T15:33:02Z</time>
      </trkpt>
      <trkpt lat="43.19972" lon="5.55226">
        <ele>330.35</ele>
        <time>2019-04-20T15:33:11Z</time>
      </trkpt>
      <trkpt lat="43.19977" lon="5.5523">
        <ele>328.43</ele>
        <time>2019-04-20T15:33:22Z</time>
      </trkpt>
      <trkpt lat="43.19976" lon="5.55227">
        <ele>328.43</ele>
        <time>2019-04-20T15:33:36Z</time>
      </trkpt>
      <trkpt lat="43.19975" lon="5.55224">
        <ele>328.43</ele>
        <time>2019-04-20T15:33:46Z</time>
      </trkpt>
      <trkpt lat="43.19975" lon="5.55226">
        <ele>328.91</ele>
        <time>2019-04-20T15:33:56Z</time>
      </trkpt>
      <trkpt lat="43.19975" lon="5.55227">
        <ele>328.43</ele>
        <time>2019-04-20T15:34:09Z</time>
      </trkpt>
      <trkpt lat="43.19975" lon="5.5523">
        <ele>329.87</ele>
        <time>2019-04-20T15:34:11Z</time>
      </trkpt>
      <trkpt lat="43.19977" lon="5.55228">
        <ele>328.91</ele>
        <time>2019-04-20T15:34:25Z</time>
      </trkpt>
      <trkpt lat="43.19977" lon="5.55228">
        <ele>328.43</ele>
        <time>2019-04-20T15:34:37Z</time>
      </trkpt>
      <trkpt lat="43.19976" lon="5.5523">
        <ele>328.91</ele>
        <time>2019-04-20T15:34:50Z</time>
      </trkpt>
      <trkpt lat="43.1997" lon="5.55232">
        <ele>330.35</ele>
        <time>2019-04-20T15:34:56Z</time>
      </trkpt>
      <trkpt lat="43.19966" lon="5.55232">
        <ele>329.87</ele>
        <time>2019-04-20T15:35:00Z</time>
      </trkpt>
      <trkpt lat="43.19956" lon="5.55228">
        <ele>331.31</ele>
        <time>2019-04-20T15:35:05Z</time>
      </trkpt>
      <trkpt lat="43.19949" lon="5.55228">
        <ele>332.75</ele>
        <time>2019-04-20T15:35:15Z</time>
      </trkpt>
      <trkpt lat="43.19949" lon="5.55226">
        <ele>333.23</ele>
        <time>2019-04-20T15:35:16Z</time>
      </trkpt>
      <trkpt lat="43.19948" lon="5.55225">
        <ele>333.23</ele>
        <time>2019-04-20T15:35:17Z</time>
      </trkpt>
      <trkpt lat="43.19942" lon="5.55218">
        <ele>333.23</ele>
        <time>2019-04-20T15:35:27Z</time>
      </trkpt>
      <trkpt lat="43.19939" lon="5.55219">
        <ele>333.71</ele>
        <time>2019-04-20T15:35:31Z</time>
      </trkpt>
      <trkpt lat="43.19938" lon="5.5522">
        <ele>333.71</ele>
        <time>2019-04-20T15:35:32Z</time>
      </trkpt>
      <trkpt lat="43.19934" lon="5.5522">
        <ele>335.16</ele>
        <time>2019-04-20T15:35:35Z</time>
      </trkpt>
      <trkpt lat="43.19933" lon="5.5522">
        <ele>336.12</ele>
        <time>2019-04-20T15:35:36Z</time>
      </trkpt>
      <trkpt lat="43.19931" lon="5.5522">
        <ele>334.2</ele>
        <time>2019-04-20T15:35:37Z</time>
      </trkpt>
      <trkpt lat="43.19923" lon="5.5522">
        <ele>336.12</ele>
        <time>2019-04-20T15:35:47Z</time>
      </trkpt>
      <trkpt lat="43.19915" lon="5.55218">
        <ele>336.12</ele>
        <time>2019-04-20T15:35:54Z</time>
      </trkpt>
      <trkpt lat="43.19914" lon="5.55218">
        <ele>336.12</ele>
        <time>2019-04-20T15:35:55Z</time>
      </trkpt>
      <trkpt lat="43.19912" lon="5.55218">
        <ele>336.12</ele>
        <time>2019-04-20T15:35:56Z</time>
      </trkpt>
      <trkpt lat="43.1991" lon="5.55218">
        <ele>336.12</ele>
        <time>2019-04-20T15:35:57Z</time>
      </trkpt>
      <trkpt lat="43.19909" lon="5.55218">
        <ele>336.6</ele>
        <time>2019-04-20T15:35:58Z</time>
      </trkpt>
      <trkpt lat="43.19901" lon="5.55218">
        <ele>337.56</ele>
        <time>2019-04-20T15:36:04Z</time>
      </trkpt>
      <trkpt lat="43.199" lon="5.55219">
        <ele>338.04</ele>
        <time>2019-04-20T15:36:05Z</time>
      </trkpt>
      <trkpt lat="43.19884" lon="5.55214">
        <ele>339</ele>
        <time>2019-04-20T15:36:18Z</time>
      </trkpt>
      <trkpt lat="43.19889" lon="5.55209">
        <ele>338.52</ele>
        <time>2019-04-20T15:36:31Z</time>
      </trkpt>
      <trkpt lat="43.19888" lon="5.55212">
        <ele>338.52</ele>
        <time>2019-04-20T15:36:40Z</time>
      </trkpt>
      <trkpt lat="43.19887" lon="5.55213">
        <ele>338.04</ele>
        <time>2019-04-20T15:36:42Z</time>
      </trkpt>
      <trkpt lat="43.19885" lon="5.55215">
        <ele>338.52</ele>
        <time>2019-04-20T15:36:45Z</time>
      </trkpt>
      <trkpt lat="43.19884" lon="5.55214">
        <ele>338.52</ele>
        <time>2019-04-20T15:36:46Z</time>
      </trkpt>
      <trkpt lat="43.19882" lon="5.55214">
        <ele>338.04</ele>
        <time>2019-04-20T15:36:47Z</time>
      </trkpt>
      <trkpt lat="43.19881" lon="5.55215">
        <ele>338.04</ele>
        <time>2019-04-20T15:36:49Z</time>
      </trkpt>
      <trkpt lat="43.1988" lon="5.55216">
        <ele>338.04</ele>
        <time>2019-04-20T15:36:50Z</time>
      </trkpt>
      <trkpt lat="43.19878" lon="5.55217">
        <ele>339</ele>
        <time>2019-04-20T15:36:54Z</time>
      </trkpt>
      <trkpt lat="43.19876" lon="5.55216">
        <ele>338.52</ele>
        <time>2019-04-20T15:36:55Z</time>
      </trkpt>
      <trkpt lat="43.19874" lon="5.55216">
        <ele>338.52</ele>
        <time>2019-04-20T15:36:56Z</time>
      </trkpt>
      <trkpt lat="43.19873" lon="5.55217">
        <ele>338.52</ele>
        <time>2019-04-20T15:36:57Z</time>
      </trkpt>
      <trkpt lat="43.19866" lon="5.5522">
        <ele>339.48</ele>
        <time>2019-04-20T15:37:05Z</time>
      </trkpt>
      <trkpt lat="43.19864" lon="5.5522">
        <ele>339.48</ele>
        <time>2019-04-20T15:37:07Z</time>
      </trkpt>
      <trkpt lat="43.19862" lon="5.5522">
        <ele>339.48</ele>
        <time>2019-04-20T15:37:08Z</time>
      </trkpt>
      <trkpt lat="43.19858" lon="5.55219">
        <ele>340.44</ele>
        <time>2019-04-20T15:37:16Z</time>
      </trkpt>
      <trkpt lat="43.19854" lon="5.55219">
        <ele>339</ele>
        <time>2019-04-20T15:37:32Z</time>
      </trkpt>
      <trkpt lat="43.19853" lon="5.55218">
        <ele>339</ele>
        <time>2019-04-20T15:37:33Z</time>
      </trkpt>
      <trkpt lat="43.19851" lon="5.55217">
        <ele>339</ele>
        <time>2019-04-20T15:37:34Z</time>
      </trkpt>
      <trkpt lat="43.19848" lon="5.55217">
        <ele>339.48</ele>
        <time>2019-04-20T15:37:38Z</time>
      </trkpt>
      <trkpt lat="43.19834" lon="5.55209">
        <ele>339.48</ele>
        <time>2019-04-20T15:37:47Z</time>
      </trkpt>
      <trkpt lat="43.19832" lon="5.55208">
        <ele>339</ele>
        <time>2019-04-20T15:37:49Z</time>
      </trkpt>
      <trkpt lat="43.19832" lon="5.55204">
        <ele>339.48</ele>
        <time>2019-04-20T15:37:59Z</time>
      </trkpt>
      <trkpt lat="43.19832" lon="5.55207">
        <ele>339.48</ele>
        <time>2019-04-20T15:38:25Z</time>
      </trkpt>
      <trkpt lat="43.19834" lon="5.55206">
        <ele>339.96</ele>
        <time>2019-04-20T15:38:47Z</time>
      </trkpt>
      <trkpt lat="43.19834" lon="5.55206">
        <ele>340.92</ele>
        <time>2019-04-20T15:38:51Z</time>
      </trkpt>
      <trkpt lat="43.19833" lon="5.55204">
        <ele>339.96</ele>
        <time>2019-04-20T15:39:17Z</time>
      </trkpt>
      <trkpt lat="43.19833" lon="5.55202">
        <ele>340.92</ele>
        <time>2019-04-20T15:39:34Z</time>
      </trkpt>
      <trkpt lat="43.19833" lon="5.55203">
        <ele>341.41</ele>
        <time>2019-04-20T15:39:49Z</time>
      </trkpt>
      <trkpt lat="43.19833" lon="5.55204">
        <ele>339.48</ele>
        <time>2019-04-20T15:39:55Z</time>
      </trkpt>
      <trkpt lat="43.19831" lon="5.55206">
        <ele>339.96</ele>
        <time>2019-04-20T15:40:00Z</time>
      </trkpt>
      <trkpt lat="43.1982" lon="5.55202">
        <ele>339</ele>
        <time>2019-04-20T15:40:09Z</time>
      </trkpt>
      <trkpt lat="43.19819" lon="5.55201">
        <ele>338.52</ele>
        <time>2019-04-20T15:40:10Z</time>
      </trkpt>
      <trkpt lat="43.19818" lon="5.552">
        <ele>339.48</ele>
        <time>2019-04-20T15:40:11Z</time>
      </trkpt>
      <trkpt lat="43.19816" lon="5.55199">
        <ele>339</ele>
        <time>2019-04-20T15:40:12Z</time>
      </trkpt>
      <trkpt lat="43.19813" lon="5.55198">
        <ele>339</ele>
        <time>2019-04-20T15:40:15Z</time>
      </trkpt>
      <trkpt lat="43.19811" lon="5.55197">
        <ele>338.52</ele>
        <time>2019-04-20T15:40:16Z</time>
      </trkpt>
      <trkpt lat="43.1981" lon="5.55196">
        <ele>339</ele>
        <time>2019-04-20T15:40:17Z</time>
      </trkpt>
      <trkpt lat="43.19808" lon="5.55196">
        <ele>339</ele>
        <time>2019-04-20T15:40:18Z</time>
      </trkpt>
      <trkpt lat="43.19807" lon="5.55196">
        <ele>339</ele>
        <time>2019-04-20T15:40:19Z</time>
      </trkpt>
      <trkpt lat="43.19805" lon="5.55195">
        <ele>339.48</ele>
        <time>2019-04-20T15:40:20Z</time>
      </trkpt>
      <trkpt lat="43.19804" lon="5.55194">
        <ele>338.52</ele>
        <time>2019-04-20T15:40:21Z</time>
      </trkpt>
      <trkpt lat="43.19795" lon="5.55189">
        <ele>338.52</ele>
        <time>2019-04-20T15:40:27Z</time>
      </trkpt>
      <trkpt lat="43.19793" lon="5.55189">
        <ele>338.04</ele>
        <time>2019-04-20T15:40:29Z</time>
      </trkpt>
      <trkpt lat="43.19793" lon="5.55188">
        <ele>337.56</ele>
        <time>2019-04-20T15:40:30Z</time>
      </trkpt>
      <trkpt lat="43.19792" lon="5.55181">
        <ele>337.08</ele>
        <time>2019-04-20T15:40:36Z</time>
      </trkpt>
      <trkpt lat="43.19797" lon="5.55176">
        <ele>336.6</ele>
        <time>2019-04-20T15:40:49Z</time>
      </trkpt>
      <trkpt lat="43.19799" lon="5.55176">
        <ele>337.08</ele>
        <time>2019-04-20T15:41:06Z</time>
      </trkpt>
      <trkpt lat="43.19797" lon="5.55179">
        <ele>337.08</ele>
        <time>2019-04-20T15:41:27Z</time>
      </trkpt>
      <trkpt lat="43.19797" lon="5.5518">
        <ele>337.08</ele>
        <time>2019-04-20T15:41:38Z</time>
      </trkpt>
      <trkpt lat="43.19798" lon="5.55178">
        <ele>336.6</ele>
        <time>2019-04-20T15:41:48Z</time>
      </trkpt>
      <trkpt lat="43.19797" lon="5.55182">
        <ele>336.6</ele>
        <time>2019-04-20T15:42:00Z</time>
      </trkpt>
      <trkpt lat="43.19794" lon="5.55184">
        <ele>336.6</ele>
        <time>2019-04-20T15:42:04Z</time>
      </trkpt>
      <trkpt lat="43.19786" lon="5.55194">
        <ele>336.12</ele>
        <time>2019-04-20T15:42:13Z</time>
      </trkpt>
      <trkpt lat="43.19778" lon="5.55196">
        <ele>334.68</ele>
        <time>2019-04-20T15:42:26Z</time>
      </trkpt>
      <trkpt lat="43.19778" lon="5.55197">
        <ele>334.68</ele>
        <time>2019-04-20T15:42:42Z</time>
      </trkpt>
      <trkpt lat="43.19777" lon="5.55198">
        <ele>334.68</ele>
        <time>2019-04-20T15:43:00Z</time>
      </trkpt>
      <trkpt lat="43.19774" lon="5.55202">
        <ele>333.71</ele>
        <time>2019-04-20T15:43:08Z</time>
      </trkpt>
      <trkpt lat="43.1977" lon="5.55206">
        <ele>332.75</ele>
        <time>2019-04-20T15:43:12Z</time>
      </trkpt>
      <trkpt lat="43.19762" lon="5.55211">
        <ele>329.87</ele>
        <time>2019-04-20T15:43:21Z</time>
      </trkpt>
      <trkpt lat="43.19759" lon="5.55213">
        <ele>329.39</ele>
        <time>2019-04-20T15:43:24Z</time>
      </trkpt>
      <trkpt lat="43.19757" lon="5.55218">
        <ele>327.95</ele>
        <time>2019-04-20T15:43:29Z</time>
      </trkpt>
      <trkpt lat="43.19752" lon="5.55221">
        <ele>326.02</ele>
        <time>2019-04-20T15:43:34Z</time>
      </trkpt>
      <trkpt lat="43.19746" lon="5.55226">
        <ele>323.62</ele>
        <time>2019-04-20T15:43:42Z</time>
      </trkpt>
      <trkpt lat="43.19742" lon="5.55228">
        <ele>323.14</ele>
        <time>2019-04-20T15:43:46Z</time>
      </trkpt>
      <trkpt lat="43.19738" lon="5.55229">
        <ele>321.22</ele>
        <time>2019-04-20T15:43:50Z</time>
      </trkpt>
      <trkpt lat="43.19727" lon="5.55234">
        <ele>318.33</ele>
        <time>2019-04-20T15:44:02Z</time>
      </trkpt>
      <trkpt lat="43.19722" lon="5.55238">
        <ele>317.37</ele>
        <time>2019-04-20T15:44:09Z</time>
      </trkpt>
      <trkpt lat="43.19721" lon="5.55242">
        <ele>315.93</ele>
        <time>2019-04-20T15:44:11Z</time>
      </trkpt>
      <trkpt lat="43.19713" lon="5.55248">
        <ele>314.49</ele>
        <time>2019-04-20T15:44:22Z</time>
      </trkpt>
      <trkpt lat="43.19712" lon="5.55247">
        <ele>314.97</ele>
        <time>2019-04-20T15:44:44Z</time>
      </trkpt>
      <trkpt lat="43.19709" lon="5.5525">
        <ele>315.45</ele>
        <time>2019-04-20T15:45:03Z</time>
      </trkpt>
      <trkpt lat="43.19708" lon="5.55254">
        <ele>315.45</ele>
        <time>2019-04-20T15:45:07Z</time>
      </trkpt>
      <trkpt lat="43.19705" lon="5.55264">
        <ele>314.97</ele>
        <time>2019-04-20T15:45:16Z</time>
      </trkpt>
      <trkpt lat="43.19692" lon="5.55279">
        <ele>315.45</ele>
        <time>2019-04-20T15:45:25Z</time>
      </trkpt>
      <trkpt lat="43.19691" lon="5.55281">
        <ele>315.45</ele>
        <time>2019-04-20T15:45:26Z</time>
      </trkpt>
      <trkpt lat="43.19688" lon="5.55283">
        <ele>314.97</ele>
        <time>2019-04-20T15:45:31Z</time>
      </trkpt>
      <trkpt lat="43.19687" lon="5.55284">
        <ele>314.97</ele>
        <time>2019-04-20T15:45:32Z</time>
      </trkpt>
      <trkpt lat="43.19685" lon="5.55284">
        <ele>314.97</ele>
        <time>2019-04-20T15:45:33Z</time>
      </trkpt>
      <trkpt lat="43.19683" lon="5.55285">
        <ele>314.97</ele>
        <time>2019-04-20T15:45:34Z</time>
      </trkpt>
      <trkpt lat="43.19682" lon="5.55286">
        <ele>315.93</ele>
        <time>2019-04-20T15:45:35Z</time>
      </trkpt>
      <trkpt lat="43.19675" lon="5.55292">
        <ele>316.89</ele>
        <time>2019-04-20T15:45:45Z</time>
      </trkpt>
      <trkpt lat="43.19672" lon="5.55293">
        <ele>317.85</ele>
        <time>2019-04-20T15:45:50Z</time>
      </trkpt>
      <trkpt lat="43.19671" lon="5.55293">
        <ele>317.85</ele>
        <time>2019-04-20T15:45:51Z</time>
      </trkpt>
      <trkpt lat="43.19666" lon="5.55297">
        <ele>318.81</ele>
        <time>2019-04-20T15:45:59Z</time>
      </trkpt>
      <trkpt lat="43.1966" lon="5.55301">
        <ele>320.74</ele>
        <time>2019-04-20T15:46:07Z</time>
      </trkpt>
      <trkpt lat="43.19655" lon="5.55307">
        <ele>321.7</ele>
        <time>2019-04-20T15:46:15Z</time>
      </trkpt>
      <trkpt lat="43.19651" lon="5.55313">
        <ele>323.62</ele>
        <time>2019-04-20T15:46:26Z</time>
      </trkpt>
      <trkpt lat="43.19646" lon="5.55317">
        <ele>325.54</ele>
        <time>2019-04-20T15:46:35Z</time>
      </trkpt>
      <trkpt lat="43.19641" lon="5.55319">
        <ele>327.47</ele>
        <time>2019-04-20T15:46:47Z</time>
      </trkpt>
      <trkpt lat="43.19639" lon="5.5532">
        <ele>328.43</ele>
        <time>2019-04-20T15:46:50Z</time>
      </trkpt>
      <trkpt lat="43.19636" lon="5.55322">
        <ele>329.39</ele>
        <time>2019-04-20T15:47:02Z</time>
      </trkpt>
      <trkpt lat="43.19633" lon="5.55327">
        <ele>331.79</ele>
        <time>2019-04-20T15:47:13Z</time>
      </trkpt>
      <trkpt lat="43.19625" lon="5.55331">
        <ele>334.2</ele>
        <time>2019-04-20T15:47:26Z</time>
      </trkpt>
      <trkpt lat="43.19618" lon="5.55336">
        <ele>336.12</ele>
        <time>2019-04-20T15:47:37Z</time>
      </trkpt>
      <trkpt lat="43.19608" lon="5.55341">
        <ele>338.52</ele>
        <time>2019-04-20T15:47:51Z</time>
      </trkpt>
      <trkpt lat="43.19601" lon="5.55347">
        <ele>340.44</ele>
        <time>2019-04-20T15:48:03Z</time>
      </trkpt>
      <trkpt lat="43.19593" lon="5.55353">
        <ele>341.41</ele>
        <time>2019-04-20T15:48:16Z</time>
      </trkpt>
      <trkpt lat="43.19587" lon="5.55354">
        <ele>342.37</ele>
        <time>2019-04-20T15:48:26Z</time>
      </trkpt>
      <trkpt lat="43.19581" lon="5.55358">
        <ele>343.81</ele>
        <time>2019-04-20T15:48:41Z</time>
      </trkpt>
      <trkpt lat="43.19572" lon="5.55365">
        <ele>345.73</ele>
        <time>2019-04-20T15:48:55Z</time>
      </trkpt>
      <trkpt lat="43.19574" lon="5.55361">
        <ele>345.73</ele>
        <time>2019-04-20T15:49:09Z</time>
      </trkpt>
      <trkpt lat="43.19571" lon="5.55366">
        <ele>344.77</ele>
        <time>2019-04-20T15:49:24Z</time>
      </trkpt>
      <trkpt lat="43.19563" lon="5.55373">
        <ele>347.17</ele>
        <time>2019-04-20T15:49:37Z</time>
      </trkpt>
      <trkpt lat="43.19554" lon="5.55376">
        <ele>348.13</ele>
        <time>2019-04-20T15:49:53Z</time>
      </trkpt>
      <trkpt lat="43.19547" lon="5.55379">
        <ele>349.1</ele>
        <time>2019-04-20T15:50:09Z</time>
      </trkpt>
      <trkpt lat="43.19538" lon="5.55381">
        <ele>350.54</ele>
        <time>2019-04-20T15:50:22Z</time>
      </trkpt>
      <trkpt lat="43.19527" lon="5.55383">
        <ele>352.46</ele>
        <time>2019-04-20T15:50:34Z</time>
      </trkpt>
      <trkpt lat="43.1952" lon="5.55383">
        <ele>352.94</ele>
        <time>2019-04-20T15:50:44Z</time>
      </trkpt>
      <trkpt lat="43.19512" lon="5.55384">
        <ele>355.34</ele>
        <time>2019-04-20T15:50:57Z</time>
      </trkpt>
      <trkpt lat="43.19501" lon="5.55386">
        <ele>356.79</ele>
        <time>2019-04-20T15:51:10Z</time>
      </trkpt>
      <trkpt lat="43.19494" lon="5.55384">
        <ele>358.23</ele>
        <time>2019-04-20T15:51:23Z</time>
      </trkpt>
      <trkpt lat="43.19483" lon="5.55385">
        <ele>360.15</ele>
        <time>2019-04-20T15:51:34Z</time>
      </trkpt>
      <trkpt lat="43.19479" lon="5.55385">
        <ele>360.63</ele>
        <time>2019-04-20T15:51:39Z</time>
      </trkpt>
      <trkpt lat="43.1947" lon="5.55385">
        <ele>362.07</ele>
        <time>2019-04-20T15:51:50Z</time>
      </trkpt>
      <trkpt lat="43.1946" lon="5.55386">
        <ele>362.55</ele>
        <time>2019-04-20T15:51:59Z</time>
      </trkpt>
      <trkpt lat="43.19459" lon="5.55385">
        <ele>363.52</ele>
        <time>2019-04-20T15:52:00Z</time>
      </trkpt>
      <trkpt lat="43.19453" lon="5.55384">
        <ele>363.04</ele>
        <time>2019-04-20T15:52:13Z</time>
      </trkpt>
      <trkpt lat="43.1945" lon="5.55384">
        <ele>363.52</ele>
        <time>2019-04-20T15:52:34Z</time>
      </trkpt>
      <trkpt lat="43.19436" lon="5.55383">
        <ele>363.52</ele>
        <time>2019-04-20T15:52:47Z</time>
      </trkpt>
      <trkpt lat="43.19423" lon="5.5538">
        <ele>364.48</ele>
        <time>2019-04-20T15:53:01Z</time>
      </trkpt>
      <trkpt lat="43.19422" lon="5.55378">
        <ele>364.96</ele>
        <time>2019-04-20T15:53:03Z</time>
      </trkpt>
      <trkpt lat="43.19421" lon="5.55376">
        <ele>365.44</ele>
        <time>2019-04-20T15:53:04Z</time>
      </trkpt>
      <trkpt lat="43.1942" lon="5.55374">
        <ele>364.96</ele>
        <time>2019-04-20T15:53:05Z</time>
      </trkpt>
      <trkpt lat="43.19419" lon="5.55373">
        <ele>365.44</ele>
        <time>2019-04-20T15:53:06Z</time>
      </trkpt>
      <trkpt lat="43.19414" lon="5.55369">
        <ele>365.92</ele>
        <time>2019-04-20T15:53:13Z</time>
      </trkpt>
      <trkpt lat="43.19412" lon="5.55368">
        <ele>365.44</ele>
        <time>2019-04-20T15:53:14Z</time>
      </trkpt>
      <trkpt lat="43.19411" lon="5.55367">
        <ele>364.96</ele>
        <time>2019-04-20T15:53:15Z</time>
      </trkpt>
      <trkpt lat="43.19399" lon="5.55357">
        <ele>364.96</ele>
        <time>2019-04-20T15:53:28Z</time>
      </trkpt>
      <trkpt lat="43.19396" lon="5.55355">
        <ele>365.44</ele>
        <time>2019-04-20T15:53:36Z</time>
      </trkpt>
      <trkpt lat="43.19396" lon="5.55354">
        <ele>365.44</ele>
        <time>2019-04-20T15:53:37Z</time>
      </trkpt>
      <trkpt lat="43.19394" lon="5.55353">
        <ele>365.92</ele>
        <time>2019-04-20T15:53:40Z</time>
      </trkpt>
      <trkpt lat="43.19395" lon="5.55344">
        <ele>365.92</ele>
        <time>2019-04-20T15:53:50Z</time>
      </trkpt>
      <trkpt lat="43.19395" lon="5.55337">
        <ele>366.88</ele>
        <time>2019-04-20T15:54:00Z</time>
      </trkpt>
      <trkpt lat="43.19395" lon="5.55337">
        <ele>365.44</ele>
        <time>2019-04-20T15:54:18Z</time>
      </trkpt>
      <trkpt lat="43.19394" lon="5.55339">
        <ele>365.92</ele>
        <time>2019-04-20T15:54:35Z</time>
      </trkpt>
      <trkpt lat="43.19394" lon="5.55339">
        <ele>364.96</ele>
        <time>2019-04-20T15:54:49Z</time>
      </trkpt>
      <trkpt lat="43.19393" lon="5.55338">
        <ele>365.44</ele>
        <time>2019-04-20T15:55:02Z</time>
      </trkpt>
      <trkpt lat="43.19393" lon="5.55339">
        <ele>364</ele>
        <time>2019-04-20T15:55:21Z</time>
      </trkpt>
      <trkpt lat="43.19393" lon="5.55339">
        <ele>365.44</ele>
        <time>2019-04-20T15:56:06Z</time>
      </trkpt>
      <trkpt lat="43.19393" lon="5.55339">
        <ele>365.92</ele>
        <time>2019-04-20T15:56:19Z</time>
      </trkpt>
      <trkpt lat="43.19393" lon="5.55339">
        <ele>364.48</ele>
        <time>2019-04-20T15:56:23Z</time>
      </trkpt>
      <trkpt lat="43.19392" lon="5.55342">
        <ele>365.44</ele>
        <time>2019-04-20T15:56:30Z</time>
      </trkpt>
      <trkpt lat="43.19391" lon="5.55348">
        <ele>365.92</ele>
        <time>2019-04-20T15:56:41Z</time>
      </trkpt>
      <trkpt lat="43.19391" lon="5.5535">
        <ele>364.48</ele>
        <time>2019-04-20T15:56:46Z</time>
      </trkpt>
      <trkpt lat="43.19391" lon="5.55352">
        <ele>366.4</ele>
        <time>2019-04-20T15:56:57Z</time>
      </trkpt>
      <trkpt lat="43.19391" lon="5.55351">
        <ele>364.96</ele>
        <time>2019-04-20T15:57:09Z</time>
      </trkpt>
      <trkpt lat="43.19386" lon="5.55358">
        <ele>364.48</ele>
        <time>2019-04-20T15:57:22Z</time>
      </trkpt>
      <trkpt lat="43.19379" lon="5.55362">
        <ele>364.48</ele>
        <time>2019-04-20T15:57:34Z</time>
      </trkpt>
      <trkpt lat="43.19369" lon="5.55362">
        <ele>362.55</ele>
        <time>2019-04-20T15:57:42Z</time>
      </trkpt>
      <trkpt lat="43.19358" lon="5.55363">
        <ele>361.11</ele>
        <time>2019-04-20T15:57:55Z</time>
      </trkpt>
      <trkpt lat="43.19345" lon="5.55363">
        <ele>361.11</ele>
        <time>2019-04-20T15:58:06Z</time>
      </trkpt>
      <trkpt lat="43.19343" lon="5.55363">
        <ele>361.59</ele>
        <time>2019-04-20T15:58:09Z</time>
      </trkpt>
      <trkpt lat="43.19342" lon="5.55363">
        <ele>361.11</ele>
        <time>2019-04-20T15:58:10Z</time>
      </trkpt>
      <trkpt lat="43.1934" lon="5.55362">
        <ele>361.59</ele>
        <time>2019-04-20T15:58:11Z</time>
      </trkpt>
      <trkpt lat="43.19339" lon="5.55362">
        <ele>362.07</ele>
        <time>2019-04-20T15:58:12Z</time>
      </trkpt>
      <trkpt lat="43.19332" lon="5.55363">
        <ele>363.52</ele>
        <time>2019-04-20T15:58:24Z</time>
      </trkpt>
      <trkpt lat="43.1933" lon="5.55363">
        <ele>363.52</ele>
        <time>2019-04-20T15:58:25Z</time>
      </trkpt>
      <trkpt lat="43.19328" lon="5.55364">
        <ele>363.04</ele>
        <time>2019-04-20T15:58:35Z</time>
      </trkpt>
      <trkpt lat="43.19327" lon="5.55365">
        <ele>361.11</ele>
        <time>2019-04-20T15:58:36Z</time>
      </trkpt>
      <trkpt lat="43.19323" lon="5.55368">
        <ele>360.15</ele>
        <time>2019-04-20T15:58:40Z</time>
      </trkpt>
      <trkpt lat="43.1932" lon="5.55371">
        <ele>359.67</ele>
        <time>2019-04-20T15:58:46Z</time>
      </trkpt>
      <trkpt lat="43.19319" lon="5.55372">
        <ele>360.63</ele>
        <time>2019-04-20T15:58:47Z</time>
      </trkpt>
      <trkpt lat="43.19318" lon="5.55373">
        <ele>359.67</ele>
        <time>2019-04-20T15:58:48Z</time>
      </trkpt>
      <trkpt lat="43.19317" lon="5.55373">
        <ele>359.19</ele>
        <time>2019-04-20T15:58:49Z</time>
      </trkpt>
      <trkpt lat="43.19315" lon="5.55373">
        <ele>359.67</ele>
        <time>2019-04-20T15:58:50Z</time>
      </trkpt>
      <trkpt lat="43.19314" lon="5.55375">
        <ele>359.19</ele>
        <time>2019-04-20T15:58:51Z</time>
      </trkpt>
      <trkpt lat="43.19313" lon="5.55376">
        <ele>361.11</ele>
        <time>2019-04-20T15:58:53Z</time>
      </trkpt>
      <trkpt lat="43.19307" lon="5.55384">
        <ele>359.67</ele>
        <time>2019-04-20T15:59:01Z</time>
      </trkpt>
      <trkpt lat="43.19305" lon="5.55389">
        <ele>359.19</ele>
        <time>2019-04-20T15:59:07Z</time>
      </trkpt>
      <trkpt lat="43.19303" lon="5.5539">
        <ele>359.19</ele>
        <time>2019-04-20T15:59:08Z</time>
      </trkpt>
      <trkpt lat="43.19299" lon="5.55389">
        <ele>360.15</ele>
        <time>2019-04-20T15:59:18Z</time>
      </trkpt>
      <trkpt lat="43.19298" lon="5.55391">
        <ele>360.15</ele>
        <time>2019-04-20T15:59:29Z</time>
      </trkpt>
      <trkpt lat="43.19299" lon="5.5539">
        <ele>359.67</ele>
        <time>2019-04-20T15:59:43Z</time>
      </trkpt>
      <trkpt lat="43.19298" lon="5.55397">
        <ele>359.19</ele>
        <time>2019-04-20T15:59:52Z</time>
      </trkpt>
      <trkpt lat="43.19297" lon="5.55398">
        <ele>359.67</ele>
        <time>2019-04-20T15:59:53Z</time>
      </trkpt>
      <trkpt lat="43.19293" lon="5.55403">
        <ele>356.79</ele>
        <time>2019-04-20T15:59:59Z</time>
      </trkpt>
      <trkpt lat="43.19293" lon="5.55404">
        <ele>356.79</ele>
        <time>2019-04-20T16:00:00Z</time>
      </trkpt>
      <trkpt lat="43.19291" lon="5.55406">
        <ele>356.31</ele>
        <time>2019-04-20T16:00:06Z</time>
      </trkpt>
      <trkpt lat="43.1929" lon="5.55407">
        <ele>356.79</ele>
        <time>2019-04-20T16:00:07Z</time>
      </trkpt>
      <trkpt lat="43.19288" lon="5.55411">
        <ele>356.31</ele>
        <time>2019-04-20T16:00:10Z</time>
      </trkpt>
      <trkpt lat="43.19288" lon="5.55412">
        <ele>356.31</ele>
        <time>2019-04-20T16:00:11Z</time>
      </trkpt>
      <trkpt lat="43.19287" lon="5.55413">
        <ele>356.31</ele>
        <time>2019-04-20T16:00:12Z</time>
      </trkpt>
      <trkpt lat="43.19279" lon="5.5542">
        <ele>358.23</ele>
        <time>2019-04-20T16:00:23Z</time>
      </trkpt>
      <trkpt lat="43.19279" lon="5.55421">
        <ele>358.71</ele>
        <time>2019-04-20T16:00:24Z</time>
      </trkpt>
      <trkpt lat="43.19277" lon="5.55421">
        <ele>359.67</ele>
        <time>2019-04-20T16:00:25Z</time>
      </trkpt>
      <trkpt lat="43.19276" lon="5.55422">
        <ele>359.67</ele>
        <time>2019-04-20T16:00:26Z</time>
      </trkpt>
      <trkpt lat="43.19271" lon="5.55426">
        <ele>359.19</ele>
        <time>2019-04-20T16:00:35Z</time>
      </trkpt>
      <trkpt lat="43.19268" lon="5.55427">
        <ele>358.23</ele>
        <time>2019-04-20T16:00:47Z</time>
      </trkpt>
      <trkpt lat="43.19265" lon="5.55434">
        <ele>357.75</ele>
        <time>2019-04-20T16:00:56Z</time>
      </trkpt>
      <trkpt lat="43.19264" lon="5.55435">
        <ele>356.79</ele>
        <time>2019-04-20T16:00:57Z</time>
      </trkpt>
      <trkpt lat="43.19263" lon="5.55437">
        <ele>356.79</ele>
        <time>2019-04-20T16:00:58Z</time>
      </trkpt>
      <trkpt lat="43.19254" lon="5.55447">
        <ele>357.27</ele>
        <time>2019-04-20T16:01:09Z</time>
      </trkpt>
      <trkpt lat="43.19245" lon="5.55455">
        <ele>357.27</ele>
        <time>2019-04-20T16:01:22Z</time>
      </trkpt>
      <trkpt lat="43.19244" lon="5.55456">
        <ele>357.27</ele>
        <time>2019-04-20T16:01:23Z</time>
      </trkpt>
      <trkpt lat="43.19239" lon="5.55461">
        <ele>354.86</ele>
        <time>2019-04-20T16:01:33Z</time>
      </trkpt>
      <trkpt lat="43.19237" lon="5.55462">
        <ele>353.9</ele>
        <time>2019-04-20T16:01:34Z</time>
      </trkpt>
      <trkpt lat="43.19236" lon="5.55462">
        <ele>354.38</ele>
        <time>2019-04-20T16:01:35Z</time>
      </trkpt>
      <trkpt lat="43.19233" lon="5.55467">
        <ele>353.42</ele>
        <time>2019-04-20T16:01:42Z</time>
      </trkpt>
      <trkpt lat="43.19228" lon="5.55471">
        <ele>352.46</ele>
        <time>2019-04-20T16:01:49Z</time>
      </trkpt>
      <trkpt lat="43.19222" lon="5.55476">
        <ele>350.06</ele>
        <time>2019-04-20T16:02:01Z</time>
      </trkpt>
      <trkpt lat="43.19216" lon="5.55479">
        <ele>348.62</ele>
        <time>2019-04-20T16:02:13Z</time>
      </trkpt>
      <trkpt lat="43.19213" lon="5.55479">
        <ele>348.13</ele>
        <time>2019-04-20T16:02:19Z</time>
      </trkpt>
      <trkpt lat="43.1921" lon="5.55481">
        <ele>346.69</ele>
        <time>2019-04-20T16:02:23Z</time>
      </trkpt>
      <trkpt lat="43.19207" lon="5.55482">
        <ele>346.69</ele>
        <time>2019-04-20T16:02:37Z</time>
      </trkpt>
      <trkpt lat="43.19203" lon="5.55484">
        <ele>345.25</ele>
        <time>2019-04-20T16:02:47Z</time>
      </trkpt>
      <trkpt lat="43.19202" lon="5.55482">
        <ele>346.21</ele>
        <time>2019-04-20T16:02:51Z</time>
      </trkpt>
      <trkpt lat="43.19203" lon="5.55483">
        <ele>345.73</ele>
        <time>2019-04-20T16:03:06Z</time>
      </trkpt>
      <trkpt lat="43.19197" lon="5.55482">
        <ele>343.81</ele>
        <time>2019-04-20T16:03:17Z</time>
      </trkpt>
      <trkpt lat="43.19192" lon="5.55485">
        <ele>342.37</ele>
        <time>2019-04-20T16:03:29Z</time>
      </trkpt>
      <trkpt lat="43.19189" lon="5.55489">
        <ele>339.96</ele>
        <time>2019-04-20T16:03:33Z</time>
      </trkpt>
      <trkpt lat="43.19187" lon="5.55495">
        <ele>337.08</ele>
        <time>2019-04-20T16:03:40Z</time>
      </trkpt>
      <trkpt lat="43.19184" lon="5.55497">
        <ele>335.64</ele>
        <time>2019-04-20T16:03:46Z</time>
      </trkpt>
      <trkpt lat="43.19182" lon="5.55498">
        <ele>335.64</ele>
        <time>2019-04-20T16:03:47Z</time>
      </trkpt>
      <trkpt lat="43.19181" lon="5.55498">
        <ele>336.12</ele>
        <time>2019-04-20T16:03:48Z</time>
      </trkpt>
      <trkpt lat="43.19179" lon="5.55498">
        <ele>335.64</ele>
        <time>2019-04-20T16:03:49Z</time>
      </trkpt>
      <trkpt lat="43.19177" lon="5.55496">
        <ele>334.2</ele>
        <time>2019-04-20T16:03:55Z</time>
      </trkpt>
      <trkpt lat="43.19178" lon="5.55493">
        <ele>335.16</ele>
        <time>2019-04-20T16:04:08Z</time>
      </trkpt>
      <trkpt lat="43.19178" lon="5.55492">
        <ele>334.68</ele>
        <time>2019-04-20T16:04:24Z</time>
      </trkpt>
      <trkpt lat="43.19178" lon="5.55492">
        <ele>335.64</ele>
        <time>2019-04-20T16:04:30Z</time>
      </trkpt>
      <trkpt lat="43.19176" lon="5.55493">
        <ele>334.2</ele>
        <time>2019-04-20T16:04:38Z</time>
      </trkpt>
      <trkpt lat="43.19173" lon="5.555">
        <ele>330.83</ele>
        <time>2019-04-20T16:04:50Z</time>
      </trkpt>
      <trkpt lat="43.19167" lon="5.55498">
        <ele>327.95</ele>
        <time>2019-04-20T16:05:02Z</time>
      </trkpt>
      <trkpt lat="43.1916" lon="5.555">
        <ele>326.5</ele>
        <time>2019-04-20T16:05:15Z</time>
      </trkpt>
      <trkpt lat="43.19157" lon="5.55501">
        <ele>325.06</ele>
        <time>2019-04-20T16:05:18Z</time>
      </trkpt>
      <trkpt lat="43.19156" lon="5.55503">
        <ele>324.58</ele>
        <time>2019-04-20T16:05:20Z</time>
      </trkpt>
      <trkpt lat="43.19154" lon="5.55508">
        <ele>323.14</ele>
        <time>2019-04-20T16:05:29Z</time>
      </trkpt>
      <trkpt lat="43.19151" lon="5.55509">
        <ele>321.7</ele>
        <time>2019-04-20T16:05:34Z</time>
      </trkpt>
      <trkpt lat="43.19149" lon="5.5551">
        <ele>321.22</ele>
        <time>2019-04-20T16:05:36Z</time>
      </trkpt>
      <trkpt lat="43.19149" lon="5.55512">
        <ele>321.7</ele>
        <time>2019-04-20T16:05:37Z</time>
      </trkpt>
      <trkpt lat="43.19147" lon="5.55516">
        <ele>319.3</ele>
        <time>2019-04-20T16:05:45Z</time>
      </trkpt>
      <trkpt lat="43.19144" lon="5.55517">
        <ele>319.3</ele>
        <time>2019-04-20T16:05:47Z</time>
      </trkpt>
      <trkpt lat="43.19143" lon="5.55518">
        <ele>318.81</ele>
        <time>2019-04-20T16:05:48Z</time>
      </trkpt>
      <trkpt lat="43.19143" lon="5.55524">
        <ele>317.85</ele>
        <time>2019-04-20T16:05:58Z</time>
      </trkpt>
      <trkpt lat="43.19142" lon="5.55526">
        <ele>316.89</ele>
        <time>2019-04-20T16:06:00Z</time>
      </trkpt>
      <trkpt lat="43.19137" lon="5.55531">
        <ele>315.45</ele>
        <time>2019-04-20T16:06:09Z</time>
      </trkpt>
      <trkpt lat="43.19135" lon="5.5553">
        <ele>314.49</ele>
        <time>2019-04-20T16:06:10Z</time>
      </trkpt>
      <trkpt lat="43.19134" lon="5.5553">
        <ele>314.49</ele>
        <time>2019-04-20T16:06:12Z</time>
      </trkpt>
      <trkpt lat="43.19132" lon="5.5553">
        <ele>314.01</ele>
        <time>2019-04-20T16:06:13Z</time>
      </trkpt>
      <trkpt lat="43.1913" lon="5.55529">
        <ele>313.05</ele>
        <time>2019-04-20T16:06:15Z</time>
      </trkpt>
      <trkpt lat="43.19128" lon="5.55528">
        <ele>312.57</ele>
        <time>2019-04-20T16:06:17Z</time>
      </trkpt>
      <trkpt lat="43.19127" lon="5.55528">
        <ele>312.09</ele>
        <time>2019-04-20T16:06:18Z</time>
      </trkpt>
      <trkpt lat="43.19123" lon="5.55526">
        <ele>311.12</ele>
        <time>2019-04-20T16:06:24Z</time>
      </trkpt>
      <trkpt lat="43.19122" lon="5.55522">
        <ele>311.6</ele>
        <time>2019-04-20T16:06:27Z</time>
      </trkpt>
      <trkpt lat="43.19121" lon="5.55522">
        <ele>310.64</ele>
        <time>2019-04-20T16:06:28Z</time>
      </trkpt>
      <trkpt lat="43.1912" lon="5.55521">
        <ele>310.16</ele>
        <time>2019-04-20T16:06:29Z</time>
      </trkpt>
      <trkpt lat="43.19116" lon="5.5552">
        <ele>309.2</ele>
        <time>2019-04-20T16:06:41Z</time>
      </trkpt>
      <trkpt lat="43.19117" lon="5.55521">
        <ele>308.24</ele>
        <time>2019-04-20T16:07:01Z</time>
      </trkpt>
      <trkpt lat="43.19114" lon="5.55522">
        <ele>309.2</ele>
        <time>2019-04-20T16:07:19Z</time>
      </trkpt>
      <trkpt lat="43.19113" lon="5.55523">
        <ele>309.2</ele>
        <time>2019-04-20T16:07:20Z</time>
      </trkpt>
      <trkpt lat="43.19111" lon="5.55525">
        <ele>309.68</ele>
        <time>2019-04-20T16:07:26Z</time>
      </trkpt>
      <trkpt lat="43.19109" lon="5.55527">
        <ele>307.76</ele>
        <time>2019-04-20T16:07:32Z</time>
      </trkpt>
      <trkpt lat="43.19107" lon="5.55528">
        <ele>308.72</ele>
        <time>2019-04-20T16:07:44Z</time>
      </trkpt>
      <trkpt lat="43.19106" lon="5.55532">
        <ele>308.72</ele>
        <time>2019-04-20T16:07:59Z</time>
      </trkpt>
      <trkpt lat="43.19104" lon="5.55532">
        <ele>308.24</ele>
        <time>2019-04-20T16:08:00Z</time>
      </trkpt>
      <trkpt lat="43.19103" lon="5.55533">
        <ele>308.72</ele>
        <time>2019-04-20T16:08:01Z</time>
      </trkpt>
      <trkpt lat="43.19101" lon="5.55535">
        <ele>308.72</ele>
        <time>2019-04-20T16:08:02Z</time>
      </trkpt>
      <trkpt lat="43.191" lon="5.55537">
        <ele>308.24</ele>
        <time>2019-04-20T16:08:03Z</time>
      </trkpt>
      <trkpt lat="43.191" lon="5.55538">
        <ele>307.76</ele>
        <time>2019-04-20T16:08:04Z</time>
      </trkpt>
      <trkpt lat="43.191" lon="5.5554">
        <ele>308.24</ele>
        <time>2019-04-20T16:08:05Z</time>
      </trkpt>
      <trkpt lat="43.19097" lon="5.55543">
        <ele>307.28</ele>
        <time>2019-04-20T16:08:10Z</time>
      </trkpt>
      <trkpt lat="43.19096" lon="5.55544">
        <ele>307.76</ele>
        <time>2019-04-20T16:08:11Z</time>
      </trkpt>
      <trkpt lat="43.19092" lon="5.55547">
        <ele>307.28</ele>
        <time>2019-04-20T16:08:16Z</time>
      </trkpt>
      <trkpt lat="43.1909" lon="5.55548">
        <ele>306.8</ele>
        <time>2019-04-20T16:08:17Z</time>
      </trkpt>
      <trkpt lat="43.19089" lon="5.55547">
        <ele>306.8</ele>
        <time>2019-04-20T16:08:18Z</time>
      </trkpt>
      <trkpt lat="43.19084" lon="5.55551">
        <ele>306.8</ele>
        <time>2019-04-20T16:08:26Z</time>
      </trkpt>
      <trkpt lat="43.19078" lon="5.55561">
        <ele>305.84</ele>
        <time>2019-04-20T16:08:39Z</time>
      </trkpt>
      <trkpt lat="43.19077" lon="5.55563">
        <ele>305.84</ele>
        <time>2019-04-20T16:08:45Z</time>
      </trkpt>
      <trkpt lat="43.19075" lon="5.55565">
        <ele>305.84</ele>
        <time>2019-04-20T16:08:47Z</time>
      </trkpt>
      <trkpt lat="43.19074" lon="5.55566">
        <ele>306.32</ele>
        <time>2019-04-20T16:08:48Z</time>
      </trkpt>
      <trkpt lat="43.19069" lon="5.55571">
        <ele>305.84</ele>
        <time>2019-04-20T16:08:52Z</time>
      </trkpt>
      <trkpt lat="43.19058" lon="5.55585">
        <ele>305.84</ele>
        <time>2019-04-20T16:09:03Z</time>
      </trkpt>
      <trkpt lat="43.19055" lon="5.5559">
        <ele>304.88</ele>
        <time>2019-04-20T16:09:08Z</time>
      </trkpt>
      <trkpt lat="43.19055" lon="5.55592">
        <ele>304.88</ele>
        <time>2019-04-20T16:09:09Z</time>
      </trkpt>
      <trkpt lat="43.19054" lon="5.55593">
        <ele>304.88</ele>
        <time>2019-04-20T16:09:10Z</time>
      </trkpt>
      <trkpt lat="43.19053" lon="5.55595">
        <ele>304.88</ele>
        <time>2019-04-20T16:09:11Z</time>
      </trkpt>
      <trkpt lat="43.19052" lon="5.55596">
        <ele>304.88</ele>
        <time>2019-04-20T16:09:12Z</time>
      </trkpt>
      <trkpt lat="43.19051" lon="5.55598">
        <ele>304.39</ele>
        <time>2019-04-20T16:09:13Z</time>
      </trkpt>
      <trkpt lat="43.19051" lon="5.55599">
        <ele>304.88</ele>
        <time>2019-04-20T16:09:14Z</time>
      </trkpt>
      <trkpt lat="43.1905" lon="5.556">
        <ele>304.39</ele>
        <time>2019-04-20T16:09:15Z</time>
      </trkpt>
      <trkpt lat="43.19049" lon="5.55602">
        <ele>304.88</ele>
        <time>2019-04-20T16:09:19Z</time>
      </trkpt>
      <trkpt lat="43.19049" lon="5.55603">
        <ele>305.36</ele>
        <time>2019-04-20T16:09:20Z</time>
      </trkpt>
      <trkpt lat="43.19047" lon="5.55605">
        <ele>304.88</ele>
        <time>2019-04-20T16:09:21Z</time>
      </trkpt>
      <trkpt lat="43.19047" lon="5.55611">
        <ele>306.8</ele>
        <time>2019-04-20T16:09:27Z</time>
      </trkpt>
      <trkpt lat="43.19046" lon="5.55621">
        <ele>308.72</ele>
        <time>2019-04-20T16:09:38Z</time>
      </trkpt>
      <trkpt lat="43.19044" lon="5.55631">
        <ele>310.16</ele>
        <time>2019-04-20T16:09:48Z</time>
      </trkpt>
      <trkpt lat="43.19043" lon="5.55632">
        <ele>310.64</ele>
        <time>2019-04-20T16:09:49Z</time>
      </trkpt>
      <trkpt lat="43.19042" lon="5.55632">
        <ele>310.64</ele>
        <time>2019-04-20T16:09:50Z</time>
      </trkpt>
      <trkpt lat="43.19039" lon="5.55637">
        <ele>312.57</ele>
        <time>2019-04-20T16:09:59Z</time>
      </trkpt>
      <trkpt lat="43.19038" lon="5.55644">
        <ele>314.01</ele>
        <time>2019-04-20T16:10:08Z</time>
      </trkpt>
      <trkpt lat="43.19034" lon="5.55651">
        <ele>316.41</ele>
        <time>2019-04-20T16:10:18Z</time>
      </trkpt>
      <trkpt lat="43.19032" lon="5.55652">
        <ele>318.33</ele>
        <time>2019-04-20T16:10:27Z</time>
      </trkpt>
      <trkpt lat="43.1903" lon="5.55657">
        <ele>320.26</ele>
        <time>2019-04-20T16:10:37Z</time>
      </trkpt>
      <trkpt lat="43.19028" lon="5.55664">
        <ele>321.7</ele>
        <time>2019-04-20T16:10:48Z</time>
      </trkpt>
      <trkpt lat="43.19026" lon="5.55666">
        <ele>323.14</ele>
        <time>2019-04-20T16:10:52Z</time>
      </trkpt>
      <trkpt lat="43.19025" lon="5.55666">
        <ele>323.62</ele>
        <time>2019-04-20T16:10:53Z</time>
      </trkpt>
      <trkpt lat="43.19024" lon="5.55666">
        <ele>323.62</ele>
        <time>2019-04-20T16:10:54Z</time>
      </trkpt>
      <trkpt lat="43.19021" lon="5.55669">
        <ele>326.02</ele>
        <time>2019-04-20T16:11:04Z</time>
      </trkpt>
      <trkpt lat="43.19021" lon="5.55671">
        <ele>326.5</ele>
        <time>2019-04-20T16:11:07Z</time>
      </trkpt>
      <trkpt lat="43.19019" lon="5.5568">
        <ele>327.95</ele>
        <time>2019-04-20T16:11:18Z</time>
      </trkpt>
      <trkpt lat="43.19018" lon="5.55682">
        <ele>328.91</ele>
        <time>2019-04-20T16:11:20Z</time>
      </trkpt>
      <trkpt lat="43.19017" lon="5.55688">
        <ele>330.35</ele>
        <time>2019-04-20T16:11:31Z</time>
      </trkpt>
      <trkpt lat="43.19016" lon="5.55698">
        <ele>332.75</ele>
        <time>2019-04-20T16:11:45Z</time>
      </trkpt>
      <trkpt lat="43.19015" lon="5.55704">
        <ele>334.68</ele>
        <time>2019-04-20T16:11:57Z</time>
      </trkpt>
      <trkpt lat="43.19014" lon="5.5571">
        <ele>336.12</ele>
        <time>2019-04-20T16:12:05Z</time>
      </trkpt>
      <trkpt lat="43.19015" lon="5.55716">
        <ele>338.52</ele>
        <time>2019-04-20T16:12:16Z</time>
      </trkpt>
      <trkpt lat="43.19014" lon="5.55727">
        <ele>340.92</ele>
        <time>2019-04-20T16:12:29Z</time>
      </trkpt>
      <trkpt lat="43.19018" lon="5.5574">
        <ele>342.85</ele>
        <time>2019-04-20T16:12:43Z</time>
      </trkpt>
      <trkpt lat="43.19019" lon="5.55748">
        <ele>344.77</ele>
        <time>2019-04-20T16:12:51Z</time>
      </trkpt>
      <trkpt lat="43.19014" lon="5.55753">
        <ele>348.13</ele>
        <time>2019-04-20T16:12:58Z</time>
      </trkpt>
      <trkpt lat="43.1901" lon="5.55753">
        <ele>346.21</ele>
        <time>2019-04-20T16:13:14Z</time>
      </trkpt>
      <trkpt lat="43.19001" lon="5.55756">
        <ele>347.17</ele>
        <time>2019-04-20T16:13:27Z</time>
      </trkpt>
      <trkpt lat="43.18997" lon="5.55758">
        <ele>346.21</ele>
        <time>2019-04-20T16:13:33Z</time>
      </trkpt>
      <trkpt lat="43.18996" lon="5.55757">
        <ele>349.1</ele>
        <time>2019-04-20T16:13:40Z</time>
      </trkpt>
      <trkpt lat="43.18996" lon="5.55757">
        <ele>347.65</ele>
        <time>2019-04-20T16:13:54Z</time>
      </trkpt>
      <trkpt lat="43.18997" lon="5.55756">
        <ele>347.17</ele>
        <time>2019-04-20T16:14:05Z</time>
      </trkpt>
      <trkpt lat="43.18999" lon="5.55759">
        <ele>346.69</ele>
        <time>2019-04-20T16:14:17Z</time>
      </trkpt>
      <trkpt lat="43.19006" lon="5.55768">
        <ele>345.73</ele>
        <time>2019-04-20T16:14:24Z</time>
      </trkpt>
      <trkpt lat="43.19006" lon="5.5577">
        <ele>345.73</ele>
        <time>2019-04-20T16:14:25Z</time>
      </trkpt>
      <trkpt lat="43.19005" lon="5.55772">
        <ele>346.21</ele>
        <time>2019-04-20T16:14:26Z</time>
      </trkpt>
      <trkpt lat="43.19" lon="5.55775">
        <ele>345.25</ele>
        <time>2019-04-20T16:14:34Z</time>
      </trkpt>
      <trkpt lat="43.18998" lon="5.55775">
        <ele>344.77</ele>
        <time>2019-04-20T16:14:35Z</time>
      </trkpt>
      <trkpt lat="43.18996" lon="5.55778">
        <ele>343.81</ele>
        <time>2019-04-20T16:14:39Z</time>
      </trkpt>
      <trkpt lat="43.1899" lon="5.5578">
        <ele>340.92</ele>
        <time>2019-04-20T16:14:50Z</time>
      </trkpt>
      <trkpt lat="43.18987" lon="5.55782">
        <ele>339.96</ele>
        <time>2019-04-20T16:14:55Z</time>
      </trkpt>
      <trkpt lat="43.18981" lon="5.55784">
        <ele>337.56</ele>
        <time>2019-04-20T16:15:04Z</time>
      </trkpt>
      <trkpt lat="43.18977" lon="5.55784">
        <ele>337.08</ele>
        <time>2019-04-20T16:15:07Z</time>
      </trkpt>
      <trkpt lat="43.18976" lon="5.55785">
        <ele>337.08</ele>
        <time>2019-04-20T16:15:08Z</time>
      </trkpt>
      <trkpt lat="43.18975" lon="5.55785">
        <ele>337.08</ele>
        <time>2019-04-20T16:15:09Z</time>
      </trkpt>
      <trkpt lat="43.18974" lon="5.55785">
        <ele>336.6</ele>
        <time>2019-04-20T16:15:10Z</time>
      </trkpt>
      <trkpt lat="43.18973" lon="5.55784">
        <ele>336.12</ele>
        <time>2019-04-20T16:15:11Z</time>
      </trkpt>
      <trkpt lat="43.18966" lon="5.55785">
        <ele>333.71</ele>
        <time>2019-04-20T16:15:21Z</time>
      </trkpt>
      <trkpt lat="43.18965" lon="5.55784">
        <ele>333.71</ele>
        <time>2019-04-20T16:15:22Z</time>
      </trkpt>
      <trkpt lat="43.18957" lon="5.55788">
        <ele>331.79</ele>
        <time>2019-04-20T16:15:34Z</time>
      </trkpt>
      <trkpt lat="43.18955" lon="5.55787">
        <ele>333.23</ele>
        <time>2019-04-20T16:15:35Z</time>
      </trkpt>
      <trkpt lat="43.1895" lon="5.55786">
        <ele>331.79</ele>
        <time>2019-04-20T16:15:39Z</time>
      </trkpt>
      <trkpt lat="43.18949" lon="5.55786">
        <ele>331.31</ele>
        <time>2019-04-20T16:15:40Z</time>
      </trkpt>
      <trkpt lat="43.18948" lon="5.55787">
        <ele>330.83</ele>
        <time>2019-04-20T16:15:41Z</time>
      </trkpt>
      <trkpt lat="43.1894" lon="5.55788">
        <ele>328.43</ele>
        <time>2019-04-20T16:15:52Z</time>
      </trkpt>
      <trkpt lat="43.18934" lon="5.55788">
        <ele>326.5</ele>
        <time>2019-04-20T16:16:07Z</time>
      </trkpt>
      <trkpt lat="43.18932" lon="5.55789">
        <ele>325.06</ele>
        <time>2019-04-20T16:16:11Z</time>
      </trkpt>
      <trkpt lat="43.18917" lon="5.55794">
        <ele>324.58</ele>
        <time>2019-04-20T16:16:27Z</time>
      </trkpt>
      <trkpt lat="43.18901" lon="5.55789">
        <ele>323.14</ele>
        <time>2019-04-20T16:16:40Z</time>
      </trkpt>
      <trkpt lat="43.18894" lon="5.5579">
        <ele>322.18</ele>
        <time>2019-04-20T16:16:56Z</time>
      </trkpt>
      <trkpt lat="43.18893" lon="5.5579">
        <ele>322.66</ele>
        <time>2019-04-20T16:17:11Z</time>
      </trkpt>
      <trkpt lat="43.18891" lon="5.55789">
        <ele>321.7</ele>
        <time>2019-04-20T16:17:25Z</time>
      </trkpt>
      <trkpt lat="43.18887" lon="5.5579">
        <ele>321.22</ele>
        <time>2019-04-20T16:17:32Z</time>
      </trkpt>
      <trkpt lat="43.18886" lon="5.55789">
        <ele>321.7</ele>
        <time>2019-04-20T16:17:33Z</time>
      </trkpt>
      <trkpt lat="43.18881" lon="5.55788">
        <ele>320.26</ele>
        <time>2019-04-20T16:17:38Z</time>
      </trkpt>
      <trkpt lat="43.1888" lon="5.55789">
        <ele>319.78</ele>
        <time>2019-04-20T16:17:39Z</time>
      </trkpt>
      <trkpt lat="43.18879" lon="5.5579">
        <ele>319.3</ele>
        <time>2019-04-20T16:17:40Z</time>
      </trkpt>
      <trkpt lat="43.18877" lon="5.55791">
        <ele>319.78</ele>
        <time>2019-04-20T16:17:41Z</time>
      </trkpt>
      <trkpt lat="43.18875" lon="5.55792">
        <ele>321.22</ele>
        <time>2019-04-20T16:17:44Z</time>
      </trkpt>
      <trkpt lat="43.18874" lon="5.55791">
        <ele>320.26</ele>
        <time>2019-04-20T16:18:00Z</time>
      </trkpt>
      <trkpt lat="43.18875" lon="5.5579">
        <ele>321.22</ele>
        <time>2019-04-20T16:18:26Z</time>
      </trkpt>
      <trkpt lat="43.18875" lon="5.5579">
        <ele>319.3</ele>
        <time>2019-04-20T16:18:46Z</time>
      </trkpt>
      <trkpt lat="43.18872" lon="5.55793">
        <ele>319.78</ele>
        <time>2019-04-20T16:18:53Z</time>
      </trkpt>
      <trkpt lat="43.18871" lon="5.55794">
        <ele>320.26</ele>
        <time>2019-04-20T16:18:54Z</time>
      </trkpt>
      <trkpt lat="43.18864" lon="5.558">
        <ele>318.33</ele>
        <time>2019-04-20T16:19:01Z</time>
      </trkpt>
      <trkpt lat="43.18863" lon="5.55801">
        <ele>318.33</ele>
        <time>2019-04-20T16:19:02Z</time>
      </trkpt>
      <trkpt lat="43.18861" lon="5.55802">
        <ele>317.85</ele>
        <time>2019-04-20T16:19:03Z</time>
      </trkpt>
      <trkpt lat="43.18857" lon="5.55804">
        <ele>317.37</ele>
        <time>2019-04-20T16:19:14Z</time>
      </trkpt>
      <trkpt lat="43.18857" lon="5.55807">
        <ele>316.41</ele>
        <time>2019-04-20T16:19:26Z</time>
      </trkpt>
      <trkpt lat="43.1885" lon="5.55813">
        <ele>316.89</ele>
        <time>2019-04-20T16:19:36Z</time>
      </trkpt>
      <trkpt lat="43.18844" lon="5.5582">
        <ele>317.37</ele>
        <time>2019-04-20T16:19:53Z</time>
      </trkpt>
      <trkpt lat="43.18839" lon="5.55826">
        <ele>318.81</ele>
        <time>2019-04-20T16:20:00Z</time>
      </trkpt>
      <trkpt lat="43.18838" lon="5.55826">
        <ele>318.33</ele>
        <time>2019-04-20T16:20:01Z</time>
      </trkpt>
      <trkpt lat="43.18837" lon="5.55827">
        <ele>318.33</ele>
        <time>2019-04-20T16:20:02Z</time>
      </trkpt>
      <trkpt lat="43.18834" lon="5.5583">
        <ele>320.26</ele>
        <time>2019-04-20T16:20:06Z</time>
      </trkpt>
      <trkpt lat="43.18832" lon="5.5583">
        <ele>320.26</ele>
        <time>2019-04-20T16:20:07Z</time>
      </trkpt>
      <trkpt lat="43.1883" lon="5.5583">
        <ele>320.74</ele>
        <time>2019-04-20T16:20:08Z</time>
      </trkpt>
      <trkpt lat="43.18829" lon="5.55831">
        <ele>321.22</ele>
        <time>2019-04-20T16:20:09Z</time>
      </trkpt>
      <trkpt lat="43.18821" lon="5.5584">
        <ele>322.66</ele>
        <time>2019-04-20T16:20:19Z</time>
      </trkpt>
      <trkpt lat="43.18818" lon="5.55845">
        <ele>323.62</ele>
        <time>2019-04-20T16:20:31Z</time>
      </trkpt>
      <trkpt lat="43.1882" lon="5.55844">
        <ele>323.62</ele>
        <time>2019-04-20T16:20:46Z</time>
      </trkpt>
      <trkpt lat="43.18819" lon="5.55844">
        <ele>321.7</ele>
        <time>2019-04-20T16:21:02Z</time>
      </trkpt>
      <trkpt lat="43.18819" lon="5.55842">
        <ele>322.66</ele>
        <time>2019-04-20T16:21:28Z</time>
      </trkpt>
      <trkpt lat="43.18825" lon="5.5585">
        <ele>322.66</ele>
        <time>2019-04-20T16:21:41Z</time>
      </trkpt>
      <trkpt lat="43.18826" lon="5.55861">
        <ele>323.14</ele>
        <time>2019-04-20T16:21:54Z</time>
      </trkpt>
      <trkpt lat="43.18824" lon="5.55864">
        <ele>323.14</ele>
        <time>2019-04-20T16:21:57Z</time>
      </trkpt>
      <trkpt lat="43.18821" lon="5.55873">
        <ele>325.06</ele>
        <time>2019-04-20T16:22:11Z</time>
      </trkpt>
      <trkpt lat="43.18816" lon="5.55885">
        <ele>327.95</ele>
        <time>2019-04-20T16:22:26Z</time>
      </trkpt>
      <trkpt lat="43.18811" lon="5.5589">
        <ele>330.35</ele>
        <time>2019-04-20T16:22:37Z</time>
      </trkpt>
      <trkpt lat="43.18813" lon="5.55891">
        <ele>330.35</ele>
        <time>2019-04-20T16:22:45Z</time>
      </trkpt>
      <trkpt lat="43.18816" lon="5.55899">
        <ele>330.35</ele>
        <time>2019-04-20T16:22:56Z</time>
      </trkpt>
      <trkpt lat="43.18816" lon="5.55901">
        <ele>330.83</ele>
        <time>2019-04-20T16:22:57Z</time>
      </trkpt>
      <trkpt lat="43.18814" lon="5.55913">
        <ele>333.23</ele>
        <time>2019-04-20T16:23:09Z</time>
      </trkpt>
      <trkpt lat="43.18811" lon="5.55927">
        <ele>335.64</ele>
        <time>2019-04-20T16:23:24Z</time>
      </trkpt>
      <trkpt lat="43.1881" lon="5.55932">
        <ele>339.48</ele>
        <time>2019-04-20T16:23:36Z</time>
      </trkpt>
      <trkpt lat="43.1881" lon="5.55935">
        <ele>339.48</ele>
        <time>2019-04-20T16:23:37Z</time>
      </trkpt>
      <trkpt lat="43.18809" lon="5.55937">
        <ele>340.92</ele>
        <time>2019-04-20T16:23:39Z</time>
      </trkpt>
      <trkpt lat="43.18807" lon="5.55941">
        <ele>340.92</ele>
        <time>2019-04-20T16:23:42Z</time>
      </trkpt>
      <trkpt lat="43.18806" lon="5.55944">
        <ele>342.37</ele>
        <time>2019-04-20T16:23:44Z</time>
      </trkpt>
      <trkpt lat="43.18806" lon="5.55945">
        <ele>342.37</ele>
        <time>2019-04-20T16:23:45Z</time>
      </trkpt>
      <trkpt lat="43.18806" lon="5.55949">
        <ele>343.33</ele>
        <time>2019-04-20T16:23:47Z</time>
      </trkpt>
      <trkpt lat="43.18806" lon="5.55951">
        <ele>343.81</ele>
        <time>2019-04-20T16:23:48Z</time>
      </trkpt>
      <trkpt lat="43.18803" lon="5.55956">
        <ele>345.25</ele>
        <time>2019-04-20T16:23:52Z</time>
      </trkpt>
      <trkpt lat="43.18802" lon="5.55957">
        <ele>345.25</ele>
        <time>2019-04-20T16:23:53Z</time>
      </trkpt>
      <trkpt lat="43.18801" lon="5.55959">
        <ele>345.25</ele>
        <time>2019-04-20T16:23:54Z</time>
      </trkpt>
      <trkpt lat="43.188" lon="5.55963">
        <ele>345.73</ele>
        <time>2019-04-20T16:23:58Z</time>
      </trkpt>
      <trkpt lat="43.18797" lon="5.55969">
        <ele>348.13</ele>
        <time>2019-04-20T16:24:05Z</time>
      </trkpt>
      <trkpt lat="43.18798" lon="5.55971">
        <ele>348.62</ele>
        <time>2019-04-20T16:24:13Z</time>
      </trkpt>
      <trkpt lat="43.18796" lon="5.55976">
        <ele>349.1</ele>
        <time>2019-04-20T16:24:18Z</time>
      </trkpt>
      <trkpt lat="43.18795" lon="5.55978">
        <ele>350.06</ele>
        <time>2019-04-20T16:24:20Z</time>
      </trkpt>
      <trkpt lat="43.18788" lon="5.55991">
        <ele>352.94</ele>
        <time>2019-04-20T16:24:38Z</time>
      </trkpt>
      <trkpt lat="43.18784" lon="5.56003">
        <ele>355.83</ele>
        <time>2019-04-20T16:24:50Z</time>
      </trkpt>
      <trkpt lat="43.18783" lon="5.56005">
        <ele>355.83</ele>
        <time>2019-04-20T16:24:52Z</time>
      </trkpt>
      <trkpt lat="43.1878" lon="5.56009">
        <ele>356.79</ele>
        <time>2019-04-20T16:24:58Z</time>
      </trkpt>
      <trkpt lat="43.18779" lon="5.56012">
        <ele>357.27</ele>
        <time>2019-04-20T16:24:59Z</time>
      </trkpt>
      <trkpt lat="43.18774" lon="5.5602">
        <ele>356.79</ele>
        <time>2019-04-20T16:25:14Z</time>
      </trkpt>
      <trkpt lat="43.18771" lon="5.56021">
        <ele>356.79</ele>
        <time>2019-04-20T16:25:26Z</time>
      </trkpt>
      <trkpt lat="43.18764" lon="5.56021">
        <ele>355.83</ele>
        <time>2019-04-20T16:25:35Z</time>
      </trkpt>
      <trkpt lat="43.18762" lon="5.56021">
        <ele>356.31</ele>
        <time>2019-04-20T16:25:36Z</time>
      </trkpt>
      <trkpt lat="43.18758" lon="5.56021">
        <ele>358.23</ele>
        <time>2019-04-20T16:25:40Z</time>
      </trkpt>
      <trkpt lat="43.1875" lon="5.56021">
        <ele>357.27</ele>
        <time>2019-04-20T16:25:52Z</time>
      </trkpt>
      <trkpt lat="43.18749" lon="5.5602">
        <ele>356.31</ele>
        <time>2019-04-20T16:26:01Z</time>
      </trkpt>
      <trkpt lat="43.18749" lon="5.56021">
        <ele>356.79</ele>
        <time>2019-04-20T16:26:20Z</time>
      </trkpt>
      <trkpt lat="43.1875" lon="5.56022">
        <ele>358.23</ele>
        <time>2019-04-20T16:26:37Z</time>
      </trkpt>
      <trkpt lat="43.18749" lon="5.56022">
        <ele>357.75</ele>
        <time>2019-04-20T16:26:54Z</time>
      </trkpt>
      <trkpt lat="43.18743" lon="5.56026">
        <ele>359.19</ele>
        <time>2019-04-20T16:27:08Z</time>
      </trkpt>
      <trkpt lat="43.1874" lon="5.56027">
        <ele>360.63</ele>
        <time>2019-04-20T16:27:14Z</time>
      </trkpt>
      <trkpt lat="43.18742" lon="5.56023">
        <ele>360.15</ele>
        <time>2019-04-20T16:27:28Z</time>
      </trkpt>
      <trkpt lat="43.18744" lon="5.56023">
        <ele>359.67</ele>
        <time>2019-04-20T16:27:43Z</time>
      </trkpt>
      <trkpt lat="43.18745" lon="5.5602">
        <ele>359.67</ele>
        <time>2019-04-20T16:28:03Z</time>
      </trkpt>
      <trkpt lat="43.18747" lon="5.5602">
        <ele>358.71</ele>
        <time>2019-04-20T16:28:08Z</time>
      </trkpt>
      <trkpt lat="43.18751" lon="5.5603">
        <ele>358.23</ele>
        <time>2019-04-20T16:28:19Z</time>
      </trkpt>
      <trkpt lat="43.18753" lon="5.56031">
        <ele>357.75</ele>
        <time>2019-04-20T16:28:21Z</time>
      </trkpt>
      <trkpt lat="43.18756" lon="5.56033">
        <ele>355.34</ele>
        <time>2019-04-20T16:28:28Z</time>
      </trkpt>
      <trkpt lat="43.18757" lon="5.56035">
        <ele>354.38</ele>
        <time>2019-04-20T16:28:32Z</time>
      </trkpt>
      <trkpt lat="43.18759" lon="5.56035">
        <ele>353.42</ele>
        <time>2019-04-20T16:28:34Z</time>
      </trkpt>
      <trkpt lat="43.18764" lon="5.56042">
        <ele>349.1</ele>
        <time>2019-04-20T16:28:48Z</time>
      </trkpt>
      <trkpt lat="43.18764" lon="5.56043">
        <ele>348.13</ele>
        <time>2019-04-20T16:28:49Z</time>
      </trkpt>
      <trkpt lat="43.18754" lon="5.56047">
        <ele>345.73</ele>
        <time>2019-04-20T16:29:03Z</time>
      </trkpt>
      <trkpt lat="43.1875" lon="5.56052">
        <ele>344.29</ele>
        <time>2019-04-20T16:29:10Z</time>
      </trkpt>
      <trkpt lat="43.1874" lon="5.56056">
        <ele>342.85</ele>
        <time>2019-04-20T16:29:16Z</time>
      </trkpt>
      <trkpt lat="43.18734" lon="5.56061">
        <ele>343.33</ele>
        <time>2019-04-20T16:29:31Z</time>
      </trkpt>
      <trkpt lat="43.18733" lon="5.56063">
        <ele>342.37</ele>
        <time>2019-04-20T16:29:36Z</time>
      </trkpt>
      <trkpt lat="43.18726" lon="5.56074">
        <ele>341.41</ele>
        <time>2019-04-20T16:29:48Z</time>
      </trkpt>
      <trkpt lat="43.18727" lon="5.56075">
        <ele>340.44</ele>
        <time>2019-04-20T16:29:52Z</time>
      </trkpt>
      <trkpt lat="43.18723" lon="5.56075">
        <ele>341.41</ele>
        <time>2019-04-20T16:30:13Z</time>
      </trkpt>
      <trkpt lat="43.18724" lon="5.56076">
        <ele>340.44</ele>
        <time>2019-04-20T16:30:27Z</time>
      </trkpt>
      <trkpt lat="43.18723" lon="5.56081">
        <ele>339.96</ele>
        <time>2019-04-20T16:30:41Z</time>
      </trkpt>
      <trkpt lat="43.18718" lon="5.56094">
        <ele>337.56</ele>
        <time>2019-04-20T16:30:53Z</time>
      </trkpt>
      <trkpt lat="43.18707" lon="5.56108">
        <ele>335.16</ele>
        <time>2019-04-20T16:31:05Z</time>
      </trkpt>
      <trkpt lat="43.18704" lon="5.56111">
        <ele>334.68</ele>
        <time>2019-04-20T16:31:10Z</time>
      </trkpt>
      <trkpt lat="43.18699" lon="5.56114">
        <ele>332.27</ele>
        <time>2019-04-20T16:31:16Z</time>
      </trkpt>
      <trkpt lat="43.18686" lon="5.56118">
        <ele>329.39</ele>
        <time>2019-04-20T16:31:29Z</time>
      </trkpt>
      <trkpt lat="43.18679" lon="5.56121">
        <ele>326.5</ele>
        <time>2019-04-20T16:31:40Z</time>
      </trkpt>
      <trkpt lat="43.18672" lon="5.56123">
        <ele>325.06</ele>
        <time>2019-04-20T16:31:47Z</time>
      </trkpt>
      <trkpt lat="43.18664" lon="5.56124">
        <ele>322.66</ele>
        <time>2019-04-20T16:31:55Z</time>
      </trkpt>
      <trkpt lat="43.18661" lon="5.56126">
        <ele>321.7</ele>
        <time>2019-04-20T16:31:59Z</time>
      </trkpt>
      <trkpt lat="43.18648" lon="5.56122">
        <ele>320.74</ele>
        <time>2019-04-20T16:32:11Z</time>
      </trkpt>
      <trkpt lat="43.18647" lon="5.56123">
        <ele>320.26</ele>
        <time>2019-04-20T16:32:24Z</time>
      </trkpt>
      <trkpt lat="43.18646" lon="5.56124">
        <ele>320.26</ele>
        <time>2019-04-20T16:32:25Z</time>
      </trkpt>
      <trkpt lat="43.18645" lon="5.56125">
        <ele>320.26</ele>
        <time>2019-04-20T16:32:26Z</time>
      </trkpt>
      <trkpt lat="43.18642" lon="5.56124">
        <ele>321.22</ele>
        <time>2019-04-20T16:32:37Z</time>
      </trkpt>
      <trkpt lat="43.18638" lon="5.56124">
        <ele>319.78</ele>
        <time>2019-04-20T16:32:49Z</time>
      </trkpt>
      <trkpt lat="43.18637" lon="5.56125">
        <ele>319.3</ele>
        <time>2019-04-20T16:32:52Z</time>
      </trkpt>
      <trkpt lat="43.18636" lon="5.56125">
        <ele>319.78</ele>
        <time>2019-04-20T16:32:53Z</time>
      </trkpt>
      <trkpt lat="43.18634" lon="5.56125">
        <ele>319.78</ele>
        <time>2019-04-20T16:32:54Z</time>
      </trkpt>
      <trkpt lat="43.18627" lon="5.56127">
        <ele>319.78</ele>
        <time>2019-04-20T16:33:03Z</time>
      </trkpt>
      <trkpt lat="43.18622" lon="5.56131">
        <ele>319.78</ele>
        <time>2019-04-20T16:33:07Z</time>
      </trkpt>
      <trkpt lat="43.18621" lon="5.56132">
        <ele>319.78</ele>
        <time>2019-04-20T16:33:08Z</time>
      </trkpt>
      <trkpt lat="43.1862" lon="5.56132">
        <ele>320.74</ele>
        <time>2019-04-20T16:33:09Z</time>
      </trkpt>
      <trkpt lat="43.18619" lon="5.56133">
        <ele>319.3</ele>
        <time>2019-04-20T16:33:10Z</time>
      </trkpt>
      <trkpt lat="43.18618" lon="5.56134">
        <ele>319.3</ele>
        <time>2019-04-20T16:33:11Z</time>
      </trkpt>
      <trkpt lat="43.18614" lon="5.56135">
        <ele>320.26</ele>
        <time>2019-04-20T16:33:16Z</time>
      </trkpt>
      <trkpt lat="43.18602" lon="5.5614">
        <ele>322.66</ele>
        <time>2019-04-20T16:33:29Z</time>
      </trkpt>
      <trkpt lat="43.18601" lon="5.56142">
        <ele>322.66</ele>
        <time>2019-04-20T16:33:31Z</time>
      </trkpt>
      <trkpt lat="43.186" lon="5.56143">
        <ele>323.14</ele>
        <time>2019-04-20T16:33:32Z</time>
      </trkpt>
      <trkpt lat="43.18592" lon="5.56157">
        <ele>323.14</ele>
        <time>2019-04-20T16:33:46Z</time>
      </trkpt>
      <trkpt lat="43.18593" lon="5.56157">
        <ele>324.1</ele>
        <time>2019-04-20T16:34:00Z</time>
      </trkpt>
      <trkpt lat="43.18597" lon="5.56159">
        <ele>322.66</ele>
        <time>2019-04-20T16:34:15Z</time>
      </trkpt>
      <trkpt lat="43.18594" lon="5.56158">
        <ele>322.18</ele>
        <time>2019-04-20T16:34:31Z</time>
      </trkpt>
      <trkpt lat="43.18593" lon="5.56162">
        <ele>322.18</ele>
        <time>2019-04-20T16:34:45Z</time>
      </trkpt>
      <trkpt lat="43.18591" lon="5.56165">
        <ele>322.66</ele>
        <time>2019-04-20T16:34:50Z</time>
      </trkpt>
      <trkpt lat="43.1859" lon="5.56167">
        <ele>323.14</ele>
        <time>2019-04-20T16:34:51Z</time>
      </trkpt>
      <trkpt lat="43.1859" lon="5.56173">
        <ele>322.66</ele>
        <time>2019-04-20T16:34:56Z</time>
      </trkpt>
      <trkpt lat="43.1859" lon="5.56176">
        <ele>322.66</ele>
        <time>2019-04-20T16:34:57Z</time>
      </trkpt>
      <trkpt lat="43.18589" lon="5.56179">
        <ele>322.66</ele>
        <time>2019-04-20T16:35:01Z</time>
      </trkpt>
      <trkpt lat="43.18589" lon="5.5618">
        <ele>323.14</ele>
        <time>2019-04-20T16:35:02Z</time>
      </trkpt>
      <trkpt lat="43.18581" lon="5.56186">
        <ele>325.06</ele>
        <time>2019-04-20T16:35:14Z</time>
      </trkpt>
      <trkpt lat="43.18581" lon="5.56186">
        <ele>325.54</ele>
        <time>2019-04-20T16:35:16Z</time>
      </trkpt>
      <trkpt lat="43.18579" lon="5.56184">
        <ele>326.02</ele>
        <time>2019-04-20T16:35:26Z</time>
      </trkpt>
      <trkpt lat="43.18581" lon="5.56182">
        <ele>326.02</ele>
        <time>2019-04-20T16:35:42Z</time>
      </trkpt>
      <trkpt lat="43.1858" lon="5.56186">
        <ele>326.02</ele>
        <time>2019-04-20T16:35:48Z</time>
      </trkpt>
      <trkpt lat="43.18579" lon="5.56187">
        <ele>325.54</ele>
        <time>2019-04-20T16:35:49Z</time>
      </trkpt>
      <trkpt lat="43.18578" lon="5.56194">
        <ele>326.99</ele>
        <time>2019-04-20T16:35:54Z</time>
      </trkpt>
      <trkpt lat="43.18576" lon="5.56202">
        <ele>328.43</ele>
        <time>2019-04-20T16:36:01Z</time>
      </trkpt>
      <trkpt lat="43.18572" lon="5.56208">
        <ele>331.31</ele>
        <time>2019-04-20T16:36:12Z</time>
      </trkpt>
      <trkpt lat="43.18571" lon="5.56208">
        <ele>332.75</ele>
        <time>2019-04-20T16:36:13Z</time>
      </trkpt>
      <trkpt lat="43.18566" lon="5.56214">
        <ele>333.23</ele>
        <time>2019-04-20T16:36:24Z</time>
      </trkpt>
      <trkpt lat="43.18566" lon="5.56215">
        <ele>333.23</ele>
        <time>2019-04-20T16:36:25Z</time>
      </trkpt>
      <trkpt lat="43.18566" lon="5.56217">
        <ele>333.23</ele>
        <time>2019-04-20T16:36:26Z</time>
      </trkpt>
      <trkpt lat="43.18565" lon="5.56218">
        <ele>333.23</ele>
        <time>2019-04-20T16:36:27Z</time>
      </trkpt>
      <trkpt lat="43.18563" lon="5.56223">
        <ele>333.71</ele>
        <time>2019-04-20T16:36:31Z</time>
      </trkpt>
      <trkpt lat="43.18563" lon="5.56225">
        <ele>333.23</ele>
        <time>2019-04-20T16:36:32Z</time>
      </trkpt>
      <trkpt lat="43.18562" lon="5.56226">
        <ele>333.23</ele>
        <time>2019-04-20T16:36:33Z</time>
      </trkpt>
      <trkpt lat="43.18561" lon="5.56228">
        <ele>334.2</ele>
        <time>2019-04-20T16:36:34Z</time>
      </trkpt>
      <trkpt lat="43.18561" lon="5.56229">
        <ele>334.2</ele>
        <time>2019-04-20T16:36:35Z</time>
      </trkpt>
      <trkpt lat="43.1856" lon="5.56231">
        <ele>334.68</ele>
        <time>2019-04-20T16:36:36Z</time>
      </trkpt>
      <trkpt lat="43.1856" lon="5.56233">
        <ele>334.2</ele>
        <time>2019-04-20T16:36:37Z</time>
      </trkpt>
      <trkpt lat="43.18558" lon="5.56251">
        <ele>333.71</ele>
        <time>2019-04-20T16:36:49Z</time>
      </trkpt>
      <trkpt lat="43.18557" lon="5.56253">
        <ele>333.71</ele>
        <time>2019-04-20T16:36:50Z</time>
      </trkpt>
      <trkpt lat="43.18556" lon="5.56255">
        <ele>333.23</ele>
        <time>2019-04-20T16:36:51Z</time>
      </trkpt>
      <trkpt lat="43.18549" lon="5.56272">
        <ele>330.35</ele>
        <time>2019-04-20T16:37:03Z</time>
      </trkpt>
      <trkpt lat="43.18535" lon="5.56277">
        <ele>328.91</ele>
        <time>2019-04-20T16:37:14Z</time>
      </trkpt>
      <trkpt lat="43.18534" lon="5.56276">
        <ele>328.91</ele>
        <time>2019-04-20T16:37:15Z</time>
      </trkpt>
      <trkpt lat="43.18533" lon="5.56276">
        <ele>328.91</ele>
        <time>2019-04-20T16:37:16Z</time>
      </trkpt>
      <trkpt lat="43.18532" lon="5.56275">
        <ele>329.39</ele>
        <time>2019-04-20T16:37:17Z</time>
      </trkpt>
      <trkpt lat="43.18531" lon="5.56275">
        <ele>328.43</ele>
        <time>2019-04-20T16:37:18Z</time>
      </trkpt>
      <trkpt lat="43.18529" lon="5.56276">
        <ele>327.95</ele>
        <time>2019-04-20T16:37:20Z</time>
      </trkpt>
      <trkpt lat="43.18527" lon="5.56276">
        <ele>328.43</ele>
        <time>2019-04-20T16:37:21Z</time>
      </trkpt>
      <trkpt lat="43.18525" lon="5.56276">
        <ele>328.43</ele>
        <time>2019-04-20T16:37:22Z</time>
      </trkpt>
      <trkpt lat="43.18524" lon="5.56275">
        <ele>327.95</ele>
        <time>2019-04-20T16:37:23Z</time>
      </trkpt>
      <trkpt lat="43.18523" lon="5.56275">
        <ele>328.43</ele>
        <time>2019-04-20T16:37:24Z</time>
      </trkpt>
      <trkpt lat="43.18524" lon="5.56269">
        <ele>328.91</ele>
        <time>2019-04-20T16:37:34Z</time>
      </trkpt>
      <trkpt lat="43.18527" lon="5.56274">
        <ele>328.43</ele>
        <time>2019-04-20T16:37:47Z</time>
      </trkpt>
      <trkpt lat="43.18527" lon="5.56276">
        <ele>327.95</ele>
        <time>2019-04-20T16:37:58Z</time>
      </trkpt>
      <trkpt lat="43.18523" lon="5.56277">
        <ele>327.47</ele>
        <time>2019-04-20T16:38:02Z</time>
      </trkpt>
      <trkpt lat="43.18518" lon="5.56276">
        <ele>326.99</ele>
        <time>2019-04-20T16:38:09Z</time>
      </trkpt>
      <trkpt lat="43.18517" lon="5.5627">
        <ele>326.99</ele>
        <time>2019-04-20T16:38:18Z</time>
      </trkpt>
      <trkpt lat="43.18516" lon="5.56273">
        <ele>326.99</ele>
        <time>2019-04-20T16:38:34Z</time>
      </trkpt>
      <trkpt lat="43.18516" lon="5.56274">
        <ele>326.02</ele>
        <time>2019-04-20T16:38:35Z</time>
      </trkpt>
      <trkpt lat="43.18515" lon="5.56278">
        <ele>325.54</ele>
        <time>2019-04-20T16:38:45Z</time>
      </trkpt>
      <trkpt lat="43.18514" lon="5.56278">
        <ele>326.02</ele>
        <time>2019-04-20T16:38:47Z</time>
      </trkpt>
      <trkpt lat="43.18508" lon="5.56282">
        <ele>323.14</ele>
        <time>2019-04-20T16:38:58Z</time>
      </trkpt>
      <trkpt lat="43.18504" lon="5.56285">
        <ele>323.14</ele>
        <time>2019-04-20T16:39:02Z</time>
      </trkpt>
      <trkpt lat="43.18503" lon="5.56286">
        <ele>322.66</ele>
        <time>2019-04-20T16:39:03Z</time>
      </trkpt>
      <trkpt lat="43.1849" lon="5.56291">
        <ele>322.66</ele>
        <time>2019-04-20T16:39:15Z</time>
      </trkpt>
      <trkpt lat="43.18482" lon="5.56296">
        <ele>323.14</ele>
        <time>2019-04-20T16:39:28Z</time>
      </trkpt>
      <trkpt lat="43.18473" lon="5.56301">
        <ele>325.54</ele>
        <time>2019-04-20T16:39:43Z</time>
      </trkpt>
      <trkpt lat="43.18466" lon="5.56309">
        <ele>327.47</ele>
        <time>2019-04-20T16:39:58Z</time>
      </trkpt>
      <trkpt lat="43.18458" lon="5.56316">
        <ele>330.83</ele>
        <time>2019-04-20T16:40:13Z</time>
      </trkpt>
      <trkpt lat="43.1845" lon="5.56318">
        <ele>333.71</ele>
        <time>2019-04-20T16:40:27Z</time>
      </trkpt>
      <trkpt lat="43.18449" lon="5.56324">
        <ele>336.6</ele>
        <time>2019-04-20T16:40:40Z</time>
      </trkpt>
      <trkpt lat="43.18443" lon="5.56328">
        <ele>339.96</ele>
        <time>2019-04-20T16:40:55Z</time>
      </trkpt>
      <trkpt lat="43.18438" lon="5.56331">
        <ele>343.33</ele>
        <time>2019-04-20T16:41:08Z</time>
      </trkpt>
      <trkpt lat="43.18434" lon="5.5634">
        <ele>345.73</ele>
        <time>2019-04-20T16:41:19Z</time>
      </trkpt>
      <trkpt lat="43.18432" lon="5.56342">
        <ele>347.17</ele>
        <time>2019-04-20T16:41:25Z</time>
      </trkpt>
      <trkpt lat="43.18426" lon="5.56345">
        <ele>349.1</ele>
        <time>2019-04-20T16:41:36Z</time>
      </trkpt>
      <trkpt lat="43.18423" lon="5.56346">
        <ele>350.54</ele>
        <time>2019-04-20T16:41:45Z</time>
      </trkpt>
      <trkpt lat="43.1842" lon="5.5635">
        <ele>352.46</ele>
        <time>2019-04-20T16:41:56Z</time>
      </trkpt>
      <trkpt lat="43.18419" lon="5.56352">
        <ele>352.46</ele>
        <time>2019-04-20T16:42:10Z</time>
      </trkpt>
      <trkpt lat="43.18419" lon="5.56348">
        <ele>352.94</ele>
        <time>2019-04-20T16:42:36Z</time>
      </trkpt>
      <trkpt lat="43.18419" lon="5.56349">
        <ele>353.42</ele>
        <time>2019-04-20T16:42:54Z</time>
      </trkpt>
      <trkpt lat="43.18421" lon="5.5635">
        <ele>354.38</ele>
        <time>2019-04-20T16:43:22Z</time>
      </trkpt>
      <trkpt lat="43.18417" lon="5.56349">
        <ele>354.38</ele>
        <time>2019-04-20T16:43:50Z</time>
      </trkpt>
      <trkpt lat="43.18418" lon="5.56353">
        <ele>353.42</ele>
        <time>2019-04-20T16:44:06Z</time>
      </trkpt>
      <trkpt lat="43.18416" lon="5.56359">
        <ele>352.46</ele>
        <time>2019-04-20T16:44:24Z</time>
      </trkpt>
      <trkpt lat="43.18415" lon="5.5636">
        <ele>352.94</ele>
        <time>2019-04-20T16:44:25Z</time>
      </trkpt>
      <trkpt lat="43.18413" lon="5.56367">
        <ele>352.94</ele>
        <time>2019-04-20T16:44:33Z</time>
      </trkpt>
      <trkpt lat="43.18414" lon="5.56369">
        <ele>352.46</ele>
        <time>2019-04-20T16:44:34Z</time>
      </trkpt>
      <trkpt lat="43.18414" lon="5.56372">
        <ele>352.94</ele>
        <time>2019-04-20T16:44:35Z</time>
      </trkpt>
      <trkpt lat="43.18415" lon="5.56373">
        <ele>352.94</ele>
        <time>2019-04-20T16:44:36Z</time>
      </trkpt>
      <trkpt lat="43.18415" lon="5.56374">
        <ele>355.34</ele>
        <time>2019-04-20T16:44:44Z</time>
      </trkpt>
      <trkpt lat="43.18411" lon="5.56376">
        <ele>356.79</ele>
        <time>2019-04-20T16:44:51Z</time>
      </trkpt>
      <trkpt lat="43.1841" lon="5.5638">
        <ele>358.23</ele>
        <time>2019-04-20T16:44:55Z</time>
      </trkpt>
      <trkpt lat="43.18408" lon="5.56386">
        <ele>358.71</ele>
        <time>2019-04-20T16:45:04Z</time>
      </trkpt>
      <trkpt lat="43.18406" lon="5.5639">
        <ele>359.67</ele>
        <time>2019-04-20T16:45:08Z</time>
      </trkpt>
      <trkpt lat="43.184" lon="5.56395">
        <ele>361.11</ele>
        <time>2019-04-20T16:45:19Z</time>
      </trkpt>
      <trkpt lat="43.184" lon="5.56397">
        <ele>362.07</ele>
        <time>2019-04-20T16:45:22Z</time>
      </trkpt>
      <trkpt lat="43.184" lon="5.56399">
        <ele>362.07</ele>
        <time>2019-04-20T16:45:25Z</time>
      </trkpt>
      <trkpt lat="43.184" lon="5.56401">
        <ele>361.59</ele>
        <time>2019-04-20T16:45:26Z</time>
      </trkpt>
      <trkpt lat="43.18399" lon="5.56412">
        <ele>363.52</ele>
        <time>2019-04-20T16:45:37Z</time>
      </trkpt>
      <trkpt lat="43.18398" lon="5.56418">
        <ele>364</ele>
        <time>2019-04-20T16:45:42Z</time>
      </trkpt>
      <trkpt lat="43.18397" lon="5.56432">
        <ele>365.92</ele>
        <time>2019-04-20T16:45:54Z</time>
      </trkpt>
      <trkpt lat="43.18394" lon="5.56437">
        <ele>368.8</ele>
        <time>2019-04-20T16:46:06Z</time>
      </trkpt>
      <trkpt lat="43.18389" lon="5.56442">
        <ele>371.21</ele>
        <time>2019-04-20T16:46:17Z</time>
      </trkpt>
      <trkpt lat="43.18386" lon="5.56447">
        <ele>374.09</ele>
        <time>2019-04-20T16:46:33Z</time>
      </trkpt>
      <trkpt lat="43.18385" lon="5.56453">
        <ele>375.53</ele>
        <time>2019-04-20T16:46:44Z</time>
      </trkpt>
      <trkpt lat="43.18386" lon="5.56459">
        <ele>377.45</ele>
        <time>2019-04-20T16:46:58Z</time>
      </trkpt>
      <trkpt lat="43.18384" lon="5.56468">
        <ele>378.9</ele>
        <time>2019-04-20T16:47:11Z</time>
      </trkpt>
      <trkpt lat="43.1838" lon="5.56473">
        <ele>380.82</ele>
        <time>2019-04-20T16:47:19Z</time>
      </trkpt>
      <trkpt lat="43.1838" lon="5.56481">
        <ele>383.22</ele>
        <time>2019-04-20T16:47:29Z</time>
      </trkpt>
      <trkpt lat="43.18372" lon="5.56482">
        <ele>385.15</ele>
        <time>2019-04-20T16:47:41Z</time>
      </trkpt>
      <trkpt lat="43.18368" lon="5.56474">
        <ele>386.11</ele>
        <time>2019-04-20T16:47:50Z</time>
      </trkpt>
      <trkpt lat="43.1836" lon="5.56466">
        <ele>388.99</ele>
        <time>2019-04-20T16:48:05Z</time>
      </trkpt>
      <trkpt lat="43.18356" lon="5.5647">
        <ele>389.47</ele>
        <time>2019-04-20T16:48:10Z</time>
      </trkpt>
      <trkpt lat="43.18355" lon="5.56473">
        <ele>389.95</ele>
        <time>2019-04-20T16:48:13Z</time>
      </trkpt>
      <trkpt lat="43.18352" lon="5.56472">
        <ele>390.43</ele>
        <time>2019-04-20T16:48:16Z</time>
      </trkpt>
      <trkpt lat="43.18351" lon="5.56471">
        <ele>389.95</ele>
        <time>2019-04-20T16:48:30Z</time>
      </trkpt>
      <trkpt lat="43.1835" lon="5.56471">
        <ele>389.47</ele>
        <time>2019-04-20T16:49:00Z</time>
      </trkpt>
      <trkpt lat="43.1835" lon="5.56472">
        <ele>389.95</ele>
        <time>2019-04-20T16:49:32Z</time>
      </trkpt>
      <trkpt lat="43.18349" lon="5.56473">
        <ele>390.43</ele>
        <time>2019-04-20T16:50:05Z</time>
      </trkpt>
      <trkpt lat="43.1835" lon="5.56473">
        <ele>390.43</ele>
        <time>2019-04-20T16:50:37Z</time>
      </trkpt>
      <trkpt lat="43.1835" lon="5.56472">
        <ele>390.43</ele>
        <time>2019-04-20T16:50:54Z</time>
      </trkpt>
      <trkpt lat="43.1835" lon="5.56475">
        <ele>390.43</ele>
        <time>2019-04-20T16:51:06Z</time>
      </trkpt>
      <trkpt lat="43.18347" lon="5.56478">
        <ele>390.91</ele>
        <time>2019-04-20T16:51:16Z</time>
      </trkpt>
      <trkpt lat="43.18345" lon="5.5648">
        <ele>390.43</ele>
        <time>2019-04-20T16:51:22Z</time>
      </trkpt>
      <trkpt lat="43.18344" lon="5.56482">
        <ele>389.95</ele>
        <time>2019-04-20T16:51:25Z</time>
      </trkpt>
      <trkpt lat="43.18341" lon="5.56485">
        <ele>389.47</ele>
        <time>2019-04-20T16:51:28Z</time>
      </trkpt>
      <trkpt lat="43.18337" lon="5.5651">
        <ele>387.55</ele>
        <time>2019-04-20T16:51:43Z</time>
      </trkpt>
      <trkpt lat="43.18332" lon="5.56519">
        <ele>387.07</ele>
        <time>2019-04-20T16:51:52Z</time>
      </trkpt>
      <trkpt lat="43.18318" lon="5.56527">
        <ele>388.99</ele>
        <time>2019-04-20T16:52:08Z</time>
      </trkpt>
      <trkpt lat="43.18307" lon="5.56532">
        <ele>390.91</ele>
        <time>2019-04-20T16:52:24Z</time>
      </trkpt>
      <trkpt lat="43.18304" lon="5.56531">
        <ele>392.84</ele>
        <time>2019-04-20T16:52:30Z</time>
      </trkpt>
      <trkpt lat="43.18296" lon="5.5653">
        <ele>393.8</ele>
        <time>2019-04-20T16:52:38Z</time>
      </trkpt>
      <trkpt lat="43.18287" lon="5.56534">
        <ele>395.72</ele>
        <time>2019-04-20T16:52:48Z</time>
      </trkpt>
      <trkpt lat="43.18282" lon="5.56538">
        <ele>395.72</ele>
        <time>2019-04-20T16:52:56Z</time>
      </trkpt>
      <trkpt lat="43.18276" lon="5.56554">
        <ele>396.68</ele>
        <time>2019-04-20T16:53:09Z</time>
      </trkpt>
      <trkpt lat="43.1827" lon="5.56567">
        <ele>396.68</ele>
        <time>2019-04-20T16:53:23Z</time>
      </trkpt>
      <trkpt lat="43.18263" lon="5.5659">
        <ele>397.64</ele>
        <time>2019-04-20T16:53:38Z</time>
      </trkpt>
      <trkpt lat="43.18264" lon="5.56596">
        <ele>398.6</ele>
        <time>2019-04-20T16:53:53Z</time>
      </trkpt>
      <trkpt lat="43.18263" lon="5.56599">
        <ele>398.6</ele>
        <time>2019-04-20T16:54:21Z</time>
      </trkpt>
      <trkpt lat="43.18261" lon="5.56592">
        <ele>399.08</ele>
        <time>2019-04-20T16:54:39Z</time>
      </trkpt>
      <trkpt lat="43.18261" lon="5.56592">
        <ele>399.08</ele>
        <time>2019-04-20T16:54:45Z</time>
      </trkpt>
      <trkpt lat="43.18249" lon="5.56606">
        <ele>397.64</ele>
        <time>2019-04-20T16:55:00Z</time>
      </trkpt>
      <trkpt lat="43.18244" lon="5.56612">
        <ele>396.68</ele>
        <time>2019-04-20T16:55:08Z</time>
      </trkpt>
      <trkpt lat="43.18235" lon="5.56619">
        <ele>394.76</ele>
        <time>2019-04-20T16:55:20Z</time>
      </trkpt>
      <trkpt lat="43.1823" lon="5.56621">
        <ele>394.28</ele>
        <time>2019-04-20T16:55:24Z</time>
      </trkpt>
      <trkpt lat="43.18224" lon="5.56622">
        <ele>394.28</ele>
        <time>2019-04-20T16:55:30Z</time>
      </trkpt>
      <trkpt lat="43.18206" lon="5.56627">
        <ele>391.39</ele>
        <time>2019-04-20T16:55:44Z</time>
      </trkpt>
      <trkpt lat="43.18195" lon="5.56628">
        <ele>388.99</ele>
        <time>2019-04-20T16:55:57Z</time>
      </trkpt>
      <trkpt lat="43.18179" lon="5.56629">
        <ele>386.11</ele>
        <time>2019-04-20T16:56:12Z</time>
      </trkpt>
      <trkpt lat="43.18171" lon="5.56627">
        <ele>385.15</ele>
        <time>2019-04-20T16:56:23Z</time>
      </trkpt>
      <trkpt lat="43.18171" lon="5.56621">
        <ele>383.7</ele>
        <time>2019-04-20T16:56:31Z</time>
      </trkpt>
      <trkpt lat="43.18173" lon="5.56614">
        <ele>380.82</ele>
        <time>2019-04-20T16:56:43Z</time>
      </trkpt>
      <trkpt lat="43.1817" lon="5.5661">
        <ele>378.42</ele>
        <time>2019-04-20T16:56:53Z</time>
      </trkpt>
      <trkpt lat="43.18167" lon="5.56608">
        <ele>378.42</ele>
        <time>2019-04-20T16:57:00Z</time>
      </trkpt>
      <trkpt lat="43.1816" lon="5.56605">
        <ele>376.97</ele>
        <time>2019-04-20T16:57:12Z</time>
      </trkpt>
      <trkpt lat="43.18152" lon="5.56603">
        <ele>376.49</ele>
        <time>2019-04-20T16:57:23Z</time>
      </trkpt>
      <trkpt lat="43.18149" lon="5.56605">
        <ele>375.53</ele>
        <time>2019-04-20T16:57:36Z</time>
      </trkpt>
      <trkpt lat="43.18152" lon="5.56605">
        <ele>376.01</ele>
        <time>2019-04-20T16:57:54Z</time>
      </trkpt>
      <trkpt lat="43.18147" lon="5.56603">
        <ele>375.05</ele>
        <time>2019-04-20T16:58:01Z</time>
      </trkpt>
      <trkpt lat="43.1815" lon="5.56603">
        <ele>376.49</ele>
        <time>2019-04-20T16:58:14Z</time>
      </trkpt>
      <trkpt lat="43.18158" lon="5.56608">
        <ele>376.49</ele>
        <time>2019-04-20T16:58:19Z</time>
      </trkpt>
      <trkpt lat="43.1816" lon="5.56608">
        <ele>376.49</ele>
        <time>2019-04-20T16:58:20Z</time>
      </trkpt>
      <trkpt lat="43.18168" lon="5.56612">
        <ele>378.42</ele>
        <time>2019-04-20T16:58:24Z</time>
      </trkpt>
      <trkpt lat="43.18172" lon="5.56614">
        <ele>379.38</ele>
        <time>2019-04-20T16:58:26Z</time>
      </trkpt>
      <trkpt lat="43.18183" lon="5.56624">
        <ele>382.74</ele>
        <time>2019-04-20T16:58:32Z</time>
      </trkpt>
      <trkpt lat="43.18174" lon="5.56636">
        <ele>384.66</ele>
        <time>2019-04-20T16:58:45Z</time>
      </trkpt>
      <trkpt lat="43.18172" lon="5.56633">
        <ele>384.66</ele>
        <time>2019-04-20T16:59:02Z</time>
      </trkpt>
      <trkpt lat="43.18173" lon="5.5663">
        <ele>384.18</ele>
        <time>2019-04-20T16:59:07Z</time>
      </trkpt>
      <trkpt lat="43.18174" lon="5.56629">
        <ele>385.63</ele>
        <time>2019-04-20T16:59:20Z</time>
      </trkpt>
      <trkpt lat="43.18174" lon="5.5663">
        <ele>385.15</ele>
        <time>2019-04-20T16:59:29Z</time>
      </trkpt>
      <trkpt lat="43.18173" lon="5.56635">
        <ele>384.66</ele>
        <time>2019-04-20T16:59:48Z</time>
      </trkpt>
      <trkpt lat="43.18175" lon="5.56632">
        <ele>385.15</ele>
        <time>2019-04-20T17:00:03Z</time>
      </trkpt>
      <trkpt lat="43.18175" lon="5.56629">
        <ele>385.63</ele>
        <time>2019-04-20T17:00:21Z</time>
      </trkpt>
      <trkpt lat="43.18172" lon="5.5663">
        <ele>385.63</ele>
        <time>2019-04-20T17:00:27Z</time>
      </trkpt>
      <trkpt lat="43.1817" lon="5.5663">
        <ele>385.15</ele>
        <time>2019-04-20T17:00:28Z</time>
      </trkpt>
      <trkpt lat="43.1817" lon="5.56624">
        <ele>385.15</ele>
        <time>2019-04-20T17:00:36Z</time>
      </trkpt>
      <trkpt lat="43.18169" lon="5.56617">
        <ele>383.22</ele>
        <time>2019-04-20T17:00:45Z</time>
      </trkpt>
      <trkpt lat="43.1817" lon="5.56618">
        <ele>382.26</ele>
        <time>2019-04-20T17:00:55Z</time>
      </trkpt>
      <trkpt lat="43.18167" lon="5.56613">
        <ele>380.82</ele>
        <time>2019-04-20T17:01:02Z</time>
      </trkpt>
      <trkpt lat="43.18169" lon="5.56616">
        <ele>380.34</ele>
        <time>2019-04-20T17:01:16Z</time>
      </trkpt>
      <trkpt lat="43.18169" lon="5.56616">
        <ele>379.86</ele>
        <time>2019-04-20T17:01:19Z</time>
      </trkpt>
      <trkpt lat="43.18161" lon="5.56607">
        <ele>376.97</ele>
        <time>2019-04-20T17:01:31Z</time>
      </trkpt>
      <trkpt lat="43.1816" lon="5.56607">
        <ele>376.49</ele>
        <time>2019-04-20T17:01:32Z</time>
      </trkpt>
      <trkpt lat="43.18154" lon="5.56603">
        <ele>376.97</ele>
        <time>2019-04-20T17:01:37Z</time>
      </trkpt>
      <trkpt lat="43.18152" lon="5.56602">
        <ele>376.97</ele>
        <time>2019-04-20T17:01:38Z</time>
      </trkpt>
      <trkpt lat="43.18151" lon="5.56603">
        <ele>376.01</ele>
        <time>2019-04-20T17:01:39Z</time>
      </trkpt>
      <trkpt lat="43.18146" lon="5.56604">
        <ele>376.01</ele>
        <time>2019-04-20T17:01:42Z</time>
      </trkpt>
      <trkpt lat="43.18145" lon="5.56603">
        <ele>376.49</ele>
        <time>2019-04-20T17:01:43Z</time>
      </trkpt>
      <trkpt lat="43.18143" lon="5.56597">
        <ele>375.53</ele>
        <time>2019-04-20T17:01:51Z</time>
      </trkpt>
      <trkpt lat="43.18142" lon="5.56604">
        <ele>375.05</ele>
        <time>2019-04-20T17:02:03Z</time>
      </trkpt>
      <trkpt lat="43.18142" lon="5.56607">
        <ele>376.01</ele>
        <time>2019-04-20T17:02:08Z</time>
      </trkpt>
      <trkpt lat="43.18141" lon="5.5661">
        <ele>375.53</ele>
        <time>2019-04-20T17:02:13Z</time>
      </trkpt>
      <trkpt lat="43.1814" lon="5.56613">
        <ele>376.01</ele>
        <time>2019-04-20T17:02:15Z</time>
      </trkpt>
      <trkpt lat="43.18139" lon="5.56614">
        <ele>376.01</ele>
        <time>2019-04-20T17:02:16Z</time>
      </trkpt>
      <trkpt lat="43.18137" lon="5.56615">
        <ele>376.49</ele>
        <time>2019-04-20T17:02:17Z</time>
      </trkpt>
      <trkpt lat="43.18136" lon="5.56615">
        <ele>375.05</ele>
        <time>2019-04-20T17:02:18Z</time>
      </trkpt>
      <trkpt lat="43.18135" lon="5.56616">
        <ele>374.09</ele>
        <time>2019-04-20T17:02:19Z</time>
      </trkpt>
      <trkpt lat="43.1813" lon="5.5662">
        <ele>375.53</ele>
        <time>2019-04-20T17:02:22Z</time>
      </trkpt>
      <trkpt lat="43.18129" lon="5.56626">
        <ele>375.05</ele>
        <time>2019-04-20T17:02:25Z</time>
      </trkpt>
      <trkpt lat="43.18132" lon="5.5664">
        <ele>373.13</ele>
        <time>2019-04-20T17:02:36Z</time>
      </trkpt>
      <trkpt lat="43.18131" lon="5.56651">
        <ele>371.21</ele>
        <time>2019-04-20T17:02:44Z</time>
      </trkpt>
      <trkpt lat="43.18132" lon="5.56656">
        <ele>370.73</ele>
        <time>2019-04-20T17:02:50Z</time>
      </trkpt>
      <trkpt lat="43.1813" lon="5.56662">
        <ele>370.73</ele>
        <time>2019-04-20T17:02:56Z</time>
      </trkpt>
      <trkpt lat="43.18129" lon="5.56665">
        <ele>370.24</ele>
        <time>2019-04-20T17:02:58Z</time>
      </trkpt>
      <trkpt lat="43.18129" lon="5.56667">
        <ele>370.73</ele>
        <time>2019-04-20T17:02:59Z</time>
      </trkpt>
      <trkpt lat="43.18128" lon="5.56673">
        <ele>368.8</ele>
        <time>2019-04-20T17:03:04Z</time>
      </trkpt>
      <trkpt lat="43.18128" lon="5.56676">
        <ele>368.8</ele>
        <time>2019-04-20T17:03:06Z</time>
      </trkpt>
      <trkpt lat="43.18127" lon="5.56677">
        <ele>367.84</ele>
        <time>2019-04-20T17:03:07Z</time>
      </trkpt>
      <trkpt lat="43.18126" lon="5.56679">
        <ele>367.36</ele>
        <time>2019-04-20T17:03:08Z</time>
      </trkpt>
      <trkpt lat="43.18127" lon="5.56682">
        <ele>367.84</ele>
        <time>2019-04-20T17:03:09Z</time>
      </trkpt>
      <trkpt lat="43.18126" lon="5.56684">
        <ele>367.84</ele>
        <time>2019-04-20T17:03:10Z</time>
      </trkpt>
      <trkpt lat="43.18125" lon="5.56686">
        <ele>367.36</ele>
        <time>2019-04-20T17:03:11Z</time>
      </trkpt>
      <trkpt lat="43.18124" lon="5.56688">
        <ele>367.36</ele>
        <time>2019-04-20T17:03:12Z</time>
      </trkpt>
      <trkpt lat="43.18123" lon="5.56689">
        <ele>367.36</ele>
        <time>2019-04-20T17:03:13Z</time>
      </trkpt>
      <trkpt lat="43.18123" lon="5.56696">
        <ele>365.92</ele>
        <time>2019-04-20T17:03:17Z</time>
      </trkpt>
      <trkpt lat="43.18119" lon="5.56707">
        <ele>365.44</ele>
        <time>2019-04-20T17:03:25Z</time>
      </trkpt>
      <trkpt lat="43.18118" lon="5.56708">
        <ele>364.96</ele>
        <time>2019-04-20T17:03:26Z</time>
      </trkpt>
      <trkpt lat="43.18115" lon="5.56718">
        <ele>363.04</ele>
        <time>2019-04-20T17:03:34Z</time>
      </trkpt>
      <trkpt lat="43.18114" lon="5.56725">
        <ele>361.59</ele>
        <time>2019-04-20T17:03:39Z</time>
      </trkpt>
      <trkpt lat="43.18113" lon="5.56727">
        <ele>361.11</ele>
        <time>2019-04-20T17:03:40Z</time>
      </trkpt>
      <trkpt lat="43.18113" lon="5.5673">
        <ele>361.11</ele>
        <time>2019-04-20T17:03:41Z</time>
      </trkpt>
      <trkpt lat="43.18113" lon="5.56733">
        <ele>360.63</ele>
        <time>2019-04-20T17:03:42Z</time>
      </trkpt>
      <trkpt lat="43.18112" lon="5.56736">
        <ele>361.11</ele>
        <time>2019-04-20T17:03:43Z</time>
      </trkpt>
      <trkpt lat="43.18112" lon="5.56738">
        <ele>360.15</ele>
        <time>2019-04-20T17:03:44Z</time>
      </trkpt>
      <trkpt lat="43.18111" lon="5.56739">
        <ele>360.15</ele>
        <time>2019-04-20T17:03:45Z</time>
      </trkpt>
      <trkpt lat="43.18111" lon="5.5674">
        <ele>360.63</ele>
        <time>2019-04-20T17:03:46Z</time>
      </trkpt>
      <trkpt lat="43.18111" lon="5.56742">
        <ele>360.15</ele>
        <time>2019-04-20T17:03:47Z</time>
      </trkpt>
      <trkpt lat="43.18111" lon="5.56744">
        <ele>359.67</ele>
        <time>2019-04-20T17:03:48Z</time>
      </trkpt>
      <trkpt lat="43.18112" lon="5.56745">
        <ele>359.19</ele>
        <time>2019-04-20T17:03:49Z</time>
      </trkpt>
      <trkpt lat="43.18112" lon="5.56747">
        <ele>358.71</ele>
        <time>2019-04-20T17:03:50Z</time>
      </trkpt>
      <trkpt lat="43.18111" lon="5.56748">
        <ele>359.19</ele>
        <time>2019-04-20T17:03:51Z</time>
      </trkpt>
      <trkpt lat="43.18111" lon="5.5675">
        <ele>358.23</ele>
        <time>2019-04-20T17:03:52Z</time>
      </trkpt>
      <trkpt lat="43.1811" lon="5.56751">
        <ele>357.75</ele>
        <time>2019-04-20T17:03:53Z</time>
      </trkpt>
      <trkpt lat="43.1811" lon="5.56753">
        <ele>357.27</ele>
        <time>2019-04-20T17:03:54Z</time>
      </trkpt>
      <trkpt lat="43.1811" lon="5.56755">
        <ele>357.75</ele>
        <time>2019-04-20T17:03:55Z</time>
      </trkpt>
      <trkpt lat="43.18109" lon="5.56757">
        <ele>357.75</ele>
        <time>2019-04-20T17:03:56Z</time>
      </trkpt>
      <trkpt lat="43.18109" lon="5.56757">
        <ele>356.79</ele>
        <time>2019-04-20T17:03:57Z</time>
      </trkpt>
      <trkpt lat="43.18108" lon="5.56758">
        <ele>357.27</ele>
        <time>2019-04-20T17:03:58Z</time>
      </trkpt>
      <trkpt lat="43.18108" lon="5.56759">
        <ele>356.31</ele>
        <time>2019-04-20T17:03:59Z</time>
      </trkpt>
      <trkpt lat="43.18104" lon="5.56781">
        <ele>354.86</ele>
        <time>2019-04-20T17:04:12Z</time>
      </trkpt>
      <trkpt lat="43.18104" lon="5.56785">
        <ele>354.38</ele>
        <time>2019-04-20T17:04:17Z</time>
      </trkpt>
      <trkpt lat="43.18104" lon="5.56788">
        <ele>354.38</ele>
        <time>2019-04-20T17:04:19Z</time>
      </trkpt>
      <trkpt lat="43.18099" lon="5.56802">
        <ele>352.46</ele>
        <time>2019-04-20T17:04:31Z</time>
      </trkpt>
      <trkpt lat="43.18098" lon="5.56808">
        <ele>351.02</ele>
        <time>2019-04-20T17:04:36Z</time>
      </trkpt>
      <trkpt lat="43.18092" lon="5.56821">
        <ele>349.58</ele>
        <time>2019-04-20T17:04:51Z</time>
      </trkpt>
      <trkpt lat="43.1809" lon="5.56823">
        <ele>349.1</ele>
        <time>2019-04-20T17:04:54Z</time>
      </trkpt>
      <trkpt lat="43.18088" lon="5.56828">
        <ele>348.62</ele>
        <time>2019-04-20T17:04:58Z</time>
      </trkpt>
      <trkpt lat="43.18086" lon="5.56834">
        <ele>347.17</ele>
        <time>2019-04-20T17:05:04Z</time>
      </trkpt>
      <trkpt lat="43.18085" lon="5.56835">
        <ele>347.65</ele>
        <time>2019-04-20T17:05:05Z</time>
      </trkpt>
      <trkpt lat="43.18084" lon="5.56837">
        <ele>347.65</ele>
        <time>2019-04-20T17:05:06Z</time>
      </trkpt>
      <trkpt lat="43.18083" lon="5.56839">
        <ele>347.17</ele>
        <time>2019-04-20T17:05:07Z</time>
      </trkpt>
      <trkpt lat="43.18081" lon="5.56839">
        <ele>347.17</ele>
        <time>2019-04-20T17:05:08Z</time>
      </trkpt>
      <trkpt lat="43.18077" lon="5.56845">
        <ele>346.69</ele>
        <time>2019-04-20T17:05:13Z</time>
      </trkpt>
      <trkpt lat="43.18076" lon="5.56846">
        <ele>346.69</ele>
        <time>2019-04-20T17:05:14Z</time>
      </trkpt>
      <trkpt lat="43.18069" lon="5.56859">
        <ele>344.29</ele>
        <time>2019-04-20T17:05:26Z</time>
      </trkpt>
      <trkpt lat="43.18068" lon="5.56862">
        <ele>344.77</ele>
        <time>2019-04-20T17:05:28Z</time>
      </trkpt>
      <trkpt lat="43.18067" lon="5.56863">
        <ele>344.77</ele>
        <time>2019-04-20T17:05:29Z</time>
      </trkpt>
      <trkpt lat="43.18065" lon="5.56867">
        <ele>344.29</ele>
        <time>2019-04-20T17:05:34Z</time>
      </trkpt>
      <trkpt lat="43.18064" lon="5.56868">
        <ele>343.81</ele>
        <time>2019-04-20T17:05:37Z</time>
      </trkpt>
      <trkpt lat="43.18063" lon="5.5687">
        <ele>344.29</ele>
        <time>2019-04-20T17:05:39Z</time>
      </trkpt>
      <trkpt lat="43.18062" lon="5.56871">
        <ele>343.33</ele>
        <time>2019-04-20T17:05:40Z</time>
      </trkpt>
      <trkpt lat="43.18061" lon="5.56872">
        <ele>343.81</ele>
        <time>2019-04-20T17:05:41Z</time>
      </trkpt>
      <trkpt lat="43.18057" lon="5.56876">
        <ele>342.37</ele>
        <time>2019-04-20T17:05:49Z</time>
      </trkpt>
      <trkpt lat="43.1805" lon="5.56882">
        <ele>340.92</ele>
        <time>2019-04-20T17:06:01Z</time>
      </trkpt>
      <trkpt lat="43.1804" lon="5.56899">
        <ele>339</ele>
        <time>2019-04-20T17:06:17Z</time>
      </trkpt>
      <trkpt lat="43.18031" lon="5.56913">
        <ele>336.6</ele>
        <time>2019-04-20T17:06:33Z</time>
      </trkpt>
      <trkpt lat="43.18024" lon="5.56927">
        <ele>335.16</ele>
        <time>2019-04-20T17:06:46Z</time>
      </trkpt>
      <trkpt lat="43.18022" lon="5.5693">
        <ele>335.16</ele>
        <time>2019-04-20T17:06:48Z</time>
      </trkpt>
      <trkpt lat="43.18017" lon="5.56937">
        <ele>334.2</ele>
        <time>2019-04-20T17:06:56Z</time>
      </trkpt>
      <trkpt lat="43.18011" lon="5.56947">
        <ele>333.23</ele>
        <time>2019-04-20T17:07:04Z</time>
      </trkpt>
      <trkpt lat="43.18009" lon="5.5695">
        <ele>333.71</ele>
        <time>2019-04-20T17:07:06Z</time>
      </trkpt>
      <trkpt lat="43.18008" lon="5.56952">
        <ele>333.71</ele>
        <time>2019-04-20T17:07:07Z</time>
      </trkpt>
      <trkpt lat="43.18007" lon="5.56954">
        <ele>333.23</ele>
        <time>2019-04-20T17:07:08Z</time>
      </trkpt>
      <trkpt lat="43.18004" lon="5.56961">
        <ele>333.23</ele>
        <time>2019-04-20T17:07:14Z</time>
      </trkpt>
      <trkpt lat="43.18003" lon="5.56962">
        <ele>332.75</ele>
        <time>2019-04-20T17:07:15Z</time>
      </trkpt>
      <trkpt lat="43.18001" lon="5.56963">
        <ele>332.75</ele>
        <time>2019-04-20T17:07:16Z</time>
      </trkpt>
      <trkpt lat="43.18" lon="5.56964">
        <ele>332.75</ele>
        <time>2019-04-20T17:07:17Z</time>
      </trkpt>
      <trkpt lat="43.17999" lon="5.56965">
        <ele>332.75</ele>
        <time>2019-04-20T17:07:18Z</time>
      </trkpt>
      <trkpt lat="43.1799" lon="5.56972">
        <ele>331.31</ele>
        <time>2019-04-20T17:07:31Z</time>
      </trkpt>
      <trkpt lat="43.17987" lon="5.56964">
        <ele>330.35</ele>
        <time>2019-04-20T17:07:42Z</time>
      </trkpt>
      <trkpt lat="43.17986" lon="5.56958">
        <ele>328.43</ele>
        <time>2019-04-20T17:07:56Z</time>
      </trkpt>
      <trkpt lat="43.1798" lon="5.56959">
        <ele>328.43</ele>
        <time>2019-04-20T17:08:02Z</time>
      </trkpt>
      <trkpt lat="43.1798" lon="5.56962">
        <ele>328.43</ele>
        <time>2019-04-20T17:08:03Z</time>
      </trkpt>
      <trkpt lat="43.17981" lon="5.56965">
        <ele>328.91</ele>
        <time>2019-04-20T17:08:04Z</time>
      </trkpt>
      <trkpt lat="43.17981" lon="5.56967">
        <ele>328.91</ele>
        <time>2019-04-20T17:08:05Z</time>
      </trkpt>
      <trkpt lat="43.17982" lon="5.56969">
        <ele>329.39</ele>
        <time>2019-04-20T17:08:06Z</time>
      </trkpt>
      <trkpt lat="43.17979" lon="5.56964">
        <ele>329.87</ele>
        <time>2019-04-20T17:08:30Z</time>
      </trkpt>
      <trkpt lat="43.17982" lon="5.56968">
        <ele>329.39</ele>
        <time>2019-04-20T17:08:58Z</time>
      </trkpt>
      <trkpt lat="43.17985" lon="5.5697">
        <ele>329.87</ele>
        <time>2019-04-20T17:09:28Z</time>
      </trkpt>
      <trkpt lat="43.17987" lon="5.5697">
        <ele>329.87</ele>
        <time>2019-04-20T17:10:01Z</time>
      </trkpt>
      <trkpt lat="43.17983" lon="5.56969">
        <ele>328.91</ele>
        <time>2019-04-20T17:10:22Z</time>
      </trkpt>
      <trkpt lat="43.17979" lon="5.56961">
        <ele>327.95</ele>
        <time>2019-04-20T17:10:27Z</time>
      </trkpt>
      <trkpt lat="43.17974" lon="5.56959">
        <ele>327.95</ele>
        <time>2019-04-20T17:10:38Z</time>
      </trkpt>
      <trkpt lat="43.17972" lon="5.5696">
        <ele>327.47</ele>
        <time>2019-04-20T17:10:39Z</time>
      </trkpt>
      <trkpt lat="43.17963" lon="5.56963">
        <ele>326.5</ele>
        <time>2019-04-20T17:10:50Z</time>
      </trkpt>
      <trkpt lat="43.17957" lon="5.56968">
        <ele>326.5</ele>
        <time>2019-04-20T17:11:04Z</time>
      </trkpt>
      <trkpt lat="43.17948" lon="5.56974">
        <ele>324.58</ele>
        <time>2019-04-20T17:11:14Z</time>
      </trkpt>
      <trkpt lat="43.17938" lon="5.56973">
        <ele>322.18</ele>
        <time>2019-04-20T17:11:23Z</time>
      </trkpt>
      <trkpt lat="43.17937" lon="5.56974">
        <ele>322.18</ele>
        <time>2019-04-20T17:11:24Z</time>
      </trkpt>
      <trkpt lat="43.17935" lon="5.56975">
        <ele>321.7</ele>
        <time>2019-04-20T17:11:25Z</time>
      </trkpt>
      <trkpt lat="43.17933" lon="5.56975">
        <ele>322.18</ele>
        <time>2019-04-20T17:11:26Z</time>
      </trkpt>
      <trkpt lat="43.17932" lon="5.56976">
        <ele>322.66</ele>
        <time>2019-04-20T17:11:27Z</time>
      </trkpt>
      <trkpt lat="43.1793" lon="5.56976">
        <ele>322.18</ele>
        <time>2019-04-20T17:11:28Z</time>
      </trkpt>
      <trkpt lat="43.17928" lon="5.56976">
        <ele>321.7</ele>
        <time>2019-04-20T17:11:29Z</time>
      </trkpt>
      <trkpt lat="43.17916" lon="5.5697">
        <ele>318.81</ele>
        <time>2019-04-20T17:11:40Z</time>
      </trkpt>
      <trkpt lat="43.17916" lon="5.5697">
        <ele>319.3</ele>
        <time>2019-04-20T17:11:52Z</time>
      </trkpt>
      <trkpt lat="43.17918" lon="5.56975">
        <ele>319.78</ele>
        <time>2019-04-20T17:12:02Z</time>
      </trkpt>
      <trkpt lat="43.17916" lon="5.56979">
        <ele>319.78</ele>
        <time>2019-04-20T17:12:04Z</time>
      </trkpt>
      <trkpt lat="43.17913" lon="5.56984">
        <ele>319.78</ele>
        <time>2019-04-20T17:12:08Z</time>
      </trkpt>
      <trkpt lat="43.17913" lon="5.56986">
        <ele>318.81</ele>
        <time>2019-04-20T17:12:09Z</time>
      </trkpt>
      <trkpt lat="43.17912" lon="5.56992">
        <ele>317.37</ele>
        <time>2019-04-20T17:12:13Z</time>
      </trkpt>
      <trkpt lat="43.17912" lon="5.56997">
        <ele>315.93</ele>
        <time>2019-04-20T17:12:15Z</time>
      </trkpt>
      <trkpt lat="43.1791" lon="5.57001">
        <ele>315.93</ele>
        <time>2019-04-20T17:12:18Z</time>
      </trkpt>
      <trkpt lat="43.17909" lon="5.57003">
        <ele>316.41</ele>
        <time>2019-04-20T17:12:20Z</time>
      </trkpt>
      <trkpt lat="43.17909" lon="5.57005">
        <ele>315.45</ele>
        <time>2019-04-20T17:12:21Z</time>
      </trkpt>
      <trkpt lat="43.17909" lon="5.57007">
        <ele>314.97</ele>
        <time>2019-04-20T17:12:22Z</time>
      </trkpt>
      <trkpt lat="43.17908" lon="5.5701">
        <ele>314.97</ele>
        <time>2019-04-20T17:12:23Z</time>
      </trkpt>
      <trkpt lat="43.17908" lon="5.57013">
        <ele>314.49</ele>
        <time>2019-04-20T17:12:24Z</time>
      </trkpt>
      <trkpt lat="43.17906" lon="5.57028">
        <ele>311.12</ele>
        <time>2019-04-20T17:12:36Z</time>
      </trkpt>
      <trkpt lat="43.17904" lon="5.57036">
        <ele>310.64</ele>
        <time>2019-04-20T17:12:49Z</time>
      </trkpt>
      <trkpt lat="43.179" lon="5.57071">
        <ele>309.68</ele>
        <time>2019-04-20T17:13:01Z</time>
      </trkpt>
      <trkpt lat="43.17902" lon="5.57081">
        <ele>308.24</ele>
        <time>2019-04-20T17:13:14Z</time>
      </trkpt>
      <trkpt lat="43.17904" lon="5.5709">
        <ele>306.8</ele>
        <time>2019-04-20T17:13:22Z</time>
      </trkpt>
      <trkpt lat="43.17904" lon="5.57095">
        <ele>306.8</ele>
        <time>2019-04-20T17:13:25Z</time>
      </trkpt>
      <trkpt lat="43.17905" lon="5.57099">
        <ele>306.32</ele>
        <time>2019-04-20T17:13:26Z</time>
      </trkpt>
      <trkpt lat="43.17906" lon="5.57102">
        <ele>306.32</ele>
        <time>2019-04-20T17:13:27Z</time>
      </trkpt>
      <trkpt lat="43.17906" lon="5.57106">
        <ele>305.84</ele>
        <time>2019-04-20T17:13:28Z</time>
      </trkpt>
      <trkpt lat="43.17907" lon="5.57108">
        <ele>306.8</ele>
        <time>2019-04-20T17:13:29Z</time>
      </trkpt>
      <trkpt lat="43.17908" lon="5.5711">
        <ele>305.84</ele>
        <time>2019-04-20T17:13:30Z</time>
      </trkpt>
      <trkpt lat="43.17911" lon="5.57116">
        <ele>304.39</ele>
        <time>2019-04-20T17:13:38Z</time>
      </trkpt>
      <trkpt lat="43.17912" lon="5.57118">
        <ele>304.88</ele>
        <time>2019-04-20T17:13:39Z</time>
      </trkpt>
      <trkpt lat="43.17913" lon="5.57121">
        <ele>304.39</ele>
        <time>2019-04-20T17:13:40Z</time>
      </trkpt>
      <trkpt lat="43.17912" lon="5.57124">
        <ele>304.39</ele>
        <time>2019-04-20T17:13:41Z</time>
      </trkpt>
      <trkpt lat="43.17912" lon="5.57126">
        <ele>304.39</ele>
        <time>2019-04-20T17:13:42Z</time>
      </trkpt>
      <trkpt lat="43.17911" lon="5.57129">
        <ele>303.91</ele>
        <time>2019-04-20T17:13:43Z</time>
      </trkpt>
      <trkpt lat="43.1791" lon="5.57131">
        <ele>303.91</ele>
        <time>2019-04-20T17:13:44Z</time>
      </trkpt>
      <trkpt lat="43.17907" lon="5.57136">
        <ele>304.88</ele>
        <time>2019-04-20T17:13:49Z</time>
      </trkpt>
      <trkpt lat="43.17905" lon="5.57136">
        <ele>304.88</ele>
        <time>2019-04-20T17:13:50Z</time>
      </trkpt>
      <trkpt lat="43.17904" lon="5.57136">
        <ele>304.88</ele>
        <time>2019-04-20T17:13:51Z</time>
      </trkpt>
      <trkpt lat="43.17898" lon="5.57136">
        <ele>304.88</ele>
        <time>2019-04-20T17:13:57Z</time>
      </trkpt>
      <trkpt lat="43.17897" lon="5.57136">
        <ele>303.91</ele>
        <time>2019-04-20T17:13:58Z</time>
      </trkpt>
      <trkpt lat="43.17896" lon="5.57136">
        <ele>303.91</ele>
        <time>2019-04-20T17:13:59Z</time>
      </trkpt>
      <trkpt lat="43.17894" lon="5.57137">
        <ele>304.88</ele>
        <time>2019-04-20T17:14:00Z</time>
      </trkpt>
      <trkpt lat="43.17893" lon="5.57137">
        <ele>304.88</ele>
        <time>2019-04-20T17:14:01Z</time>
      </trkpt>
      <trkpt lat="43.17891" lon="5.57136">
        <ele>304.88</ele>
        <time>2019-04-20T17:14:11Z</time>
      </trkpt>
      <trkpt lat="43.1789" lon="5.57138">
        <ele>304.39</ele>
        <time>2019-04-20T17:14:12Z</time>
      </trkpt>
      <trkpt lat="43.17886" lon="5.5714">
        <ele>304.88</ele>
        <time>2019-04-20T17:14:15Z</time>
      </trkpt>
      <trkpt lat="43.17884" lon="5.5714">
        <ele>305.36</ele>
        <time>2019-04-20T17:14:16Z</time>
      </trkpt>
      <trkpt lat="43.17882" lon="5.57142">
        <ele>304.88</ele>
        <time>2019-04-20T17:14:18Z</time>
      </trkpt>
      <trkpt lat="43.17881" lon="5.57143">
        <ele>304.39</ele>
        <time>2019-04-20T17:14:19Z</time>
      </trkpt>
      <trkpt lat="43.17871" lon="5.57149">
        <ele>305.36</ele>
        <time>2019-04-20T17:14:31Z</time>
      </trkpt>
      <trkpt lat="43.17858" lon="5.57154">
        <ele>308.24</ele>
        <time>2019-04-20T17:14:46Z</time>
      </trkpt>
      <trkpt lat="43.17852" lon="5.57156">
        <ele>308.72</ele>
        <time>2019-04-20T17:14:51Z</time>
      </trkpt>
      <trkpt lat="43.17842" lon="5.57162">
        <ele>309.68</ele>
        <time>2019-04-20T17:15:00Z</time>
      </trkpt>
      <trkpt lat="43.17829" lon="5.57162">
        <ele>310.64</ele>
        <time>2019-04-20T17:15:13Z</time>
      </trkpt>
      <trkpt lat="43.17831" lon="5.57158">
        <ele>311.12</ele>
        <time>2019-04-20T17:15:29Z</time>
      </trkpt>
      <trkpt lat="43.17833" lon="5.5716">
        <ele>310.64</ele>
        <time>2019-04-20T17:15:55Z</time>
      </trkpt>
      <trkpt lat="43.17829" lon="5.57161">
        <ele>310.64</ele>
        <time>2019-04-20T17:16:00Z</time>
      </trkpt>
      <trkpt lat="43.17828" lon="5.57162">
        <ele>310.16</ele>
        <time>2019-04-20T17:16:01Z</time>
      </trkpt>
      <trkpt lat="43.1782" lon="5.57162">
        <ele>311.6</ele>
        <time>2019-04-20T17:16:08Z</time>
      </trkpt>
      <trkpt lat="43.17818" lon="5.57162">
        <ele>311.6</ele>
        <time>2019-04-20T17:16:09Z</time>
      </trkpt>
      <trkpt lat="43.17817" lon="5.57162">
        <ele>311.6</ele>
        <time>2019-04-20T17:16:10Z</time>
      </trkpt>
      <trkpt lat="43.17801" lon="5.57165">
        <ele>314.49</ele>
        <time>2019-04-20T17:16:24Z</time>
      </trkpt>
      <trkpt lat="43.178" lon="5.57165">
        <ele>314.01</ele>
        <time>2019-04-20T17:16:25Z</time>
      </trkpt>
      <trkpt lat="43.1779" lon="5.57168">
        <ele>314.97</ele>
        <time>2019-04-20T17:16:35Z</time>
      </trkpt>
      <trkpt lat="43.17789" lon="5.57168">
        <ele>314.49</ele>
        <time>2019-04-20T17:16:36Z</time>
      </trkpt>
      <trkpt lat="43.17788" lon="5.57168">
        <ele>314.49</ele>
        <time>2019-04-20T17:16:37Z</time>
      </trkpt>
      <trkpt lat="43.17774" lon="5.57171">
        <ele>315.93</ele>
        <time>2019-04-20T17:16:51Z</time>
      </trkpt>
      <trkpt lat="43.17774" lon="5.57171">
        <ele>316.41</ele>
        <time>2019-04-20T17:16:53Z</time>
      </trkpt>
      <trkpt lat="43.17773" lon="5.57172">
        <ele>316.41</ele>
        <time>2019-04-20T17:16:54Z</time>
      </trkpt>
      <trkpt lat="43.17772" lon="5.57171">
        <ele>316.89</ele>
        <time>2019-04-20T17:16:55Z</time>
      </trkpt>
      <trkpt lat="43.17768" lon="5.57171">
        <ele>317.37</ele>
        <time>2019-04-20T17:16:59Z</time>
      </trkpt>
      <trkpt lat="43.17759" lon="5.57175">
        <ele>317.37</ele>
        <time>2019-04-20T17:17:08Z</time>
      </trkpt>
      <trkpt lat="43.17758" lon="5.57175">
        <ele>317.37</ele>
        <time>2019-04-20T17:17:09Z</time>
      </trkpt>
      <trkpt lat="43.17756" lon="5.57176">
        <ele>317.85</ele>
        <time>2019-04-20T17:17:10Z</time>
      </trkpt>
      <trkpt lat="43.17754" lon="5.57176">
        <ele>317.85</ele>
        <time>2019-04-20T17:17:11Z</time>
      </trkpt>
      <trkpt lat="43.17753" lon="5.57175">
        <ele>317.85</ele>
        <time>2019-04-20T17:17:12Z</time>
      </trkpt>
      <trkpt lat="43.17752" lon="5.57175">
        <ele>317.85</ele>
        <time>2019-04-20T17:17:13Z</time>
      </trkpt>
      <trkpt lat="43.17748" lon="5.57176">
        <ele>318.33</ele>
        <time>2019-04-20T17:17:16Z</time>
      </trkpt>
      <trkpt lat="43.17739" lon="5.57182">
        <ele>318.81</ele>
        <time>2019-04-20T17:17:27Z</time>
      </trkpt>
      <trkpt lat="43.17727" lon="5.5719">
        <ele>318.81</ele>
        <time>2019-04-20T17:17:37Z</time>
      </trkpt>
      <trkpt lat="43.17726" lon="5.57191">
        <ele>319.78</ele>
        <time>2019-04-20T17:17:38Z</time>
      </trkpt>
      <trkpt lat="43.17726" lon="5.57192">
        <ele>319.3</ele>
        <time>2019-04-20T17:17:39Z</time>
      </trkpt>
      <trkpt lat="43.17726" lon="5.57195">
        <ele>319.78</ele>
        <time>2019-04-20T17:17:42Z</time>
      </trkpt>
      <trkpt lat="43.17725" lon="5.57197">
        <ele>320.26</ele>
        <time>2019-04-20T17:17:43Z</time>
      </trkpt>
      <trkpt lat="43.17723" lon="5.5721">
        <ele>321.7</ele>
        <time>2019-04-20T17:17:54Z</time>
      </trkpt>
      <trkpt lat="43.1772" lon="5.57219">
        <ele>321.7</ele>
        <time>2019-04-20T17:17:58Z</time>
      </trkpt>
      <trkpt lat="43.17719" lon="5.57226">
        <ele>321.7</ele>
        <time>2019-04-20T17:18:04Z</time>
      </trkpt>
      <trkpt lat="43.17715" lon="5.57244">
        <ele>322.66</ele>
        <time>2019-04-20T17:18:16Z</time>
      </trkpt>
      <trkpt lat="43.17714" lon="5.57257">
        <ele>324.58</ele>
        <time>2019-04-20T17:18:27Z</time>
      </trkpt>
      <trkpt lat="43.17713" lon="5.57259">
        <ele>324.58</ele>
        <time>2019-04-20T17:18:28Z</time>
      </trkpt>
      <trkpt lat="43.17713" lon="5.57262">
        <ele>324.1</ele>
        <time>2019-04-20T17:18:29Z</time>
      </trkpt>
      <trkpt lat="43.17713" lon="5.57264">
        <ele>324.58</ele>
        <time>2019-04-20T17:18:30Z</time>
      </trkpt>
      <trkpt lat="43.17713" lon="5.57266">
        <ele>324.58</ele>
        <time>2019-04-20T17:18:31Z</time>
      </trkpt>
      <trkpt lat="43.17712" lon="5.57269">
        <ele>325.06</ele>
        <time>2019-04-20T17:18:34Z</time>
      </trkpt>
      <trkpt lat="43.17711" lon="5.57271">
        <ele>325.54</ele>
        <time>2019-04-20T17:18:35Z</time>
      </trkpt>
      <trkpt lat="43.17711" lon="5.57277">
        <ele>324.58</ele>
        <time>2019-04-20T17:18:40Z</time>
      </trkpt>
      <trkpt lat="43.1771" lon="5.57279">
        <ele>325.54</ele>
        <time>2019-04-20T17:18:41Z</time>
      </trkpt>
      <trkpt lat="43.17709" lon="5.5728">
        <ele>325.54</ele>
        <time>2019-04-20T17:18:42Z</time>
      </trkpt>
      <trkpt lat="43.17708" lon="5.57294">
        <ele>326.5</ele>
        <time>2019-04-20T17:18:52Z</time>
      </trkpt>
      <trkpt lat="43.17708" lon="5.57295">
        <ele>327.47</ele>
        <time>2019-04-20T17:18:53Z</time>
      </trkpt>
      <trkpt lat="43.17707" lon="5.57297">
        <ele>327.95</ele>
        <time>2019-04-20T17:18:54Z</time>
      </trkpt>
      <trkpt lat="43.17706" lon="5.57298">
        <ele>327.95</ele>
        <time>2019-04-20T17:18:55Z</time>
      </trkpt>
      <trkpt lat="43.17706" lon="5.57302">
        <ele>328.91</ele>
        <time>2019-04-20T17:19:00Z</time>
      </trkpt>
      <trkpt lat="43.17707" lon="5.57303">
        <ele>330.35</ele>
        <time>2019-04-20T17:19:03Z</time>
      </trkpt>
      <trkpt lat="43.17708" lon="5.57305">
        <ele>330.35</ele>
        <time>2019-04-20T17:19:04Z</time>
      </trkpt>
      <trkpt lat="43.17709" lon="5.57305">
        <ele>328.91</ele>
        <time>2019-04-20T17:19:15Z</time>
      </trkpt>
      <trkpt lat="43.17708" lon="5.57306">
        <ele>329.39</ele>
        <time>2019-04-20T17:19:21Z</time>
      </trkpt>
      <trkpt lat="43.17701" lon="5.57317">
        <ele>329.39</ele>
        <time>2019-04-20T17:19:31Z</time>
      </trkpt>
      <trkpt lat="43.177" lon="5.57319">
        <ele>328.43</ele>
        <time>2019-04-20T17:19:39Z</time>
      </trkpt>
      <trkpt lat="43.17696" lon="5.57323">
        <ele>327.47</ele>
        <time>2019-04-20T17:19:42Z</time>
      </trkpt>
      <trkpt lat="43.17695" lon="5.57325">
        <ele>327.95</ele>
        <time>2019-04-20T17:19:43Z</time>
      </trkpt>
      <trkpt lat="43.17685" lon="5.57331">
        <ele>328.43</ele>
        <time>2019-04-20T17:19:56Z</time>
      </trkpt>
      <trkpt lat="43.17677" lon="5.57335">
        <ele>326.99</ele>
        <time>2019-04-20T17:20:05Z</time>
      </trkpt>
      <trkpt lat="43.1767" lon="5.57338">
        <ele>328.43</ele>
        <time>2019-04-20T17:20:11Z</time>
      </trkpt>
      <trkpt lat="43.17657" lon="5.57344">
        <ele>326.5</ele>
        <time>2019-04-20T17:20:23Z</time>
      </trkpt>
      <trkpt lat="43.17647" lon="5.57351">
        <ele>327.47</ele>
        <time>2019-04-20T17:20:33Z</time>
      </trkpt>
      <trkpt lat="43.17645" lon="5.57351">
        <ele>328.91</ele>
        <time>2019-04-20T17:20:35Z</time>
      </trkpt>
      <trkpt lat="43.1764" lon="5.57354">
        <ele>328.91</ele>
        <time>2019-04-20T17:20:41Z</time>
      </trkpt>
      <trkpt lat="43.17637" lon="5.57355">
        <ele>328.91</ele>
        <time>2019-04-20T17:20:44Z</time>
      </trkpt>
      <trkpt lat="43.17636" lon="5.57356">
        <ele>328.43</ele>
        <time>2019-04-20T17:20:45Z</time>
      </trkpt>
      <trkpt lat="43.17634" lon="5.57357">
        <ele>328.91</ele>
        <time>2019-04-20T17:20:46Z</time>
      </trkpt>
      <trkpt lat="43.17631" lon="5.57358">
        <ele>329.39</ele>
        <time>2019-04-20T17:20:56Z</time>
      </trkpt>
      <trkpt lat="43.17632" lon="5.57357">
        <ele>329.39</ele>
        <time>2019-04-20T17:20:57Z</time>
      </trkpt>
      <trkpt lat="43.17633" lon="5.57356">
        <ele>329.87</ele>
        <time>2019-04-20T17:20:59Z</time>
      </trkpt>
      <trkpt lat="43.17635" lon="5.57356">
        <ele>329.87</ele>
        <time>2019-04-20T17:21:00Z</time>
      </trkpt>
      <trkpt lat="43.17635" lon="5.57357">
        <ele>329.87</ele>
        <time>2019-04-20T17:21:01Z</time>
      </trkpt>
      <trkpt lat="43.17635" lon="5.5736">
        <ele>326.02</ele>
        <time>2019-04-20T17:21:02Z</time>
      </trkpt>
      <trkpt lat="43.17634" lon="5.57362">
        <ele>325.06</ele>
        <time>2019-04-20T17:21:03Z</time>
      </trkpt>
      <trkpt lat="43.17633" lon="5.57365">
        <ele>325.06</ele>
        <time>2019-04-20T17:21:04Z</time>
      </trkpt>
      <trkpt lat="43.17632" lon="5.57367">
        <ele>327.47</ele>
        <time>2019-04-20T17:21:06Z</time>
      </trkpt>
      <trkpt lat="43.1763" lon="5.57368">
        <ele>325.54</ele>
        <time>2019-04-20T17:21:08Z</time>
      </trkpt>
      <trkpt lat="43.17628" lon="5.57369">
        <ele>326.02</ele>
        <time>2019-04-20T17:21:09Z</time>
      </trkpt>
      <trkpt lat="43.17619" lon="5.57373">
        <ele>325.06</ele>
        <time>2019-04-20T17:21:15Z</time>
      </trkpt>
      <trkpt lat="43.17609" lon="5.57375">
        <ele>323.62</ele>
        <time>2019-04-20T17:21:21Z</time>
      </trkpt>
      <trkpt lat="43.17608" lon="5.57376">
        <ele>323.62</ele>
        <time>2019-04-20T17:21:22Z</time>
      </trkpt>
      <trkpt lat="43.17606" lon="5.57376">
        <ele>324.1</ele>
        <time>2019-04-20T17:21:23Z</time>
      </trkpt>
      <trkpt lat="43.17605" lon="5.57377">
        <ele>324.1</ele>
        <time>2019-04-20T17:21:24Z</time>
      </trkpt>
      <trkpt lat="43.17603" lon="5.57377">
        <ele>323.62</ele>
        <time>2019-04-20T17:21:25Z</time>
      </trkpt>
      <trkpt lat="43.17586" lon="5.57389">
        <ele>324.1</ele>
        <time>2019-04-20T17:21:39Z</time>
      </trkpt>
      <trkpt lat="43.17581" lon="5.57395">
        <ele>322.66</ele>
        <time>2019-04-20T17:21:44Z</time>
      </trkpt>
      <trkpt lat="43.17579" lon="5.57397">
        <ele>324.1</ele>
        <time>2019-04-20T17:21:47Z</time>
      </trkpt>
      <trkpt lat="43.17576" lon="5.57401">
        <ele>322.66</ele>
        <time>2019-04-20T17:21:52Z</time>
      </trkpt>
      <trkpt lat="43.17566" lon="5.57413">
        <ele>319.3</ele>
        <time>2019-04-20T17:22:04Z</time>
      </trkpt>
      <trkpt lat="43.17553" lon="5.57423">
        <ele>317.37</ele>
        <time>2019-04-20T17:22:14Z</time>
      </trkpt>
      <trkpt lat="43.17545" lon="5.57434">
        <ele>314.01</ele>
        <time>2019-04-20T17:22:23Z</time>
      </trkpt>
      <trkpt lat="43.17544" lon="5.57435">
        <ele>314.01</ele>
        <time>2019-04-20T17:22:24Z</time>
      </trkpt>
      <trkpt lat="43.17539" lon="5.57443">
        <ele>313.05</ele>
        <time>2019-04-20T17:22:28Z</time>
      </trkpt>
      <trkpt lat="43.1753" lon="5.57452">
        <ele>310.64</ele>
        <time>2019-04-20T17:22:36Z</time>
      </trkpt>
      <trkpt lat="43.17526" lon="5.5746">
        <ele>310.64</ele>
        <time>2019-04-20T17:22:42Z</time>
      </trkpt>
      <trkpt lat="43.17525" lon="5.57461">
        <ele>309.2</ele>
        <time>2019-04-20T17:22:43Z</time>
      </trkpt>
      <trkpt lat="43.17524" lon="5.57461">
        <ele>309.2</ele>
        <time>2019-04-20T17:22:44Z</time>
      </trkpt>
      <trkpt lat="43.17519" lon="5.57469">
        <ele>309.2</ele>
        <time>2019-04-20T17:22:50Z</time>
      </trkpt>
      <trkpt lat="43.17519" lon="5.5747">
        <ele>309.2</ele>
        <time>2019-04-20T17:22:51Z</time>
      </trkpt>
      <trkpt lat="43.17522" lon="5.57471">
        <ele>307.76</ele>
        <time>2019-04-20T17:23:02Z</time>
      </trkpt>
      <trkpt lat="43.17525" lon="5.5747">
        <ele>307.76</ele>
        <time>2019-04-20T17:23:03Z</time>
      </trkpt>
      <trkpt lat="43.17527" lon="5.57469">
        <ele>307.28</ele>
        <time>2019-04-20T17:23:04Z</time>
      </trkpt>
      <trkpt lat="43.17529" lon="5.57469">
        <ele>307.28</ele>
        <time>2019-04-20T17:23:05Z</time>
      </trkpt>
      <trkpt lat="43.17531" lon="5.57469">
        <ele>306.8</ele>
        <time>2019-04-20T17:23:06Z</time>
      </trkpt>
      <trkpt lat="43.17534" lon="5.5747">
        <ele>306.32</ele>
        <time>2019-04-20T17:23:07Z</time>
      </trkpt>
      <trkpt lat="43.17535" lon="5.5747">
        <ele>305.84</ele>
        <time>2019-04-20T17:23:08Z</time>
      </trkpt>
      <trkpt lat="43.17537" lon="5.5747">
        <ele>306.32</ele>
        <time>2019-04-20T17:23:09Z</time>
      </trkpt>
      <trkpt lat="43.17538" lon="5.5747">
        <ele>306.32</ele>
        <time>2019-04-20T17:23:10Z</time>
      </trkpt>
      <trkpt lat="43.1754" lon="5.5747">
        <ele>305.36</ele>
        <time>2019-04-20T17:23:19Z</time>
      </trkpt>
      <trkpt lat="43.17541" lon="5.5747">
        <ele>303.91</ele>
        <time>2019-04-20T17:23:20Z</time>
      </trkpt>
      <trkpt lat="43.17542" lon="5.5747">
        <ele>304.88</ele>
        <time>2019-04-20T17:23:21Z</time>
      </trkpt>
      <trkpt lat="43.17544" lon="5.57469">
        <ele>303.91</ele>
        <time>2019-04-20T17:23:23Z</time>
      </trkpt>
      <trkpt lat="43.17549" lon="5.57469">
        <ele>302.47</ele>
        <time>2019-04-20T17:23:31Z</time>
      </trkpt>
      <trkpt lat="43.17551" lon="5.57471">
        <ele>302.47</ele>
        <time>2019-04-20T17:23:46Z</time>
      </trkpt>
      <trkpt lat="43.17558" lon="5.57474">
        <ele>300.07</ele>
        <time>2019-04-20T17:23:58Z</time>
      </trkpt>
      <trkpt lat="43.17566" lon="5.57478">
        <ele>298.15</ele>
        <time>2019-04-20T17:24:04Z</time>
      </trkpt>
      <trkpt lat="43.17581" lon="5.57486">
        <ele>296.22</ele>
        <time>2019-04-20T17:24:14Z</time>
      </trkpt>
      <trkpt lat="43.17585" lon="5.57486">
        <ele>296.22</ele>
        <time>2019-04-20T17:24:18Z</time>
      </trkpt>
      <trkpt lat="43.17586" lon="5.57486">
        <ele>295.74</ele>
        <time>2019-04-20T17:24:19Z</time>
      </trkpt>
      <trkpt lat="43.176" lon="5.5749">
        <ele>293.34</ele>
        <time>2019-04-20T17:24:31Z</time>
      </trkpt>
      <trkpt lat="43.17607" lon="5.57491">
        <ele>292.38</ele>
        <time>2019-04-20T17:24:38Z</time>
      </trkpt>
      <trkpt lat="43.17609" lon="5.57493">
        <ele>292.38</ele>
        <time>2019-04-20T17:24:39Z</time>
      </trkpt>
      <trkpt lat="43.1761" lon="5.57493">
        <ele>292.38</ele>
        <time>2019-04-20T17:24:40Z</time>
      </trkpt>
      <trkpt lat="43.17623" lon="5.57497">
        <ele>289.97</ele>
        <time>2019-04-20T17:24:53Z</time>
      </trkpt>
      <trkpt lat="43.17629" lon="5.57497">
        <ele>288.53</ele>
        <time>2019-04-20T17:25:05Z</time>
      </trkpt>
      <trkpt lat="43.1763" lon="5.57497">
        <ele>289.01</ele>
        <time>2019-04-20T17:25:06Z</time>
      </trkpt>
      <trkpt lat="43.17632" lon="5.57497">
        <ele>289.01</ele>
        <time>2019-04-20T17:25:07Z</time>
      </trkpt>
      <trkpt lat="43.17634" lon="5.57497">
        <ele>288.05</ele>
        <time>2019-04-20T17:25:08Z</time>
      </trkpt>
      <trkpt lat="43.17653" lon="5.57503">
        <ele>286.61</ele>
        <time>2019-04-20T17:25:19Z</time>
      </trkpt>
      <trkpt lat="43.1767" lon="5.57502">
        <ele>286.13</ele>
        <time>2019-04-20T17:25:30Z</time>
      </trkpt>
      <trkpt lat="43.17678" lon="5.57502">
        <ele>284.69</ele>
        <time>2019-04-20T17:25:42Z</time>
      </trkpt>
      <trkpt lat="43.17685" lon="5.57504">
        <ele>282.28</ele>
        <time>2019-04-20T17:25:51Z</time>
      </trkpt>
      <trkpt lat="43.17698" lon="5.57509">
        <ele>280.36</ele>
        <time>2019-04-20T17:26:05Z</time>
      </trkpt>
      <trkpt lat="43.17703" lon="5.57511">
        <ele>279.88</ele>
        <time>2019-04-20T17:26:10Z</time>
      </trkpt>
      <trkpt lat="43.17717" lon="5.57518">
        <ele>277.48</ele>
        <time>2019-04-20T17:26:24Z</time>
      </trkpt>
      <trkpt lat="43.17726" lon="5.57524">
        <ele>275.56</ele>
        <time>2019-04-20T17:26:40Z</time>
      </trkpt>
      <trkpt lat="43.17726" lon="5.57525">
        <ele>275.07</ele>
        <time>2019-04-20T17:26:41Z</time>
      </trkpt>
      <trkpt lat="43.17725" lon="5.57527">
        <ele>275.07</ele>
        <time>2019-04-20T17:26:54Z</time>
      </trkpt>
      <trkpt lat="43.17726" lon="5.57523">
        <ele>274.11</ele>
        <time>2019-04-20T17:27:18Z</time>
      </trkpt>
      <trkpt lat="43.17723" lon="5.57521">
        <ele>274.11</ele>
        <time>2019-04-20T17:27:51Z</time>
      </trkpt>
      <trkpt lat="43.17721" lon="5.57518">
        <ele>275.56</ele>
        <time>2019-04-20T17:28:20Z</time>
      </trkpt>
      <trkpt lat="43.1772" lon="5.57515">
        <ele>276.52</ele>
        <time>2019-04-20T17:28:48Z</time>
      </trkpt>
      <trkpt lat="43.17726" lon="5.57523">
        <ele>275.56</ele>
        <time>2019-04-20T17:28:58Z</time>
      </trkpt>
      <trkpt lat="43.17723" lon="5.57533">
        <ele>273.15</ele>
        <time>2019-04-20T17:29:06Z</time>
      </trkpt>
      <trkpt lat="43.17713" lon="5.5755">
        <ele>271.23</ele>
        <time>2019-04-20T17:29:18Z</time>
      </trkpt>
      <trkpt lat="43.17713" lon="5.57549">
        <ele>270.75</ele>
        <time>2019-04-20T17:29:21Z</time>
      </trkpt>
      <trkpt lat="43.17712" lon="5.57551">
        <ele>270.75</ele>
        <time>2019-04-20T17:29:22Z</time>
      </trkpt>
      <trkpt lat="43.17711" lon="5.57551">
        <ele>270.75</ele>
        <time>2019-04-20T17:29:23Z</time>
      </trkpt>
      <trkpt lat="43.17709" lon="5.57555">
        <ele>268.83</ele>
        <time>2019-04-20T17:29:29Z</time>
      </trkpt>
      <trkpt lat="43.17704" lon="5.5756">
        <ele>268.83</ele>
        <time>2019-04-20T17:29:35Z</time>
      </trkpt>
      <trkpt lat="43.177" lon="5.57568">
        <ele>266.9</ele>
        <time>2019-04-20T17:29:49Z</time>
      </trkpt>
      <trkpt lat="43.17699" lon="5.5757">
        <ele>267.38</ele>
        <time>2019-04-20T17:29:58Z</time>
      </trkpt>
      <trkpt lat="43.17701" lon="5.57572">
        <ele>265.46</ele>
        <time>2019-04-20T17:30:06Z</time>
      </trkpt>
      <trkpt lat="43.17703" lon="5.57573">
        <ele>265.46</ele>
        <time>2019-04-20T17:30:08Z</time>
      </trkpt>
      <trkpt lat="43.17706" lon="5.57572">
        <ele>264.98</ele>
        <time>2019-04-20T17:30:10Z</time>
      </trkpt>
      <trkpt lat="43.17707" lon="5.57572">
        <ele>265.46</ele>
        <time>2019-04-20T17:30:11Z</time>
      </trkpt>
      <trkpt lat="43.17718" lon="5.57569">
        <ele>263.06</ele>
        <time>2019-04-20T17:30:20Z</time>
      </trkpt>
      <trkpt lat="43.17729" lon="5.57571">
        <ele>261.14</ele>
        <time>2019-04-20T17:30:32Z</time>
      </trkpt>
      <trkpt lat="43.17731" lon="5.57572">
        <ele>261.14</ele>
        <time>2019-04-20T17:30:33Z</time>
      </trkpt>
      <trkpt lat="43.17743" lon="5.5758">
        <ele>260.65</ele>
        <time>2019-04-20T17:30:43Z</time>
      </trkpt>
      <trkpt lat="43.1775" lon="5.57588">
        <ele>262.1</ele>
        <time>2019-04-20T17:30:53Z</time>
      </trkpt>
      <trkpt lat="43.17751" lon="5.57595">
        <ele>262.1</ele>
        <time>2019-04-20T17:30:59Z</time>
      </trkpt>
      <trkpt lat="43.1775" lon="5.57596">
        <ele>261.14</ele>
        <time>2019-04-20T17:31:00Z</time>
      </trkpt>
      <trkpt lat="43.17744" lon="5.57603">
        <ele>258.73</ele>
        <time>2019-04-20T17:31:09Z</time>
      </trkpt>
      <trkpt lat="43.17738" lon="5.57609">
        <ele>255.85</ele>
        <time>2019-04-20T17:31:17Z</time>
      </trkpt>
      <trkpt lat="43.17738" lon="5.57616">
        <ele>254.41</ele>
        <time>2019-04-20T17:31:25Z</time>
      </trkpt>
      <trkpt lat="43.17737" lon="5.5762">
        <ele>253.93</ele>
        <time>2019-04-20T17:31:28Z</time>
      </trkpt>
      <trkpt lat="43.17735" lon="5.57622">
        <ele>253.44</ele>
        <time>2019-04-20T17:31:30Z</time>
      </trkpt>
      <trkpt lat="43.17734" lon="5.57623">
        <ele>252.96</ele>
        <time>2019-04-20T17:31:31Z</time>
      </trkpt>
      <trkpt lat="43.17729" lon="5.57635">
        <ele>251.04</ele>
        <time>2019-04-20T17:31:40Z</time>
      </trkpt>
      <trkpt lat="43.17724" lon="5.57647">
        <ele>249.12</ele>
        <time>2019-04-20T17:31:53Z</time>
      </trkpt>
      <trkpt lat="43.17722" lon="5.57649">
        <ele>248.16</ele>
        <time>2019-04-20T17:31:55Z</time>
      </trkpt>
      <trkpt lat="43.17712" lon="5.57661">
        <ele>246.72</ele>
        <time>2019-04-20T17:32:07Z</time>
      </trkpt>
      <trkpt lat="43.17711" lon="5.57662">
        <ele>245.75</ele>
        <time>2019-04-20T17:32:08Z</time>
      </trkpt>
      <trkpt lat="43.17709" lon="5.57671">
        <ele>245.75</ele>
        <time>2019-04-20T17:32:15Z</time>
      </trkpt>
      <trkpt lat="43.17705" lon="5.57677">
        <ele>244.31</ele>
        <time>2019-04-20T17:32:21Z</time>
      </trkpt>
      <trkpt lat="43.17702" lon="5.57695">
        <ele>243.35</ele>
        <time>2019-04-20T17:32:35Z</time>
      </trkpt>
      <trkpt lat="43.17695" lon="5.57707">
        <ele>241.43</ele>
        <time>2019-04-20T17:32:49Z</time>
      </trkpt>
      <trkpt lat="43.17692" lon="5.57708">
        <ele>240.47</ele>
        <time>2019-04-20T17:32:53Z</time>
      </trkpt>
      <trkpt lat="43.17683" lon="5.57708">
        <ele>239.51</ele>
        <time>2019-04-20T17:33:09Z</time>
      </trkpt>
      <trkpt lat="43.17672" lon="5.57724">
        <ele>237.1</ele>
        <time>2019-04-20T17:33:25Z</time>
      </trkpt>
      <trkpt lat="43.17658" lon="5.57737">
        <ele>235.66</ele>
        <time>2019-04-20T17:33:40Z</time>
      </trkpt>
      <trkpt lat="43.17646" lon="5.57745">
        <ele>235.18</ele>
        <time>2019-04-20T17:33:53Z</time>
      </trkpt>
      <trkpt lat="43.17642" lon="5.57738">
        <ele>235.18</ele>
        <time>2019-04-20T17:34:15Z</time>
      </trkpt>
      <trkpt lat="43.17643" lon="5.57743">
        <ele>235.18</ele>
        <time>2019-04-20T17:34:35Z</time>
      </trkpt>
      <trkpt lat="43.17641" lon="5.57736">
        <ele>234.7</ele>
        <time>2019-04-20T17:34:51Z</time>
      </trkpt>
      <trkpt lat="43.17635" lon="5.5773">
        <ele>234.7</ele>
        <time>2019-04-20T17:35:04Z</time>
      </trkpt>
      <trkpt lat="43.17636" lon="5.57729">
        <ele>234.22</ele>
        <time>2019-04-20T17:35:21Z</time>
      </trkpt>
      <trkpt lat="43.1762" lon="5.57712">
        <ele>234.7</ele>
        <time>2019-04-20T17:35:38Z</time>
      </trkpt>
      <trkpt lat="43.17617" lon="5.57709">
        <ele>234.22</ele>
        <time>2019-04-20T17:35:42Z</time>
      </trkpt>
      <trkpt lat="43.17613" lon="5.57705">
        <ele>234.7</ele>
        <time>2019-04-20T17:35:46Z</time>
      </trkpt>
      <trkpt lat="43.17597" lon="5.57691">
        <ele>234.7</ele>
        <time>2019-04-20T17:36:00Z</time>
      </trkpt>
      <trkpt lat="43.17598" lon="5.57692">
        <ele>234.7</ele>
        <time>2019-04-20T17:36:18Z</time>
      </trkpt>
      <trkpt lat="43.176" lon="5.57694">
        <ele>234.22</ele>
        <time>2019-04-20T17:36:37Z</time>
      </trkpt>
      <trkpt lat="43.17615" lon="5.5771">
        <ele>235.18</ele>
        <time>2019-04-20T17:37:00Z</time>
      </trkpt>
      <trkpt lat="43.17621" lon="5.5772">
        <ele>234.7</ele>
        <time>2019-04-20T17:37:14Z</time>
      </trkpt>
      <trkpt lat="43.17621" lon="5.57717">
        <ele>234.7</ele>
        <time>2019-04-20T17:37:36Z</time>
      </trkpt>
      <trkpt lat="43.1762" lon="5.5772">
        <ele>235.66</ele>
        <time>2019-04-20T17:38:00Z</time>
      </trkpt>
      <trkpt lat="43.17622" lon="5.57721">
        <ele>235.66</ele>
        <time>2019-04-20T17:38:01Z</time>
      </trkpt>
      <trkpt lat="43.1763" lon="5.57745">
        <ele>235.18</ele>
        <time>2019-04-20T17:38:15Z</time>
      </trkpt>
      <trkpt lat="43.17631" lon="5.57752">
        <ele>235.18</ele>
        <time>2019-04-20T17:38:19Z</time>
      </trkpt>
      <trkpt lat="43.17631" lon="5.57759">
        <ele>235.66</ele>
        <time>2019-04-20T17:38:26Z</time>
      </trkpt>
      <trkpt lat="43.17618" lon="5.57763">
        <ele>234.7</ele>
        <time>2019-04-20T17:38:38Z</time>
      </trkpt>
      <trkpt lat="43.17617" lon="5.57764">
        <ele>234.22</ele>
        <time>2019-04-20T17:38:39Z</time>
      </trkpt>
      <trkpt lat="43.17616" lon="5.57765">
        <ele>234.7</ele>
        <time>2019-04-20T17:38:40Z</time>
      </trkpt>
      <trkpt lat="43.17613" lon="5.57767">
        <ele>234.7</ele>
        <time>2019-04-20T17:38:49Z</time>
      </trkpt>
      <trkpt lat="43.17613" lon="5.57771">
        <ele>234.22</ele>
        <time>2019-04-20T17:38:54Z</time>
      </trkpt>
      <trkpt lat="43.17613" lon="5.57776">
        <ele>233.26</ele>
        <time>2019-04-20T17:39:00Z</time>
      </trkpt>
      <trkpt lat="43.17606" lon="5.57787">
        <ele>233.74</ele>
        <time>2019-04-20T17:39:14Z</time>
      </trkpt>
      <trkpt lat="43.17604" lon="5.5779">
        <ele>233.74</ele>
        <time>2019-04-20T17:39:26Z</time>
      </trkpt>
      <trkpt lat="43.17601" lon="5.57791">
        <ele>232.3</ele>
        <time>2019-04-20T17:39:39Z</time>
      </trkpt>
      <trkpt lat="43.17601" lon="5.57792">
        <ele>231.81</ele>
        <time>2019-04-20T17:39:40Z</time>
      </trkpt>
      <trkpt lat="43.17599" lon="5.57794">
        <ele>232.3</ele>
        <time>2019-04-20T17:39:41Z</time>
      </trkpt>
      <trkpt lat="43.17598" lon="5.57795">
        <ele>232.3</ele>
        <time>2019-04-20T17:39:42Z</time>
      </trkpt>
      <trkpt lat="43.17594" lon="5.57799">
        <ele>231.81</ele>
        <time>2019-04-20T17:39:51Z</time>
      </trkpt>
      <trkpt lat="43.17593" lon="5.57812">
        <ele>232.78</ele>
        <time>2019-04-20T17:40:04Z</time>
      </trkpt>
      <trkpt lat="43.17591" lon="5.57821">
        <ele>231.33</ele>
        <time>2019-04-20T17:40:17Z</time>
      </trkpt>
      <trkpt lat="43.17582" lon="5.57823">
        <ele>231.33</ele>
        <time>2019-04-20T17:40:29Z</time>
      </trkpt>
      <trkpt lat="43.17585" lon="5.57834">
        <ele>231.33</ele>
        <time>2019-04-20T17:40:46Z</time>
      </trkpt>
      <trkpt lat="43.17576" lon="5.57841">
        <ele>229.89</ele>
        <time>2019-04-20T17:40:54Z</time>
      </trkpt>
      <trkpt lat="43.17575" lon="5.57843">
        <ele>228.93</ele>
        <time>2019-04-20T17:40:56Z</time>
      </trkpt>
      <trkpt lat="43.17572" lon="5.57849">
        <ele>228.93</ele>
        <time>2019-04-20T17:41:04Z</time>
      </trkpt>
      <trkpt lat="43.17568" lon="5.57855">
        <ele>227.97</ele>
        <time>2019-04-20T17:41:15Z</time>
      </trkpt>
      <trkpt lat="43.17568" lon="5.5786">
        <ele>227.01</ele>
        <time>2019-04-20T17:41:20Z</time>
      </trkpt>
      <trkpt lat="43.17565" lon="5.57864">
        <ele>226.53</ele>
        <time>2019-04-20T17:41:23Z</time>
      </trkpt>
      <trkpt lat="43.17558" lon="5.57875">
        <ele>225.09</ele>
        <time>2019-04-20T17:41:34Z</time>
      </trkpt>
      <trkpt lat="43.17557" lon="5.57876">
        <ele>225.09</ele>
        <time>2019-04-20T17:41:35Z</time>
      </trkpt>
      <trkpt lat="43.17552" lon="5.57883">
        <ele>223.16</ele>
        <time>2019-04-20T17:41:46Z</time>
      </trkpt>
      <trkpt lat="43.17551" lon="5.57883">
        <ele>223.64</ele>
        <time>2019-04-20T17:41:48Z</time>
      </trkpt>
      <trkpt lat="43.17546" lon="5.57891">
        <ele>221.24</ele>
        <time>2019-04-20T17:41:58Z</time>
      </trkpt>
      <trkpt lat="43.17541" lon="5.57892">
        <ele>221.24</ele>
        <time>2019-04-20T17:42:03Z</time>
      </trkpt>
      <trkpt lat="43.17541" lon="5.57894">
        <ele>221.24</ele>
        <time>2019-04-20T17:42:04Z</time>
      </trkpt>
      <trkpt lat="43.17537" lon="5.579">
        <ele>220.28</ele>
        <time>2019-04-20T17:42:09Z</time>
      </trkpt>
      <trkpt lat="43.1753" lon="5.57903">
        <ele>218.84</ele>
        <time>2019-04-20T17:42:15Z</time>
      </trkpt>
      <trkpt lat="43.1753" lon="5.57906">
        <ele>218.84</ele>
        <time>2019-04-20T17:42:27Z</time>
      </trkpt>
      <trkpt lat="43.17529" lon="5.57907">
        <ele>218.36</ele>
        <time>2019-04-20T17:42:28Z</time>
      </trkpt>
      <trkpt lat="43.17529" lon="5.57909">
        <ele>218.36</ele>
        <time>2019-04-20T17:42:29Z</time>
      </trkpt>
      <trkpt lat="43.17526" lon="5.5791">
        <ele>216.43</ele>
        <time>2019-04-20T17:42:45Z</time>
      </trkpt>
      <trkpt lat="43.17525" lon="5.57915">
        <ele>215.95</ele>
        <time>2019-04-20T17:42:59Z</time>
      </trkpt>
      <trkpt lat="43.17523" lon="5.57923">
        <ele>215.47</ele>
        <time>2019-04-20T17:43:11Z</time>
      </trkpt>
      <trkpt lat="43.17523" lon="5.57926">
        <ele>214.51</ele>
        <time>2019-04-20T17:43:15Z</time>
      </trkpt>
      <trkpt lat="43.17523" lon="5.57928">
        <ele>214.03</ele>
        <time>2019-04-20T17:43:16Z</time>
      </trkpt>
      <trkpt lat="43.17523" lon="5.5793">
        <ele>214.03</ele>
        <time>2019-04-20T17:43:17Z</time>
      </trkpt>
      <trkpt lat="43.17522" lon="5.57939">
        <ele>212.59</ele>
        <time>2019-04-20T17:43:25Z</time>
      </trkpt>
      <trkpt lat="43.17522" lon="5.57941">
        <ele>212.11</ele>
        <time>2019-04-20T17:43:26Z</time>
      </trkpt>
      <trkpt lat="43.17523" lon="5.57943">
        <ele>212.59</ele>
        <time>2019-04-20T17:43:40Z</time>
      </trkpt>
      <trkpt lat="43.17521" lon="5.57947">
        <ele>211.63</ele>
        <time>2019-04-20T17:43:50Z</time>
      </trkpt>
      <trkpt lat="43.17521" lon="5.57951">
        <ele>211.15</ele>
        <time>2019-04-20T17:44:02Z</time>
      </trkpt>
      <trkpt lat="43.17521" lon="5.57953">
        <ele>211.15</ele>
        <time>2019-04-20T17:44:04Z</time>
      </trkpt>
      <trkpt lat="43.17522" lon="5.57961">
        <ele>211.15</ele>
        <time>2019-04-20T17:44:11Z</time>
      </trkpt>
      <trkpt lat="43.17521" lon="5.57969">
        <ele>209.7</ele>
        <time>2019-04-20T17:44:16Z</time>
      </trkpt>
      <trkpt lat="43.17521" lon="5.57982">
        <ele>208.26</ele>
        <time>2019-04-20T17:44:24Z</time>
      </trkpt>
      <trkpt lat="43.17522" lon="5.57987">
        <ele>206.82</ele>
        <time>2019-04-20T17:44:32Z</time>
      </trkpt>
      <trkpt lat="43.17522" lon="5.57989">
        <ele>206.34</ele>
        <time>2019-04-20T17:44:33Z</time>
      </trkpt>
      <trkpt lat="43.17522" lon="5.57991">
        <ele>206.82</ele>
        <time>2019-04-20T17:44:34Z</time>
      </trkpt>
      <trkpt lat="43.17522" lon="5.57993">
        <ele>206.82</ele>
        <time>2019-04-20T17:44:35Z</time>
      </trkpt>
      <trkpt lat="43.17522" lon="5.57995">
        <ele>205.86</ele>
        <time>2019-04-20T17:44:36Z</time>
      </trkpt>
      <trkpt lat="43.1753" lon="5.58011">
        <ele>203.46</ele>
        <time>2019-04-20T17:44:49Z</time>
      </trkpt>
      <trkpt lat="43.17532" lon="5.58011">
        <ele>202.98</ele>
        <time>2019-04-20T17:44:52Z</time>
      </trkpt>
      <trkpt lat="43.17534" lon="5.58012">
        <ele>202.49</ele>
        <time>2019-04-20T17:44:53Z</time>
      </trkpt>
      <trkpt lat="43.17534" lon="5.58015">
        <ele>202.49</ele>
        <time>2019-04-20T17:44:54Z</time>
      </trkpt>
      <trkpt lat="43.17535" lon="5.58018">
        <ele>202.49</ele>
        <time>2019-04-20T17:44:55Z</time>
      </trkpt>
      <trkpt lat="43.17536" lon="5.58021">
        <ele>202.49</ele>
        <time>2019-04-20T17:44:56Z</time>
      </trkpt>
      <trkpt lat="43.17537" lon="5.58024">
        <ele>202.01</ele>
        <time>2019-04-20T17:44:57Z</time>
      </trkpt>
      <trkpt lat="43.17537" lon="5.58027">
        <ele>202.01</ele>
        <time>2019-04-20T17:44:58Z</time>
      </trkpt>
      <trkpt lat="43.17537" lon="5.5803">
        <ele>202.01</ele>
        <time>2019-04-20T17:44:59Z</time>
      </trkpt>
      <trkpt lat="43.17541" lon="5.58041">
        <ele>199.13</ele>
        <time>2019-04-20T17:45:09Z</time>
      </trkpt>
      <trkpt lat="43.17548" lon="5.58044">
        <ele>196.25</ele>
        <time>2019-04-20T17:45:20Z</time>
      </trkpt>
      <trkpt lat="43.17557" lon="5.58056">
        <ele>195.28</ele>
        <time>2019-04-20T17:45:36Z</time>
      </trkpt>
      <trkpt lat="43.17557" lon="5.58058">
        <ele>195.28</ele>
        <time>2019-04-20T17:45:52Z</time>
      </trkpt>
      <trkpt lat="43.17557" lon="5.5806">
        <ele>194.32</ele>
        <time>2019-04-20T17:45:54Z</time>
      </trkpt>
      <trkpt lat="43.17558" lon="5.58062">
        <ele>193.84</ele>
        <time>2019-04-20T17:45:55Z</time>
      </trkpt>
      <trkpt lat="43.17559" lon="5.58064">
        <ele>193.36</ele>
        <time>2019-04-20T17:45:56Z</time>
      </trkpt>
      <trkpt lat="43.1756" lon="5.58065">
        <ele>193.36</ele>
        <time>2019-04-20T17:45:57Z</time>
      </trkpt>
      <trkpt lat="43.17562" lon="5.58066">
        <ele>193.36</ele>
        <time>2019-04-20T17:45:58Z</time>
      </trkpt>
      <trkpt lat="43.17568" lon="5.58072">
        <ele>192.4</ele>
        <time>2019-04-20T17:46:06Z</time>
      </trkpt>
      <trkpt lat="43.17568" lon="5.5808">
        <ele>192.4</ele>
        <time>2019-04-20T17:46:11Z</time>
      </trkpt>
      <trkpt lat="43.17564" lon="5.58084">
        <ele>191.92</ele>
        <time>2019-04-20T17:46:18Z</time>
      </trkpt>
      <trkpt lat="43.17562" lon="5.58085">
        <ele>191.92</ele>
        <time>2019-04-20T17:46:19Z</time>
      </trkpt>
      <trkpt lat="43.17561" lon="5.58085">
        <ele>192.4</ele>
        <time>2019-04-20T17:46:20Z</time>
      </trkpt>
      <trkpt lat="43.1755" lon="5.58089">
        <ele>192.88</ele>
        <time>2019-04-20T17:46:30Z</time>
      </trkpt>
      <trkpt lat="43.17541" lon="5.58094">
        <ele>193.36</ele>
        <time>2019-04-20T17:46:36Z</time>
      </trkpt>
      <trkpt lat="43.1754" lon="5.58095">
        <ele>192.88</ele>
        <time>2019-04-20T17:46:37Z</time>
      </trkpt>
      <trkpt lat="43.17538" lon="5.58099">
        <ele>192.88</ele>
        <time>2019-04-20T17:46:41Z</time>
      </trkpt>
      <trkpt lat="43.17536" lon="5.58103">
        <ele>191.92</ele>
        <time>2019-04-20T17:46:45Z</time>
      </trkpt>
      <trkpt lat="43.17534" lon="5.58107">
        <ele>191.44</ele>
        <time>2019-04-20T17:46:49Z</time>
      </trkpt>
      <trkpt lat="43.17533" lon="5.58108">
        <ele>191.92</ele>
        <time>2019-04-20T17:46:50Z</time>
      </trkpt>
      <trkpt lat="43.17531" lon="5.58109">
        <ele>191.92</ele>
        <time>2019-04-20T17:46:51Z</time>
      </trkpt>
      <trkpt lat="43.17529" lon="5.58111">
        <ele>191.92</ele>
        <time>2019-04-20T17:46:52Z</time>
      </trkpt>
      <trkpt lat="43.17528" lon="5.58112">
        <ele>191.44</ele>
        <time>2019-04-20T17:46:53Z</time>
      </trkpt>
      <trkpt lat="43.17519" lon="5.58122">
        <ele>190.96</ele>
        <time>2019-04-20T17:47:01Z</time>
      </trkpt>
      <trkpt lat="43.17518" lon="5.58125">
        <ele>190.96</ele>
        <time>2019-04-20T17:47:02Z</time>
      </trkpt>
      <trkpt lat="43.17518" lon="5.58127">
        <ele>190</ele>
        <time>2019-04-20T17:47:03Z</time>
      </trkpt>
      <trkpt lat="43.17516" lon="5.58131">
        <ele>189.52</ele>
        <time>2019-04-20T17:47:06Z</time>
      </trkpt>
      <trkpt lat="43.17516" lon="5.58135">
        <ele>188.56</ele>
        <time>2019-04-20T17:47:11Z</time>
      </trkpt>
      <trkpt lat="43.17515" lon="5.58136">
        <ele>188.08</ele>
        <time>2019-04-20T17:47:12Z</time>
      </trkpt>
      <trkpt lat="43.17515" lon="5.58137">
        <ele>188.08</ele>
        <time>2019-04-20T17:47:13Z</time>
      </trkpt>
      <trkpt lat="43.17504" lon="5.58146">
        <ele>188.08</ele>
        <time>2019-04-20T17:47:26Z</time>
      </trkpt>
      <trkpt lat="43.17499" lon="5.58147">
        <ele>189.04</ele>
        <time>2019-04-20T17:47:39Z</time>
      </trkpt>
      <trkpt lat="43.17497" lon="5.58146">
        <ele>189.04</ele>
        <time>2019-04-20T17:47:57Z</time>
      </trkpt>
      <trkpt lat="43.17498" lon="5.58145">
        <ele>188.56</ele>
        <time>2019-04-20T17:48:11Z</time>
      </trkpt>
      <trkpt lat="43.17498" lon="5.58142">
        <ele>188.56</ele>
        <time>2019-04-20T17:48:25Z</time>
      </trkpt>
      <trkpt lat="43.175" lon="5.58146">
        <ele>189.04</ele>
        <time>2019-04-20T17:48:38Z</time>
      </trkpt>
      <trkpt lat="43.17498" lon="5.58149">
        <ele>188.56</ele>
        <time>2019-04-20T17:48:50Z</time>
      </trkpt>
      <trkpt lat="43.17495" lon="5.58151">
        <ele>189.04</ele>
        <time>2019-04-20T17:48:54Z</time>
      </trkpt>
      <trkpt lat="43.17484" lon="5.58159">
        <ele>188.08</ele>
        <time>2019-04-20T17:49:04Z</time>
      </trkpt>
      <trkpt lat="43.17464" lon="5.58172">
        <ele>186.63</ele>
        <time>2019-04-20T17:49:18Z</time>
      </trkpt>
      <trkpt lat="43.17459" lon="5.58184">
        <ele>185.19</ele>
        <time>2019-04-20T17:49:30Z</time>
      </trkpt>
      <trkpt lat="43.17458" lon="5.58185">
        <ele>185.67</ele>
        <time>2019-04-20T17:49:31Z</time>
      </trkpt>
      <trkpt lat="43.17456" lon="5.58187">
        <ele>185.19</ele>
        <time>2019-04-20T17:49:32Z</time>
      </trkpt>
      <trkpt lat="43.17454" lon="5.58188">
        <ele>185.67</ele>
        <time>2019-04-20T17:49:33Z</time>
      </trkpt>
      <trkpt lat="43.17453" lon="5.58189">
        <ele>185.67</ele>
        <time>2019-04-20T17:49:34Z</time>
      </trkpt>
      <trkpt lat="43.17451" lon="5.58189">
        <ele>185.67</ele>
        <time>2019-04-20T17:49:35Z</time>
      </trkpt>
      <trkpt lat="43.1745" lon="5.58189">
        <ele>186.15</ele>
        <time>2019-04-20T17:49:36Z</time>
      </trkpt>
      <trkpt lat="43.1744" lon="5.58203">
        <ele>183.27</ele>
        <time>2019-04-20T17:49:47Z</time>
      </trkpt>
      <trkpt lat="43.17428" lon="5.58216">
        <ele>179.9</ele>
        <time>2019-04-20T17:49:59Z</time>
      </trkpt>
      <trkpt lat="43.17417" lon="5.58234">
        <ele>177.98</ele>
        <time>2019-04-20T17:50:13Z</time>
      </trkpt>
      <trkpt lat="43.17404" lon="5.58246">
        <ele>176.54</ele>
        <time>2019-04-20T17:50:24Z</time>
      </trkpt>
      <trkpt lat="43.17399" lon="5.58259">
        <ele>174.14</ele>
        <time>2019-04-20T17:50:35Z</time>
      </trkpt>
      <trkpt lat="43.17398" lon="5.58268">
        <ele>174.14</ele>
        <time>2019-04-20T17:50:41Z</time>
      </trkpt>
      <trkpt lat="43.17399" lon="5.5827">
        <ele>173.66</ele>
        <time>2019-04-20T17:50:42Z</time>
      </trkpt>
      <trkpt lat="43.17392" lon="5.58285">
        <ele>171.73</ele>
        <time>2019-04-20T17:50:54Z</time>
      </trkpt>
      <trkpt lat="43.1739" lon="5.58288">
        <ele>172.69</ele>
        <time>2019-04-20T17:50:59Z</time>
      </trkpt>
      <trkpt lat="43.17388" lon="5.58291">
        <ele>171.25</ele>
        <time>2019-04-20T17:51:07Z</time>
      </trkpt>
      <trkpt lat="43.17388" lon="5.58292">
        <ele>171.73</ele>
        <time>2019-04-20T17:51:17Z</time>
      </trkpt>
      <trkpt lat="43.17389" lon="5.58289">
        <ele>171.25</ele>
        <time>2019-04-20T17:51:23Z</time>
      </trkpt>
      <trkpt lat="43.17382" lon="5.58289">
        <ele>168.37</ele>
        <time>2019-04-20T17:51:33Z</time>
      </trkpt>
      <trkpt lat="43.17379" lon="5.58294">
        <ele>169.33</ele>
        <time>2019-04-20T17:51:46Z</time>
      </trkpt>
      <trkpt lat="43.17379" lon="5.58295">
        <ele>169.81</ele>
        <time>2019-04-20T17:51:48Z</time>
      </trkpt>
      <trkpt lat="43.17379" lon="5.58293">
        <ele>168.37</ele>
        <time>2019-04-20T17:51:58Z</time>
      </trkpt>
      <trkpt lat="43.17379" lon="5.58292">
        <ele>167.89</ele>
        <time>2019-04-20T17:51:59Z</time>
      </trkpt>
      <trkpt lat="43.1738" lon="5.58292">
        <ele>168.37</ele>
        <time>2019-04-20T17:52:05Z</time>
      </trkpt>
      <trkpt lat="43.17372" lon="5.583">
        <ele>166.93</ele>
        <time>2019-04-20T17:52:16Z</time>
      </trkpt>
      <trkpt lat="43.17369" lon="5.58304">
        <ele>165.48</ele>
        <time>2019-04-20T17:52:22Z</time>
      </trkpt>
      <trkpt lat="43.17368" lon="5.58306">
        <ele>165.96</ele>
        <time>2019-04-20T17:52:36Z</time>
      </trkpt>
      <trkpt lat="43.17368" lon="5.58307">
        <ele>165</ele>
        <time>2019-04-20T17:52:37Z</time>
      </trkpt>
      <trkpt lat="43.17364" lon="5.58311">
        <ele>164.52</ele>
        <time>2019-04-20T17:52:40Z</time>
      </trkpt>
      <trkpt lat="43.17363" lon="5.58313">
        <ele>164.52</ele>
        <time>2019-04-20T17:52:41Z</time>
      </trkpt>
      <trkpt lat="43.17362" lon="5.58315">
        <ele>164.04</ele>
        <time>2019-04-20T17:52:42Z</time>
      </trkpt>
      <trkpt lat="43.17361" lon="5.58317">
        <ele>164.04</ele>
        <time>2019-04-20T17:52:43Z</time>
      </trkpt>
      <trkpt lat="43.17361" lon="5.58319">
        <ele>163.56</ele>
        <time>2019-04-20T17:52:44Z</time>
      </trkpt>
      <trkpt lat="43.17361" lon="5.5832">
        <ele>163.56</ele>
        <time>2019-04-20T17:52:45Z</time>
      </trkpt>
      <trkpt lat="43.1736" lon="5.58321">
        <ele>163.56</ele>
        <time>2019-04-20T17:52:46Z</time>
      </trkpt>
      <trkpt lat="43.17359" lon="5.58328">
        <ele>161.64</ele>
        <time>2019-04-20T17:52:56Z</time>
      </trkpt>
      <trkpt lat="43.17357" lon="5.58332">
        <ele>160.68</ele>
        <time>2019-04-20T17:53:02Z</time>
      </trkpt>
      <trkpt lat="43.17357" lon="5.58334">
        <ele>161.16</ele>
        <time>2019-04-20T17:53:03Z</time>
      </trkpt>
      <trkpt lat="43.17354" lon="5.58342">
        <ele>160.68</ele>
        <time>2019-04-20T17:53:09Z</time>
      </trkpt>
      <trkpt lat="43.17356" lon="5.58357">
        <ele>157.79</ele>
        <time>2019-04-20T17:53:16Z</time>
      </trkpt>
      <trkpt lat="43.17358" lon="5.58365">
        <ele>155.87</ele>
        <time>2019-04-20T17:53:23Z</time>
      </trkpt>
      <trkpt lat="43.1736" lon="5.58374">
        <ele>154.91</ele>
        <time>2019-04-20T17:53:31Z</time>
      </trkpt>
      <trkpt lat="43.17367" lon="5.58386">
        <ele>152.99</ele>
        <time>2019-04-20T17:53:44Z</time>
      </trkpt>
      <trkpt lat="43.17368" lon="5.5839">
        <ele>152.03</ele>
        <time>2019-04-20T17:53:49Z</time>
      </trkpt>
      <trkpt lat="43.17369" lon="5.58391">
        <ele>152.03</ele>
        <time>2019-04-20T17:53:50Z</time>
      </trkpt>
      <trkpt lat="43.1737" lon="5.58393">
        <ele>152.51</ele>
        <time>2019-04-20T17:53:51Z</time>
      </trkpt>
      <trkpt lat="43.17372" lon="5.58394">
        <ele>152.51</ele>
        <time>2019-04-20T17:53:52Z</time>
      </trkpt>
      <trkpt lat="43.17374" lon="5.58396">
        <ele>152.03</ele>
        <time>2019-04-20T17:53:53Z</time>
      </trkpt>
      <trkpt lat="43.17376" lon="5.58397">
        <ele>152.03</ele>
        <time>2019-04-20T17:53:54Z</time>
      </trkpt>
      <trkpt lat="43.17377" lon="5.58398">
        <ele>152.03</ele>
        <time>2019-04-20T17:53:55Z</time>
      </trkpt>
      <trkpt lat="43.17384" lon="5.58404">
        <ele>150.58</ele>
        <time>2019-04-20T17:54:08Z</time>
      </trkpt>
      <trkpt lat="43.17385" lon="5.58405">
        <ele>150.58</ele>
        <time>2019-04-20T17:54:09Z</time>
      </trkpt>
      <trkpt lat="43.17388" lon="5.58411">
        <ele>149.62</ele>
        <time>2019-04-20T17:54:12Z</time>
      </trkpt>
      <trkpt lat="43.17388" lon="5.58413">
        <ele>150.1</ele>
        <time>2019-04-20T17:54:13Z</time>
      </trkpt>
      <trkpt lat="43.17384" lon="5.58424">
        <ele>150.1</ele>
        <time>2019-04-20T17:54:21Z</time>
      </trkpt>
      <trkpt lat="43.17382" lon="5.58425">
        <ele>149.62</ele>
        <time>2019-04-20T17:54:22Z</time>
      </trkpt>
      <trkpt lat="43.17381" lon="5.58426">
        <ele>150.1</ele>
        <time>2019-04-20T17:54:23Z</time>
      </trkpt>
      <trkpt lat="43.17372" lon="5.58435">
        <ele>150.1</ele>
        <time>2019-04-20T17:54:32Z</time>
      </trkpt>
      <trkpt lat="43.17371" lon="5.58435">
        <ele>150.58</ele>
        <time>2019-04-20T17:54:33Z</time>
      </trkpt>
      <trkpt lat="43.17369" lon="5.58436">
        <ele>150.1</ele>
        <time>2019-04-20T17:54:34Z</time>
      </trkpt>
      <trkpt lat="43.17368" lon="5.58436">
        <ele>150.1</ele>
        <time>2019-04-20T17:54:35Z</time>
      </trkpt>
      <trkpt lat="43.17366" lon="5.58436">
        <ele>150.58</ele>
        <time>2019-04-20T17:54:36Z</time>
      </trkpt>
      <trkpt lat="43.17353" lon="5.58442">
        <ele>150.58</ele>
        <time>2019-04-20T17:54:48Z</time>
      </trkpt>
      <trkpt lat="43.17338" lon="5.58451">
        <ele>150.58</ele>
        <time>2019-04-20T17:54:59Z</time>
      </trkpt>
      <trkpt lat="43.17334" lon="5.58455">
        <ele>149.62</ele>
        <time>2019-04-20T17:55:06Z</time>
      </trkpt>
      <trkpt lat="43.17333" lon="5.58456">
        <ele>150.1</ele>
        <time>2019-04-20T17:55:07Z</time>
      </trkpt>
      <trkpt lat="43.17332" lon="5.58457">
        <ele>150.1</ele>
        <time>2019-04-20T17:55:08Z</time>
      </trkpt>
      <trkpt lat="43.1733" lon="5.58457">
        <ele>150.1</ele>
        <time>2019-04-20T17:55:09Z</time>
      </trkpt>
      <trkpt lat="43.17329" lon="5.58459">
        <ele>149.62</ele>
        <time>2019-04-20T17:55:10Z</time>
      </trkpt>
      <trkpt lat="43.17328" lon="5.5846">
        <ele>149.62</ele>
        <time>2019-04-20T17:55:11Z</time>
      </trkpt>
      <trkpt lat="43.17315" lon="5.58465">
        <ele>149.14</ele>
        <time>2019-04-20T17:55:23Z</time>
      </trkpt>
      <trkpt lat="43.17309" lon="5.5847">
        <ele>149.14</ele>
        <time>2019-04-20T17:55:35Z</time>
      </trkpt>
      <trkpt lat="43.17308" lon="5.58471">
        <ele>149.14</ele>
        <time>2019-04-20T17:55:37Z</time>
      </trkpt>
      <trkpt lat="43.17307" lon="5.58472">
        <ele>149.62</ele>
        <time>2019-04-20T17:55:38Z</time>
      </trkpt>
      <trkpt lat="43.17305" lon="5.58474">
        <ele>149.14</ele>
        <time>2019-04-20T17:55:39Z</time>
      </trkpt>
      <trkpt lat="43.17301" lon="5.58477">
        <ele>149.14</ele>
        <time>2019-04-20T17:55:45Z</time>
      </trkpt>
      <trkpt lat="43.173" lon="5.58477">
        <ele>149.14</ele>
        <time>2019-04-20T17:55:46Z</time>
      </trkpt>
      <trkpt lat="43.17298" lon="5.58478">
        <ele>149.14</ele>
        <time>2019-04-20T17:55:47Z</time>
      </trkpt>
      <trkpt lat="43.17296" lon="5.5848">
        <ele>149.14</ele>
        <time>2019-04-20T17:55:51Z</time>
      </trkpt>
      <trkpt lat="43.17297" lon="5.58481">
        <ele>149.62</ele>
        <time>2019-04-20T17:56:03Z</time>
      </trkpt>
      <trkpt lat="43.17296" lon="5.58482">
        <ele>149.14</ele>
        <time>2019-04-20T17:56:08Z</time>
      </trkpt>
      <trkpt lat="43.17296" lon="5.58484">
        <ele>148.66</ele>
        <time>2019-04-20T17:56:11Z</time>
      </trkpt>
      <trkpt lat="43.17295" lon="5.58485">
        <ele>148.66</ele>
        <time>2019-04-20T17:56:12Z</time>
      </trkpt>
      <trkpt lat="43.17285" lon="5.58498">
        <ele>148.18</ele>
        <time>2019-04-20T17:56:25Z</time>
      </trkpt>
      <trkpt lat="43.17277" lon="5.58509">
        <ele>147.22</ele>
        <time>2019-04-20T17:56:36Z</time>
      </trkpt>
      <trkpt lat="43.17275" lon="5.5851">
        <ele>146.74</ele>
        <time>2019-04-20T17:56:38Z</time>
      </trkpt>
      <trkpt lat="43.1726" lon="5.58522">
        <ele>145.78</ele>
        <time>2019-04-20T17:56:50Z</time>
      </trkpt>
      <trkpt lat="43.1726" lon="5.58523">
        <ele>146.26</ele>
        <time>2019-04-20T17:57:05Z</time>
      </trkpt>
      <trkpt lat="43.17259" lon="5.58523">
        <ele>146.26</ele>
        <time>2019-04-20T17:57:12Z</time>
      </trkpt>
      <trkpt lat="43.17263" lon="5.58523">
        <ele>145.78</ele>
        <time>2019-04-20T17:57:23Z</time>
      </trkpt>
      <trkpt lat="43.17258" lon="5.58526">
        <ele>146.26</ele>
        <time>2019-04-20T17:57:39Z</time>
      </trkpt>
      <trkpt lat="43.17244" lon="5.58544">
        <ele>144.82</ele>
        <time>2019-04-20T17:57:50Z</time>
      </trkpt>
      <trkpt lat="43.17243" lon="5.58554">
        <ele>144.34</ele>
        <time>2019-04-20T17:58:00Z</time>
      </trkpt>
      <trkpt lat="43.1724" lon="5.5856">
        <ele>143.37</ele>
        <time>2019-04-20T17:58:05Z</time>
      </trkpt>
      <trkpt lat="43.17239" lon="5.58561">
        <ele>143.37</ele>
        <time>2019-04-20T17:58:06Z</time>
      </trkpt>
      <trkpt lat="43.17238" lon="5.58563">
        <ele>142.89</ele>
        <time>2019-04-20T17:58:07Z</time>
      </trkpt>
      <trkpt lat="43.17236" lon="5.58565">
        <ele>143.37</ele>
        <time>2019-04-20T17:58:08Z</time>
      </trkpt>
      <trkpt lat="43.17235" lon="5.58567">
        <ele>141.93</ele>
        <time>2019-04-20T17:58:09Z</time>
      </trkpt>
      <trkpt lat="43.17231" lon="5.58573">
        <ele>141.93</ele>
        <time>2019-04-20T17:58:19Z</time>
      </trkpt>
      <trkpt lat="43.1723" lon="5.58575">
        <ele>141.45</ele>
        <time>2019-04-20T17:58:22Z</time>
      </trkpt>
      <trkpt lat="43.17228" lon="5.58572">
        <ele>141.45</ele>
        <time>2019-04-20T17:58:33Z</time>
      </trkpt>
      <trkpt lat="43.1723" lon="5.58576">
        <ele>140.97</ele>
        <time>2019-04-20T17:58:50Z</time>
      </trkpt>
      <trkpt lat="43.17227" lon="5.58576">
        <ele>139.53</ele>
        <time>2019-04-20T17:59:03Z</time>
      </trkpt>
      <trkpt lat="43.17227" lon="5.58578">
        <ele>140.01</ele>
        <time>2019-04-20T17:59:16Z</time>
      </trkpt>
      <trkpt lat="43.17226" lon="5.58581">
        <ele>140.01</ele>
        <time>2019-04-20T17:59:17Z</time>
      </trkpt>
      <trkpt lat="43.17225" lon="5.58583">
        <ele>139.05</ele>
        <time>2019-04-20T17:59:18Z</time>
      </trkpt>
      <trkpt lat="43.17224" lon="5.58585">
        <ele>139.05</ele>
        <time>2019-04-20T17:59:19Z</time>
      </trkpt>
      <trkpt lat="43.17223" lon="5.58587">
        <ele>139.53</ele>
        <time>2019-04-20T17:59:20Z</time>
      </trkpt>
      <trkpt lat="43.17222" lon="5.58589">
        <ele>139.53</ele>
        <time>2019-04-20T17:59:21Z</time>
      </trkpt>
      <trkpt lat="43.17221" lon="5.58591">
        <ele>139.05</ele>
        <time>2019-04-20T17:59:22Z</time>
      </trkpt>
      <trkpt lat="43.17217" lon="5.58611">
        <ele>136.16</ele>
        <time>2019-04-20T17:59:35Z</time>
      </trkpt>
      <trkpt lat="43.17215" lon="5.58619">
        <ele>135.68</ele>
        <time>2019-04-20T17:59:47Z</time>
      </trkpt>
      <trkpt lat="43.17215" lon="5.5862">
        <ele>136.16</ele>
        <time>2019-04-20T17:59:52Z</time>
      </trkpt>
      <trkpt lat="43.17217" lon="5.58619">
        <ele>135.2</ele>
        <time>2019-04-20T18:00:02Z</time>
      </trkpt>
      <trkpt lat="43.17215" lon="5.5862">
        <ele>135.68</ele>
        <time>2019-04-20T18:00:04Z</time>
      </trkpt>
      <trkpt lat="43.17213" lon="5.5862">
        <ele>134.72</ele>
        <time>2019-04-20T18:00:06Z</time>
      </trkpt>
      <trkpt lat="43.17213" lon="5.58619">
        <ele>134.72</ele>
        <time>2019-04-20T18:00:07Z</time>
      </trkpt>
      <trkpt lat="43.17215" lon="5.58622">
        <ele>135.2</ele>
        <time>2019-04-20T18:00:19Z</time>
      </trkpt>
      <trkpt lat="43.17214" lon="5.58622">
        <ele>134.24</ele>
        <time>2019-04-20T18:00:29Z</time>
      </trkpt>
      <trkpt lat="43.17214" lon="5.58623">
        <ele>134.72</ele>
        <time>2019-04-20T18:00:30Z</time>
      </trkpt>
      <trkpt lat="43.17215" lon="5.58625">
        <ele>134.24</ele>
        <time>2019-04-20T18:00:32Z</time>
      </trkpt>
      <trkpt lat="43.17217" lon="5.58628">
        <ele>134.72</ele>
        <time>2019-04-20T18:00:37Z</time>
      </trkpt>
      <trkpt lat="43.17218" lon="5.58631">
        <ele>134.24</ele>
        <time>2019-04-20T18:00:41Z</time>
      </trkpt>
      <trkpt lat="43.17219" lon="5.58633">
        <ele>133.76</ele>
        <time>2019-04-20T18:00:42Z</time>
      </trkpt>
      <trkpt lat="43.1722" lon="5.58635">
        <ele>133.76</ele>
        <time>2019-04-20T18:00:43Z</time>
      </trkpt>
      <trkpt lat="43.17227" lon="5.58651">
        <ele>132.32</ele>
        <time>2019-04-20T18:00:54Z</time>
      </trkpt>
      <trkpt lat="43.17227" lon="5.58652">
        <ele>131.36</ele>
        <time>2019-04-20T18:00:56Z</time>
      </trkpt>
      <trkpt lat="43.17228" lon="5.58653">
        <ele>131.36</ele>
        <time>2019-04-20T18:00:57Z</time>
      </trkpt>
      <trkpt lat="43.1723" lon="5.58659">
        <ele>130.88</ele>
        <time>2019-04-20T18:01:03Z</time>
      </trkpt>
      <trkpt lat="43.1723" lon="5.58661">
        <ele>129.92</ele>
        <time>2019-04-20T18:01:04Z</time>
      </trkpt>
      <trkpt lat="43.1723" lon="5.58663">
        <ele>129.92</ele>
        <time>2019-04-20T18:01:05Z</time>
      </trkpt>
      <trkpt lat="43.1723" lon="5.58665">
        <ele>130.4</ele>
        <time>2019-04-20T18:01:06Z</time>
      </trkpt>
      <trkpt lat="43.17231" lon="5.58667">
        <ele>129.43</ele>
        <time>2019-04-20T18:01:07Z</time>
      </trkpt>
      <trkpt lat="43.17231" lon="5.58669">
        <ele>129.43</ele>
        <time>2019-04-20T18:01:08Z</time>
      </trkpt>
      <trkpt lat="43.17231" lon="5.58678">
        <ele>128.95</ele>
        <time>2019-04-20T18:01:14Z</time>
      </trkpt>
      <trkpt lat="43.17231" lon="5.58681">
        <ele>128.47</ele>
        <time>2019-04-20T18:01:16Z</time>
      </trkpt>
      <trkpt lat="43.17231" lon="5.58684">
        <ele>128.47</ele>
        <time>2019-04-20T18:01:17Z</time>
      </trkpt>
      <trkpt lat="43.1723" lon="5.58686">
        <ele>128.95</ele>
        <time>2019-04-20T18:01:18Z</time>
      </trkpt>
      <trkpt lat="43.17229" lon="5.58688">
        <ele>128.47</ele>
        <time>2019-04-20T18:01:19Z</time>
      </trkpt>
      <trkpt lat="43.17227" lon="5.58691">
        <ele>128.47</ele>
        <time>2019-04-20T18:01:20Z</time>
      </trkpt>
      <trkpt lat="43.17227" lon="5.58693">
        <ele>127.99</ele>
        <time>2019-04-20T18:01:21Z</time>
      </trkpt>
      <trkpt lat="43.17227" lon="5.58694">
        <ele>127.99</ele>
        <time>2019-04-20T18:01:22Z</time>
      </trkpt>
      <trkpt lat="43.17226" lon="5.58696">
        <ele>128.47</ele>
        <time>2019-04-20T18:01:23Z</time>
      </trkpt>
      <trkpt lat="43.17222" lon="5.58699">
        <ele>127.99</ele>
        <time>2019-04-20T18:01:33Z</time>
      </trkpt>
      <trkpt lat="43.17217" lon="5.58707">
        <ele>127.99</ele>
        <time>2019-04-20T18:01:43Z</time>
      </trkpt>
      <trkpt lat="43.17209" lon="5.58711">
        <ele>128.47</ele>
        <time>2019-04-20T18:01:50Z</time>
      </trkpt>
      <trkpt lat="43.1719" lon="5.58717">
        <ele>129.43</ele>
        <time>2019-04-20T18:02:02Z</time>
      </trkpt>
      <trkpt lat="43.17188" lon="5.58719">
        <ele>128.47</ele>
        <time>2019-04-20T18:02:07Z</time>
      </trkpt>
      <trkpt lat="43.17187" lon="5.5872">
        <ele>128.95</ele>
        <time>2019-04-20T18:02:08Z</time>
      </trkpt>
      <trkpt lat="43.17179" lon="5.5873">
        <ele>128.95</ele>
        <time>2019-04-20T18:02:20Z</time>
      </trkpt>
      <trkpt lat="43.17177" lon="5.58733">
        <ele>128.95</ele>
        <time>2019-04-20T18:02:22Z</time>
      </trkpt>
      <trkpt lat="43.17176" lon="5.58733">
        <ele>128.95</ele>
        <time>2019-04-20T18:02:23Z</time>
      </trkpt>
      <trkpt lat="43.17164" lon="5.58751">
        <ele>128.47</ele>
        <time>2019-04-20T18:02:33Z</time>
      </trkpt>
      <trkpt lat="43.17162" lon="5.58754">
        <ele>127.99</ele>
        <time>2019-04-20T18:02:35Z</time>
      </trkpt>
      <trkpt lat="43.1716" lon="5.58763">
        <ele>126.07</ele>
        <time>2019-04-20T18:02:47Z</time>
      </trkpt>
      <trkpt lat="43.17157" lon="5.58767">
        <ele>126.07</ele>
        <time>2019-04-20T18:02:50Z</time>
      </trkpt>
      <trkpt lat="43.17142" lon="5.58786">
        <ele>124.15</ele>
        <time>2019-04-20T18:03:02Z</time>
      </trkpt>
      <trkpt lat="43.17138" lon="5.58797">
        <ele>122.71</ele>
        <time>2019-04-20T18:03:14Z</time>
      </trkpt>
      <trkpt lat="43.17132" lon="5.58813">
        <ele>121.74</ele>
        <time>2019-04-20T18:03:24Z</time>
      </trkpt>
      <trkpt lat="43.17132" lon="5.58817">
        <ele>120.78</ele>
        <time>2019-04-20T18:03:28Z</time>
      </trkpt>
      <trkpt lat="43.17131" lon="5.58819">
        <ele>120.78</ele>
        <time>2019-04-20T18:03:29Z</time>
      </trkpt>
      <trkpt lat="43.1713" lon="5.58821">
        <ele>120.3</ele>
        <time>2019-04-20T18:03:30Z</time>
      </trkpt>
      <trkpt lat="43.17123" lon="5.58837">
        <ele>118.86</ele>
        <time>2019-04-20T18:03:41Z</time>
      </trkpt>
      <trkpt lat="43.17119" lon="5.58859">
        <ele>116.94</ele>
        <time>2019-04-20T18:03:52Z</time>
      </trkpt>
      <trkpt lat="43.1712" lon="5.58874">
        <ele>115.5</ele>
        <time>2019-04-20T18:04:02Z</time>
      </trkpt>
      <trkpt lat="43.17121" lon="5.58875">
        <ele>115.01</ele>
        <time>2019-04-20T18:04:04Z</time>
      </trkpt>
      <trkpt lat="43.17121" lon="5.58876">
        <ele>114.53</ele>
        <time>2019-04-20T18:04:05Z</time>
      </trkpt>
      <trkpt lat="43.17121" lon="5.58878">
        <ele>115.01</ele>
        <time>2019-04-20T18:04:06Z</time>
      </trkpt>
      <trkpt lat="43.17121" lon="5.5888">
        <ele>114.53</ele>
        <time>2019-04-20T18:04:07Z</time>
      </trkpt>
      <trkpt lat="43.1712" lon="5.58883">
        <ele>114.05</ele>
        <time>2019-04-20T18:04:08Z</time>
      </trkpt>
      <trkpt lat="43.17115" lon="5.58909">
        <ele>112.13</ele>
        <time>2019-04-20T18:04:20Z</time>
      </trkpt>
      <trkpt lat="43.17118" lon="5.58921">
        <ele>109.25</ele>
        <time>2019-04-20T18:04:33Z</time>
      </trkpt>
      <trkpt lat="43.17118" lon="5.58926">
        <ele>109.73</ele>
        <time>2019-04-20T18:04:35Z</time>
      </trkpt>
      <trkpt lat="43.17118" lon="5.58928">
        <ele>109.25</ele>
        <time>2019-04-20T18:04:36Z</time>
      </trkpt>
      <trkpt lat="43.17117" lon="5.58931">
        <ele>109.25</ele>
        <time>2019-04-20T18:04:37Z</time>
      </trkpt>
      <trkpt lat="43.17117" lon="5.58934">
        <ele>108.77</ele>
        <time>2019-04-20T18:04:38Z</time>
      </trkpt>
      <trkpt lat="43.17117" lon="5.58937">
        <ele>108.77</ele>
        <time>2019-04-20T18:04:39Z</time>
      </trkpt>
      <trkpt lat="43.17117" lon="5.58939">
        <ele>108.77</ele>
        <time>2019-04-20T18:04:40Z</time>
      </trkpt>
      <trkpt lat="43.17117" lon="5.58942">
        <ele>108.77</ele>
        <time>2019-04-20T18:04:41Z</time>
      </trkpt>
      <trkpt lat="43.17118" lon="5.58945">
        <ele>108.29</ele>
        <time>2019-04-20T18:04:43Z</time>
      </trkpt>
      <trkpt lat="43.17113" lon="5.58954">
        <ele>108.29</ele>
        <time>2019-04-20T18:04:53Z</time>
      </trkpt>
      <trkpt lat="43.17112" lon="5.58956">
        <ele>107.81</ele>
        <time>2019-04-20T18:04:55Z</time>
      </trkpt>
      <trkpt lat="43.17111" lon="5.58958">
        <ele>108.29</ele>
        <time>2019-04-20T18:04:56Z</time>
      </trkpt>
      <trkpt lat="43.17109" lon="5.5896">
        <ele>108.29</ele>
        <time>2019-04-20T18:04:57Z</time>
      </trkpt>
      <trkpt lat="43.17108" lon="5.58961">
        <ele>108.77</ele>
        <time>2019-04-20T18:04:58Z</time>
      </trkpt>
      <trkpt lat="43.171" lon="5.58969">
        <ele>108.29</ele>
        <time>2019-04-20T18:05:08Z</time>
      </trkpt>
      <trkpt lat="43.17098" lon="5.58969">
        <ele>108.29</ele>
        <time>2019-04-20T18:05:19Z</time>
      </trkpt>
      <trkpt lat="43.17089" lon="5.58981">
        <ele>108.77</ele>
        <time>2019-04-20T18:05:26Z</time>
      </trkpt>
      <trkpt lat="43.17084" lon="5.58993">
        <ele>109.73</ele>
        <time>2019-04-20T18:05:36Z</time>
      </trkpt>
      <trkpt lat="43.17081" lon="5.59004">
        <ele>110.21</ele>
        <time>2019-04-20T18:05:46Z</time>
      </trkpt>
      <trkpt lat="43.17075" lon="5.59027">
        <ele>109.73</ele>
        <time>2019-04-20T18:05:57Z</time>
      </trkpt>
      <trkpt lat="43.17075" lon="5.59043">
        <ele>108.29</ele>
        <time>2019-04-20T18:06:09Z</time>
      </trkpt>
      <trkpt lat="43.17074" lon="5.59073">
        <ele>106.36</ele>
        <time>2019-04-20T18:06:22Z</time>
      </trkpt>
      <trkpt lat="43.17074" lon="5.59077">
        <ele>104.92</ele>
        <time>2019-04-20T18:06:26Z</time>
      </trkpt>
      <trkpt lat="43.17077" lon="5.59088">
        <ele>102.52</ele>
        <time>2019-04-20T18:06:37Z</time>
      </trkpt>
      <trkpt lat="43.17083" lon="5.59107">
        <ele>99.63</ele>
        <time>2019-04-20T18:06:48Z</time>
      </trkpt>
      <trkpt lat="43.17083" lon="5.59112">
        <ele>99.15</ele>
        <time>2019-04-20T18:06:50Z</time>
      </trkpt>
      <trkpt lat="43.17082" lon="5.59118">
        <ele>98.19</ele>
        <time>2019-04-20T18:06:52Z</time>
      </trkpt>
      <trkpt lat="43.1708" lon="5.59122">
        <ele>99.15</ele>
        <time>2019-04-20T18:07:05Z</time>
      </trkpt>
      <trkpt lat="43.17082" lon="5.59134">
        <ele>96.75</ele>
        <time>2019-04-20T18:07:13Z</time>
      </trkpt>
      <trkpt lat="43.17083" lon="5.59136">
        <ele>97.23</ele>
        <time>2019-04-20T18:07:14Z</time>
      </trkpt>
      <trkpt lat="43.17083" lon="5.59171">
        <ele>100.11</ele>
        <time>2019-04-20T18:07:34Z</time>
      </trkpt>
      <trkpt lat="43.17083" lon="5.59173">
        <ele>99.15</ele>
        <time>2019-04-20T18:07:36Z</time>
      </trkpt>
      <trkpt lat="43.17082" lon="5.59181">
        <ele>98.19</ele>
        <time>2019-04-20T18:07:41Z</time>
      </trkpt>
      <trkpt lat="43.1708" lon="5.59198">
        <ele>96.75</ele>
        <time>2019-04-20T18:07:58Z</time>
      </trkpt>
      <trkpt lat="43.17079" lon="5.59203">
        <ele>95.31</ele>
        <time>2019-04-20T18:08:01Z</time>
      </trkpt>
      <trkpt lat="43.17079" lon="5.59211">
        <ele>94.83</ele>
        <time>2019-04-20T18:08:08Z</time>
      </trkpt>
      <trkpt lat="43.17072" lon="5.59229">
        <ele>92.42</ele>
        <time>2019-04-20T18:08:21Z</time>
      </trkpt>
      <trkpt lat="43.17061" lon="5.59257">
        <ele>90.98</ele>
        <time>2019-04-20T18:08:34Z</time>
      </trkpt>
      <trkpt lat="43.17054" lon="5.59274">
        <ele>89.06</ele>
        <time>2019-04-20T18:08:45Z</time>
      </trkpt>
      <trkpt lat="43.17049" lon="5.59291">
        <ele>87.14</ele>
        <time>2019-04-20T18:09:01Z</time>
      </trkpt>
      <trkpt lat="43.17048" lon="5.59293">
        <ele>87.14</ele>
        <time>2019-04-20T18:09:02Z</time>
      </trkpt>
      <trkpt lat="43.17048" lon="5.59294">
        <ele>87.14</ele>
        <time>2019-04-20T18:09:03Z</time>
      </trkpt>
      <trkpt lat="43.17045" lon="5.593">
        <ele>86.66</ele>
        <time>2019-04-20T18:09:06Z</time>
      </trkpt>
      <trkpt lat="43.17045" lon="5.59302">
        <ele>86.66</ele>
        <time>2019-04-20T18:09:07Z</time>
      </trkpt>
      <trkpt lat="43.17045" lon="5.59304">
        <ele>86.66</ele>
        <time>2019-04-20T18:09:08Z</time>
      </trkpt>
      <trkpt lat="43.17043" lon="5.59313">
        <ele>85.21</ele>
        <time>2019-04-20T18:09:19Z</time>
      </trkpt>
      <trkpt lat="43.17038" lon="5.59324">
        <ele>84.25</ele>
        <time>2019-04-20T18:09:26Z</time>
      </trkpt>
      <trkpt lat="43.17034" lon="5.5934">
        <ele>82.81</ele>
        <time>2019-04-20T18:09:37Z</time>
      </trkpt>
      <trkpt lat="43.1703" lon="5.59357">
        <ele>82.33</ele>
        <time>2019-04-20T18:09:50Z</time>
      </trkpt>
      <trkpt lat="43.1703" lon="5.59358">
        <ele>81.85</ele>
        <time>2019-04-20T18:09:51Z</time>
      </trkpt>
      <trkpt lat="43.1703" lon="5.5936">
        <ele>80.89</ele>
        <time>2019-04-20T18:09:52Z</time>
      </trkpt>
      <trkpt lat="43.17029" lon="5.59361">
        <ele>80.89</ele>
        <time>2019-04-20T18:09:53Z</time>
      </trkpt>
      <trkpt lat="43.17025" lon="5.59369">
        <ele>79.93</ele>
        <time>2019-04-20T18:09:58Z</time>
      </trkpt>
      <trkpt lat="43.17024" lon="5.59371">
        <ele>80.41</ele>
        <time>2019-04-20T18:09:59Z</time>
      </trkpt>
      <trkpt lat="43.17015" lon="5.59391">
        <ele>78.97</ele>
        <time>2019-04-20T18:10:09Z</time>
      </trkpt>
      <trkpt lat="43.17015" lon="5.59393">
        <ele>78.97</ele>
        <time>2019-04-20T18:10:10Z</time>
      </trkpt>
      <trkpt lat="43.17015" lon="5.59398">
        <ele>78.48</ele>
        <time>2019-04-20T18:10:15Z</time>
      </trkpt>
      <trkpt lat="43.17012" lon="5.59407">
        <ele>76.56</ele>
        <time>2019-04-20T18:10:23Z</time>
      </trkpt>
      <trkpt lat="43.17011" lon="5.59409">
        <ele>77.04</ele>
        <time>2019-04-20T18:10:24Z</time>
      </trkpt>
      <trkpt lat="43.17009" lon="5.59411">
        <ele>77.04</ele>
        <time>2019-04-20T18:10:25Z</time>
      </trkpt>
      <trkpt lat="43.17007" lon="5.59412">
        <ele>76.56</ele>
        <time>2019-04-20T18:10:26Z</time>
      </trkpt>
      <trkpt lat="43.17006" lon="5.59415">
        <ele>77.04</ele>
        <time>2019-04-20T18:10:27Z</time>
      </trkpt>
      <trkpt lat="43.17005" lon="5.59417">
        <ele>76.08</ele>
        <time>2019-04-20T18:10:28Z</time>
      </trkpt>
      <trkpt lat="43.17004" lon="5.59419">
        <ele>76.08</ele>
        <time>2019-04-20T18:10:29Z</time>
      </trkpt>
      <trkpt lat="43.17003" lon="5.59423">
        <ele>76.56</ele>
        <time>2019-04-20T18:10:34Z</time>
      </trkpt>
      <trkpt lat="43.17003" lon="5.59434">
        <ele>74.16</ele>
        <time>2019-04-20T18:10:42Z</time>
      </trkpt>
      <trkpt lat="43.17001" lon="5.5944">
        <ele>74.64</ele>
        <time>2019-04-20T18:10:45Z</time>
      </trkpt>
      <trkpt lat="43.17001" lon="5.59442">
        <ele>74.16</ele>
        <time>2019-04-20T18:10:46Z</time>
      </trkpt>
      <trkpt lat="43.16999" lon="5.59444">
        <ele>74.16</ele>
        <time>2019-04-20T18:10:47Z</time>
      </trkpt>
      <trkpt lat="43.16998" lon="5.59446">
        <ele>74.16</ele>
        <time>2019-04-20T18:10:48Z</time>
      </trkpt>
      <trkpt lat="43.16996" lon="5.59448">
        <ele>74.16</ele>
        <time>2019-04-20T18:10:49Z</time>
      </trkpt>
      <trkpt lat="43.16995" lon="5.5945">
        <ele>73.68</ele>
        <time>2019-04-20T18:10:50Z</time>
      </trkpt>
      <trkpt lat="43.16994" lon="5.59452">
        <ele>73.68</ele>
        <time>2019-04-20T18:10:51Z</time>
      </trkpt>
      <trkpt lat="43.16993" lon="5.59454">
        <ele>73.68</ele>
        <time>2019-04-20T18:10:52Z</time>
      </trkpt>
      <trkpt lat="43.16992" lon="5.59456">
        <ele>73.2</ele>
        <time>2019-04-20T18:10:53Z</time>
      </trkpt>
      <trkpt lat="43.16991" lon="5.59458">
        <ele>73.2</ele>
        <time>2019-04-20T18:10:54Z</time>
      </trkpt>
      <trkpt lat="43.16991" lon="5.5946">
        <ele>73.2</ele>
        <time>2019-04-20T18:10:55Z</time>
      </trkpt>
      <trkpt lat="43.16991" lon="5.59473">
        <ele>72.72</ele>
        <time>2019-04-20T18:11:05Z</time>
      </trkpt>
      <trkpt lat="43.16991" lon="5.5949">
        <ele>73.2</ele>
        <time>2019-04-20T18:11:15Z</time>
      </trkpt>
      <trkpt lat="43.16993" lon="5.59514">
        <ele>73.2</ele>
        <time>2019-04-20T18:11:26Z</time>
      </trkpt>
      <trkpt lat="43.16992" lon="5.59534">
        <ele>72.24</ele>
        <time>2019-04-20T18:11:37Z</time>
      </trkpt>
      <trkpt lat="43.16989" lon="5.59549">
        <ele>73.2</ele>
        <time>2019-04-20T18:11:50Z</time>
      </trkpt>
      <trkpt lat="43.16982" lon="5.59564">
        <ele>72.24</ele>
        <time>2019-04-20T18:12:00Z</time>
      </trkpt>
      <trkpt lat="43.16975" lon="5.5958">
        <ele>72.72</ele>
        <time>2019-04-20T18:12:10Z</time>
      </trkpt>
      <trkpt lat="43.16972" lon="5.59592">
        <ele>72.72</ele>
        <time>2019-04-20T18:12:21Z</time>
      </trkpt>
      <trkpt lat="43.16968" lon="5.5961">
        <ele>72.72</ele>
        <time>2019-04-20T18:12:31Z</time>
      </trkpt>
      <trkpt lat="43.16969" lon="5.59614">
        <ele>72.24</ele>
        <time>2019-04-20T18:12:35Z</time>
      </trkpt>
      <trkpt lat="43.16969" lon="5.59618">
        <ele>72.24</ele>
        <time>2019-04-20T18:12:37Z</time>
      </trkpt>
      <trkpt lat="43.16969" lon="5.59621">
        <ele>71.27</ele>
        <time>2019-04-20T18:12:38Z</time>
      </trkpt>
      <trkpt lat="43.16968" lon="5.59623">
        <ele>71.27</ele>
        <time>2019-04-20T18:12:39Z</time>
      </trkpt>
      <trkpt lat="43.16966" lon="5.59652">
        <ele>71.76</ele>
        <time>2019-04-20T18:12:49Z</time>
      </trkpt>
      <trkpt lat="43.16969" lon="5.59664">
        <ele>70.79</ele>
        <time>2019-04-20T18:13:01Z</time>
      </trkpt>
      <trkpt lat="43.16967" lon="5.59688">
        <ele>69.35</ele>
        <time>2019-04-20T18:13:13Z</time>
      </trkpt>
      <trkpt lat="43.16964" lon="5.59703">
        <ele>66.95</ele>
        <time>2019-04-20T18:13:26Z</time>
      </trkpt>
      <trkpt lat="43.16961" lon="5.59738">
        <ele>65.99</ele>
        <time>2019-04-20T18:13:38Z</time>
      </trkpt>
      <trkpt lat="43.16962" lon="5.59748">
        <ele>65.03</ele>
        <time>2019-04-20T18:13:48Z</time>
      </trkpt>
      <trkpt lat="43.16962" lon="5.5975">
        <ele>64.55</ele>
        <time>2019-04-20T18:13:49Z</time>
      </trkpt>
      <trkpt lat="43.16962" lon="5.59752">
        <ele>64.55</ele>
        <time>2019-04-20T18:13:50Z</time>
      </trkpt>
      <trkpt lat="43.16962" lon="5.59754">
        <ele>64.55</ele>
        <time>2019-04-20T18:13:51Z</time>
      </trkpt>
      <trkpt lat="43.16961" lon="5.59757">
        <ele>64.07</ele>
        <time>2019-04-20T18:13:52Z</time>
      </trkpt>
      <trkpt lat="43.1696" lon="5.5976">
        <ele>64.55</ele>
        <time>2019-04-20T18:13:53Z</time>
      </trkpt>
      <trkpt lat="43.1696" lon="5.59762">
        <ele>64.07</ele>
        <time>2019-04-20T18:13:54Z</time>
      </trkpt>
      <trkpt lat="43.16959" lon="5.59765">
        <ele>64.07</ele>
        <time>2019-04-20T18:13:55Z</time>
      </trkpt>
      <trkpt lat="43.16958" lon="5.59768">
        <ele>64.07</ele>
        <time>2019-04-20T18:13:56Z</time>
      </trkpt>
      <trkpt lat="43.16958" lon="5.59771">
        <ele>63.58</ele>
        <time>2019-04-20T18:13:57Z</time>
      </trkpt>
      <trkpt lat="43.16964" lon="5.59789">
        <ele>62.14</ele>
        <time>2019-04-20T18:14:08Z</time>
      </trkpt>
      <trkpt lat="43.16964" lon="5.5979">
        <ele>62.14</ele>
        <time>2019-04-20T18:14:09Z</time>
      </trkpt>
      <trkpt lat="43.16965" lon="5.59792">
        <ele>62.62</ele>
        <time>2019-04-20T18:14:10Z</time>
      </trkpt>
      <trkpt lat="43.16965" lon="5.59793">
        <ele>62.14</ele>
        <time>2019-04-20T18:14:11Z</time>
      </trkpt>
      <trkpt lat="43.16965" lon="5.59795">
        <ele>62.14</ele>
        <time>2019-04-20T18:14:12Z</time>
      </trkpt>
      <trkpt lat="43.16965" lon="5.59796">
        <ele>62.14</ele>
        <time>2019-04-20T18:14:13Z</time>
      </trkpt>
      <trkpt lat="43.16963" lon="5.59805">
        <ele>61.18</ele>
        <time>2019-04-20T18:14:17Z</time>
      </trkpt>
      <trkpt lat="43.16962" lon="5.59807">
        <ele>61.18</ele>
        <time>2019-04-20T18:14:18Z</time>
      </trkpt>
      <trkpt lat="43.16958" lon="5.59809">
        <ele>60.7</ele>
        <time>2019-04-20T18:14:20Z</time>
      </trkpt>
      <trkpt lat="43.16957" lon="5.59811">
        <ele>61.18</ele>
        <time>2019-04-20T18:14:21Z</time>
      </trkpt>
      <trkpt lat="43.16957" lon="5.59814">
        <ele>60.7</ele>
        <time>2019-04-20T18:14:22Z</time>
      </trkpt>
      <trkpt lat="43.16957" lon="5.59816">
        <ele>60.7</ele>
        <time>2019-04-20T18:14:23Z</time>
      </trkpt>
      <trkpt lat="43.16957" lon="5.59818">
        <ele>60.7</ele>
        <time>2019-04-20T18:14:24Z</time>
      </trkpt>
      <trkpt lat="43.16957" lon="5.5982">
        <ele>60.22</ele>
        <time>2019-04-20T18:14:25Z</time>
      </trkpt>
      <trkpt lat="43.16962" lon="5.5983">
        <ele>58.78</ele>
        <time>2019-04-20T18:14:36Z</time>
      </trkpt>
      <trkpt lat="43.16963" lon="5.59836">
        <ele>58.3</ele>
        <time>2019-04-20T18:14:38Z</time>
      </trkpt>
      <trkpt lat="43.16963" lon="5.59839">
        <ele>58.78</ele>
        <time>2019-04-20T18:14:39Z</time>
      </trkpt>
      <trkpt lat="43.16962" lon="5.59842">
        <ele>58.3</ele>
        <time>2019-04-20T18:14:40Z</time>
      </trkpt>
      <trkpt lat="43.16962" lon="5.59843">
        <ele>58.3</ele>
        <time>2019-04-20T18:14:41Z</time>
      </trkpt>
      <trkpt lat="43.16961" lon="5.59845">
        <ele>58.3</ele>
        <time>2019-04-20T18:14:42Z</time>
      </trkpt>
      <trkpt lat="43.16961" lon="5.59847">
        <ele>58.3</ele>
        <time>2019-04-20T18:14:43Z</time>
      </trkpt>
      <trkpt lat="43.1696" lon="5.59849">
        <ele>58.3</ele>
        <time>2019-04-20T18:14:44Z</time>
      </trkpt>
      <trkpt lat="43.1696" lon="5.5985">
        <ele>57.82</ele>
        <time>2019-04-20T18:14:45Z</time>
      </trkpt>
      <trkpt lat="43.1696" lon="5.59852">
        <ele>57.82</ele>
        <time>2019-04-20T18:14:46Z</time>
      </trkpt>
      <trkpt lat="43.1696" lon="5.59855">
        <ele>57.82</ele>
        <time>2019-04-20T18:14:47Z</time>
      </trkpt>
      <trkpt lat="43.1696" lon="5.59862">
        <ele>56.86</ele>
        <time>2019-04-20T18:14:57Z</time>
      </trkpt>
      <trkpt lat="43.1696" lon="5.59878">
        <ele>56.37</ele>
        <time>2019-04-20T18:15:08Z</time>
      </trkpt>
      <trkpt lat="43.16959" lon="5.59895">
        <ele>54.93</ele>
        <time>2019-04-20T18:15:18Z</time>
      </trkpt>
      <trkpt lat="43.16959" lon="5.59902">
        <ele>53.97</ele>
        <time>2019-04-20T18:15:24Z</time>
      </trkpt>
      <trkpt lat="43.16958" lon="5.59904">
        <ele>54.45</ele>
        <time>2019-04-20T18:15:25Z</time>
      </trkpt>
      <trkpt lat="43.16958" lon="5.59906">
        <ele>53.97</ele>
        <time>2019-04-20T18:15:26Z</time>
      </trkpt>
      <trkpt lat="43.16957" lon="5.59908">
        <ele>53.01</ele>
        <time>2019-04-20T18:15:28Z</time>
      </trkpt>
      <trkpt lat="43.16958" lon="5.5991">
        <ele>53.49</ele>
        <time>2019-04-20T18:15:31Z</time>
      </trkpt>
      <trkpt lat="43.16958" lon="5.59912">
        <ele>53.01</ele>
        <time>2019-04-20T18:15:32Z</time>
      </trkpt>
      <trkpt lat="43.16958" lon="5.59914">
        <ele>53.01</ele>
        <time>2019-04-20T18:15:33Z</time>
      </trkpt>
      <trkpt lat="43.16957" lon="5.59916">
        <ele>53.01</ele>
        <time>2019-04-20T18:15:34Z</time>
      </trkpt>
      <trkpt lat="43.16959" lon="5.59922">
        <ele>52.05</ele>
        <time>2019-04-20T18:15:41Z</time>
      </trkpt>
      <trkpt lat="43.16959" lon="5.59924">
        <ele>51.57</ele>
        <time>2019-04-20T18:15:42Z</time>
      </trkpt>
      <trkpt lat="43.16958" lon="5.59926">
        <ele>51.57</ele>
        <time>2019-04-20T18:15:43Z</time>
      </trkpt>
      <trkpt lat="43.16958" lon="5.59929">
        <ele>51.57</ele>
        <time>2019-04-20T18:15:44Z</time>
      </trkpt>
      <trkpt lat="43.16957" lon="5.59932">
        <ele>51.57</ele>
        <time>2019-04-20T18:15:45Z</time>
      </trkpt>
      <trkpt lat="43.16958" lon="5.59944">
        <ele>51.09</ele>
        <time>2019-04-20T18:15:55Z</time>
      </trkpt>
      <trkpt lat="43.16958" lon="5.59946">
        <ele>50.61</ele>
        <time>2019-04-20T18:15:56Z</time>
      </trkpt>
      <trkpt lat="43.16956" lon="5.59971">
        <ele>49.16</ele>
        <time>2019-04-20T18:16:06Z</time>
      </trkpt>
      <trkpt lat="43.16961" lon="5.59978">
        <ele>48.2</ele>
        <time>2019-04-20T18:16:20Z</time>
      </trkpt>
      <trkpt lat="43.16953" lon="5.59996">
        <ele>46.76</ele>
        <time>2019-04-20T18:16:29Z</time>
      </trkpt>
      <trkpt lat="43.16954" lon="5.6">
        <ele>46.76</ele>
        <time>2019-04-20T18:16:39Z</time>
      </trkpt>
      <trkpt lat="43.16955" lon="5.60002">
        <ele>47.24</ele>
        <time>2019-04-20T18:16:40Z</time>
      </trkpt>
      <trkpt lat="43.16956" lon="5.60003">
        <ele>46.76</ele>
        <time>2019-04-20T18:16:41Z</time>
      </trkpt>
      <trkpt lat="43.16957" lon="5.60005">
        <ele>45.8</ele>
        <time>2019-04-20T18:16:42Z</time>
      </trkpt>
      <trkpt lat="43.16957" lon="5.60006">
        <ele>46.28</ele>
        <time>2019-04-20T18:16:43Z</time>
      </trkpt>
      <trkpt lat="43.16957" lon="5.60007">
        <ele>46.28</ele>
        <time>2019-04-20T18:16:44Z</time>
      </trkpt>
      <trkpt lat="43.16958" lon="5.60009">
        <ele>45.8</ele>
        <time>2019-04-20T18:16:45Z</time>
      </trkpt>
      <trkpt lat="43.16964" lon="5.60024">
        <ele>45.8</ele>
        <time>2019-04-20T18:16:57Z</time>
      </trkpt>
      <trkpt lat="43.16965" lon="5.60026">
        <ele>45.32</ele>
        <time>2019-04-20T18:16:58Z</time>
      </trkpt>
      <trkpt lat="43.16965" lon="5.60029">
        <ele>45.32</ele>
        <time>2019-04-20T18:16:59Z</time>
      </trkpt>
      <trkpt lat="43.16968" lon="5.60038">
        <ele>44.84</ele>
        <time>2019-04-20T18:17:08Z</time>
      </trkpt>
      <trkpt lat="43.16983" lon="5.60057">
        <ele>43.88</ele>
        <time>2019-04-20T18:17:23Z</time>
      </trkpt>
      <trkpt lat="43.1699" lon="5.60069">
        <ele>44.36</ele>
        <time>2019-04-20T18:17:35Z</time>
      </trkpt>
      <trkpt lat="43.16998" lon="5.60076">
        <ele>44.36</ele>
        <time>2019-04-20T18:17:47Z</time>
      </trkpt>
      <trkpt lat="43.17009" lon="5.60091">
        <ele>43.4</ele>
        <time>2019-04-20T18:17:58Z</time>
      </trkpt>
      <trkpt lat="43.17014" lon="5.60097">
        <ele>42.92</ele>
        <time>2019-04-20T18:18:03Z</time>
      </trkpt>
      <trkpt lat="43.17015" lon="5.60098">
        <ele>43.4</ele>
        <time>2019-04-20T18:18:04Z</time>
      </trkpt>
      <trkpt lat="43.17026" lon="5.60113">
        <ele>42.92</ele>
        <time>2019-04-20T18:18:17Z</time>
      </trkpt>
      <trkpt lat="43.17036" lon="5.6012">
        <ele>42.44</ele>
        <time>2019-04-20T18:18:28Z</time>
      </trkpt>
      <trkpt lat="43.17047" lon="5.60135">
        <ele>42.44</ele>
        <time>2019-04-20T18:18:41Z</time>
      </trkpt>
      <trkpt lat="43.17058" lon="5.60146">
        <ele>41.95</ele>
        <time>2019-04-20T18:18:53Z</time>
      </trkpt>
      <trkpt lat="43.17073" lon="5.60162">
        <ele>40.03</ele>
        <time>2019-04-20T18:19:05Z</time>
      </trkpt>
      <trkpt lat="43.17082" lon="5.60174">
        <ele>40.03</ele>
        <time>2019-04-20T18:19:15Z</time>
      </trkpt>
      <trkpt lat="43.17091" lon="5.6018">
        <ele>38.59</ele>
        <time>2019-04-20T18:19:26Z</time>
      </trkpt>
      <trkpt lat="43.17099" lon="5.60187">
        <ele>37.15</ele>
        <time>2019-04-20T18:19:39Z</time>
      </trkpt>
      <trkpt lat="43.17111" lon="5.60205">
        <ele>35.71</ele>
        <time>2019-04-20T18:19:51Z</time>
      </trkpt>
      <trkpt lat="43.17118" lon="5.60211">
        <ele>34.74</ele>
        <time>2019-04-20T18:19:59Z</time>
      </trkpt>
      <trkpt lat="43.17119" lon="5.60213">
        <ele>34.74</ele>
        <time>2019-04-20T18:20:00Z</time>
      </trkpt>
      <trkpt lat="43.17119" lon="5.60216">
        <ele>34.74</ele>
        <time>2019-04-20T18:20:01Z</time>
      </trkpt>
      <trkpt lat="43.1712" lon="5.60221">
        <ele>34.74</ele>
        <time>2019-04-20T18:20:03Z</time>
      </trkpt>
      <trkpt lat="43.1712" lon="5.60223">
        <ele>34.74</ele>
        <time>2019-04-20T18:20:04Z</time>
      </trkpt>
      <trkpt lat="43.17121" lon="5.60226">
        <ele>34.26</ele>
        <time>2019-04-20T18:20:05Z</time>
      </trkpt>
      <trkpt lat="43.17123" lon="5.60244">
        <ele>33.78</ele>
        <time>2019-04-20T18:20:17Z</time>
      </trkpt>
      <trkpt lat="43.17123" lon="5.60247">
        <ele>33.3</ele>
        <time>2019-04-20T18:20:18Z</time>
      </trkpt>
      <trkpt lat="43.17124" lon="5.60251">
        <ele>33.78</ele>
        <time>2019-04-20T18:20:19Z</time>
      </trkpt>
      <trkpt lat="43.17129" lon="5.60262">
        <ele>33.3</ele>
        <time>2019-04-20T18:20:27Z</time>
      </trkpt>
      <trkpt lat="43.17131" lon="5.6027">
        <ele>32.82</ele>
        <time>2019-04-20T18:20:31Z</time>
      </trkpt>
      <trkpt lat="43.17132" lon="5.60273">
        <ele>32.82</ele>
        <time>2019-04-20T18:20:32Z</time>
      </trkpt>
      <trkpt lat="43.17133" lon="5.60275">
        <ele>32.82</ele>
        <time>2019-04-20T18:20:33Z</time>
      </trkpt>
      <trkpt lat="43.17134" lon="5.60277">
        <ele>32.34</ele>
        <time>2019-04-20T18:20:34Z</time>
      </trkpt>
      <trkpt lat="43.17136" lon="5.60283">
        <ele>32.34</ele>
        <time>2019-04-20T18:20:41Z</time>
      </trkpt>
      <trkpt lat="43.17138" lon="5.60291">
        <ele>31.86</ele>
        <time>2019-04-20T18:20:51Z</time>
      </trkpt>
      <trkpt lat="43.17136" lon="5.6029">
        <ele>31.86</ele>
        <time>2019-04-20T18:21:04Z</time>
      </trkpt>
      <trkpt lat="43.17136" lon="5.60289">
        <ele>31.38</ele>
        <time>2019-04-20T18:21:18Z</time>
      </trkpt>
      <trkpt lat="43.1714" lon="5.6029">
        <ele>31.38</ele>
        <time>2019-04-20T18:21:30Z</time>
      </trkpt>
      <trkpt lat="43.17142" lon="5.60291">
        <ele>31.38</ele>
        <time>2019-04-20T18:21:31Z</time>
      </trkpt>
      <trkpt lat="43.17143" lon="5.6029">
        <ele>30.9</ele>
        <time>2019-04-20T18:21:32Z</time>
      </trkpt>
      <trkpt lat="43.17144" lon="5.6029">
        <ele>30.9</ele>
        <time>2019-04-20T18:21:33Z</time>
      </trkpt>
      <trkpt lat="43.17145" lon="5.60289">
        <ele>30.42</ele>
        <time>2019-04-20T18:21:34Z</time>
      </trkpt>
      <trkpt lat="43.17146" lon="5.60289">
        <ele>30.42</ele>
        <time>2019-04-20T18:21:35Z</time>
      </trkpt>
      <trkpt lat="43.17148" lon="5.60289">
        <ele>30.42</ele>
        <time>2019-04-20T18:21:36Z</time>
      </trkpt>
      <trkpt lat="43.17149" lon="5.6029">
        <ele>30.9</ele>
        <time>2019-04-20T18:21:37Z</time>
      </trkpt>
      <trkpt lat="43.17155" lon="5.6029">
        <ele>30.9</ele>
        <time>2019-04-20T18:21:50Z</time>
      </trkpt>
      <trkpt lat="43.17162" lon="5.6029">
        <ele>30.9</ele>
        <time>2019-04-20T18:21:55Z</time>
      </trkpt>
      <trkpt lat="43.17164" lon="5.6029">
        <ele>30.9</ele>
        <time>2019-04-20T18:21:56Z</time>
      </trkpt>
      <trkpt lat="43.17166" lon="5.60289">
        <ele>30.42</ele>
        <time>2019-04-20T18:21:57Z</time>
      </trkpt>
      <trkpt lat="43.17167" lon="5.60289">
        <ele>30.42</ele>
        <time>2019-04-20T18:21:58Z</time>
      </trkpt>
      <trkpt lat="43.17169" lon="5.60289">
        <ele>30.42</ele>
        <time>2019-04-20T18:21:59Z</time>
      </trkpt>
      <trkpt lat="43.1717" lon="5.60288">
        <ele>30.42</ele>
        <time>2019-04-20T18:22:00Z</time>
      </trkpt>
      <trkpt lat="43.17172" lon="5.60288">
        <ele>29.94</ele>
        <time>2019-04-20T18:22:01Z</time>
      </trkpt>
      <trkpt lat="43.17173" lon="5.60287">
        <ele>29.94</ele>
        <time>2019-04-20T18:22:02Z</time>
      </trkpt>
      <trkpt lat="43.17174" lon="5.60287">
        <ele>30.42</ele>
        <time>2019-04-20T18:22:03Z</time>
      </trkpt>
      <trkpt lat="43.17185" lon="5.60287">
        <ele>29.94</ele>
        <time>2019-04-20T18:22:15Z</time>
      </trkpt>
      <trkpt lat="43.17195" lon="5.60285">
        <ele>29.46</ele>
        <time>2019-04-20T18:22:28Z</time>
      </trkpt>
      <trkpt lat="43.17209" lon="5.60283">
        <ele>28.98</ele>
        <time>2019-04-20T18:22:37Z</time>
      </trkpt>
      <trkpt lat="43.17232" lon="5.60281">
        <ele>28.5</ele>
        <time>2019-04-20T18:22:53Z</time>
      </trkpt>
      <trkpt lat="43.17251" lon="5.60276">
        <ele>28.02</ele>
        <time>2019-04-20T18:23:08Z</time>
      </trkpt>
      <trkpt lat="43.17264" lon="5.60275">
        <ele>28.02</ele>
        <time>2019-04-20T18:23:18Z</time>
      </trkpt>
      <trkpt lat="43.17277" lon="5.6027">
        <ele>28.02</ele>
        <time>2019-04-20T18:23:30Z</time>
      </trkpt>
      <trkpt lat="43.17289" lon="5.60273">
        <ele>27.05</ele>
        <time>2019-04-20T18:23:40Z</time>
      </trkpt>
      <trkpt lat="43.17302" lon="5.6027">
        <ele>27.05</ele>
        <time>2019-04-20T18:23:53Z</time>
      </trkpt>
      <trkpt lat="43.17306" lon="5.60269">
        <ele>27.05</ele>
        <time>2019-04-20T18:23:56Z</time>
      </trkpt>
      <trkpt lat="43.17308" lon="5.60269">
        <ele>27.05</ele>
        <time>2019-04-20T18:23:57Z</time>
      </trkpt>
      <trkpt lat="43.17309" lon="5.60269">
        <ele>27.05</ele>
        <time>2019-04-20T18:23:58Z</time>
      </trkpt>
      <trkpt lat="43.17314" lon="5.60268">
        <ele>26.57</ele>
        <time>2019-04-20T18:24:04Z</time>
      </trkpt>
      <trkpt lat="43.17316" lon="5.60267">
        <ele>26.57</ele>
        <time>2019-04-20T18:24:05Z</time>
      </trkpt>
      <trkpt lat="43.17318" lon="5.60267">
        <ele>26.57</ele>
        <time>2019-04-20T18:24:06Z</time>
      </trkpt>
      <trkpt lat="43.1732" lon="5.60267">
        <ele>26.57</ele>
        <time>2019-04-20T18:24:07Z</time>
      </trkpt>
      <trkpt lat="43.17322" lon="5.60267">
        <ele>26.09</ele>
        <time>2019-04-20T18:24:08Z</time>
      </trkpt>
      <trkpt lat="43.17324" lon="5.60266">
        <ele>27.05</ele>
        <time>2019-04-20T18:24:09Z</time>
      </trkpt>
      <trkpt lat="43.17326" lon="5.60266">
        <ele>26.09</ele>
        <time>2019-04-20T18:24:10Z</time>
      </trkpt>
      <trkpt lat="43.17341" lon="5.6026">
        <ele>26.57</ele>
        <time>2019-04-20T18:24:23Z</time>
      </trkpt>
      <trkpt lat="43.17357" lon="5.60257">
        <ele>26.09</ele>
        <time>2019-04-20T18:24:34Z</time>
      </trkpt>
      <trkpt lat="43.17365" lon="5.60258">
        <ele>25.13</ele>
        <time>2019-04-20T18:24:44Z</time>
      </trkpt>
      <trkpt lat="43.17365" lon="5.6026">
        <ele>24.65</ele>
        <time>2019-04-20T18:24:45Z</time>
      </trkpt>
      <trkpt lat="43.17365" lon="5.60262">
        <ele>25.13</ele>
        <time>2019-04-20T18:24:46Z</time>
      </trkpt>
      <trkpt lat="43.17369" lon="5.60278">
        <ele>24.17</ele>
        <time>2019-04-20T18:24:57Z</time>
      </trkpt>
      <trkpt lat="43.17373" lon="5.60293">
        <ele>22.73</ele>
        <time>2019-04-20T18:25:09Z</time>
      </trkpt>
      <trkpt lat="43.17375" lon="5.60296">
        <ele>22.25</ele>
        <time>2019-04-20T18:25:12Z</time>
      </trkpt>
      <trkpt lat="43.17376" lon="5.60299">
        <ele>22.73</ele>
        <time>2019-04-20T18:25:13Z</time>
      </trkpt>
      <trkpt lat="43.17377" lon="5.60301">
        <ele>22.25</ele>
        <time>2019-04-20T18:25:14Z</time>
      </trkpt>
      <trkpt lat="43.17377" lon="5.60304">
        <ele>22.25</ele>
        <time>2019-04-20T18:25:15Z</time>
      </trkpt>
      <trkpt lat="43.17377" lon="5.60307">
        <ele>21.77</ele>
        <time>2019-04-20T18:25:16Z</time>
      </trkpt>
      <trkpt lat="43.17377" lon="5.6031">
        <ele>21.77</ele>
        <time>2019-04-20T18:25:17Z</time>
      </trkpt>
      <trkpt lat="43.17377" lon="5.60312">
        <ele>22.25</ele>
        <time>2019-04-20T18:25:18Z</time>
      </trkpt>
      <trkpt lat="43.17379" lon="5.6032">
        <ele>21.29</ele>
        <time>2019-04-20T18:25:25Z</time>
      </trkpt>
      <trkpt lat="43.1738" lon="5.60323">
        <ele>21.77</ele>
        <time>2019-04-20T18:25:26Z</time>
      </trkpt>
      <trkpt lat="43.17386" lon="5.60333">
        <ele>21.29</ele>
        <time>2019-04-20T18:25:29Z</time>
      </trkpt>
      <trkpt lat="43.17388" lon="5.60336">
        <ele>21.29</ele>
        <time>2019-04-20T18:25:30Z</time>
      </trkpt>
      <trkpt lat="43.17398" lon="5.60349">
        <ele>20.81</ele>
        <time>2019-04-20T18:25:40Z</time>
      </trkpt>
      <trkpt lat="43.17391" lon="5.60373">
        <ele>20.32</ele>
        <time>2019-04-20T18:25:51Z</time>
      </trkpt>
      <trkpt lat="43.17389" lon="5.60377">
        <ele>19.84</ele>
        <time>2019-04-20T18:25:54Z</time>
      </trkpt>
      <trkpt lat="43.17389" lon="5.60379">
        <ele>19.84</ele>
        <time>2019-04-20T18:25:55Z</time>
      </trkpt>
      <trkpt lat="43.17389" lon="5.6038">
        <ele>19.36</ele>
        <time>2019-04-20T18:25:56Z</time>
      </trkpt>
      <trkpt lat="43.17389" lon="5.60382">
        <ele>20.32</ele>
        <time>2019-04-20T18:25:57Z</time>
      </trkpt>
      <trkpt lat="43.1739" lon="5.60383">
        <ele>19.84</ele>
        <time>2019-04-20T18:25:58Z</time>
      </trkpt>
      <trkpt lat="43.1739" lon="5.60385">
        <ele>20.32</ele>
        <time>2019-04-20T18:25:59Z</time>
      </trkpt>
      <trkpt lat="43.1739" lon="5.60386">
        <ele>19.84</ele>
        <time>2019-04-20T18:26:00Z</time>
      </trkpt>
      <trkpt lat="43.17389" lon="5.60388">
        <ele>19.84</ele>
        <time>2019-04-20T18:26:01Z</time>
      </trkpt>
      <trkpt lat="43.17389" lon="5.6039">
        <ele>19.84</ele>
        <time>2019-04-20T18:26:02Z</time>
      </trkpt>
      <trkpt lat="43.17389" lon="5.60391">
        <ele>19.84</ele>
        <time>2019-04-20T18:26:03Z</time>
      </trkpt>
      <trkpt lat="43.17386" lon="5.60406">
        <ele>19.36</ele>
        <time>2019-04-20T18:26:12Z</time>
      </trkpt>
      <trkpt lat="43.17385" lon="5.60429">
        <ele>18.88</ele>
        <time>2019-04-20T18:26:25Z</time>
      </trkpt>
      <trkpt lat="43.17384" lon="5.60435">
        <ele>18.88</ele>
        <time>2019-04-20T18:26:29Z</time>
      </trkpt>
      <trkpt lat="43.1738" lon="5.60451">
        <ele>18.4</ele>
        <time>2019-04-20T18:26:40Z</time>
      </trkpt>
      <trkpt lat="43.1738" lon="5.60454">
        <ele>18.88</ele>
        <time>2019-04-20T18:26:42Z</time>
      </trkpt>
      <trkpt lat="43.1738" lon="5.60456">
        <ele>18.88</ele>
        <time>2019-04-20T18:26:43Z</time>
      </trkpt>
      <trkpt lat="43.17378" lon="5.60459">
        <ele>18.4</ele>
        <time>2019-04-20T18:26:44Z</time>
      </trkpt>
      <trkpt lat="43.17377" lon="5.60461">
        <ele>18.4</ele>
        <time>2019-04-20T18:26:45Z</time>
      </trkpt>
      <trkpt lat="43.17375" lon="5.60463">
        <ele>18.4</ele>
        <time>2019-04-20T18:26:46Z</time>
      </trkpt>
      <trkpt lat="43.17372" lon="5.60468">
        <ele>17.92</ele>
        <time>2019-04-20T18:26:52Z</time>
      </trkpt>
      <trkpt lat="43.17372" lon="5.6047">
        <ele>17.92</ele>
        <time>2019-04-20T18:26:53Z</time>
      </trkpt>
      <trkpt lat="43.17372" lon="5.60471">
        <ele>17.92</ele>
        <time>2019-04-20T18:26:54Z</time>
      </trkpt>
      <trkpt lat="43.17371" lon="5.60479">
        <ele>16.96</ele>
        <time>2019-04-20T18:26:58Z</time>
      </trkpt>
      <trkpt lat="43.17371" lon="5.6048">
        <ele>17.44</ele>
        <time>2019-04-20T18:26:59Z</time>
      </trkpt>
      <trkpt lat="43.17374" lon="5.60483">
        <ele>16.48</ele>
        <time>2019-04-20T18:27:09Z</time>
      </trkpt>
      <trkpt lat="43.17378" lon="5.60483">
        <ele>16.48</ele>
        <time>2019-04-20T18:27:28Z</time>
      </trkpt>
      <trkpt lat="43.1738" lon="5.60484">
        <ele>16.48</ele>
        <time>2019-04-20T18:27:50Z</time>
      </trkpt>
      <trkpt lat="43.17378" lon="5.60487">
        <ele>16</ele>
        <time>2019-04-20T18:28:20Z</time>
      </trkpt>
      <trkpt lat="43.17387" lon="5.60486">
        <ele>16.96</ele>
        <time>2019-04-20T18:28:44Z</time>
      </trkpt>
      <trkpt lat="43.17396" lon="5.60488">
        <ele>16.48</ele>
        <time>2019-04-20T18:29:19Z</time>
      </trkpt>
      <trkpt lat="43.17391" lon="5.60486">
        <ele>16.48</ele>
        <time>2019-04-20T18:29:38Z</time>
      </trkpt>
      <trkpt lat="43.17383" lon="5.60488">
        <ele>16</ele>
        <time>2019-04-20T18:29:54Z</time>
      </trkpt>
      <trkpt lat="43.17384" lon="5.60492">
        <ele>16</ele>
        <time>2019-04-20T18:29:57Z</time>
      </trkpt>
      <trkpt lat="43.17386" lon="5.60497">
        <ele>15.52</ele>
        <time>2019-04-20T18:30:02Z</time>
      </trkpt>
      <trkpt lat="43.17385" lon="5.605">
        <ele>16.48</ele>
        <time>2019-04-20T18:30:03Z</time>
      </trkpt>
      <trkpt lat="43.17386" lon="5.60503">
        <ele>16</ele>
        <time>2019-04-20T18:30:04Z</time>
      </trkpt>
      <trkpt lat="43.17388" lon="5.60515">
        <ele>15.04</ele>
        <time>2019-04-20T18:30:15Z</time>
      </trkpt>
      <trkpt lat="43.1739" lon="5.60521">
        <ele>15.04</ele>
        <time>2019-04-20T18:30:21Z</time>
      </trkpt>
      <trkpt lat="43.1739" lon="5.60524">
        <ele>15.04</ele>
        <time>2019-04-20T18:30:22Z</time>
      </trkpt>
      <trkpt lat="43.1739" lon="5.60527">
        <ele>14.56</ele>
        <time>2019-04-20T18:30:23Z</time>
      </trkpt>
      <trkpt lat="43.17389" lon="5.6053">
        <ele>15.04</ele>
        <time>2019-04-20T18:30:24Z</time>
      </trkpt>
      <trkpt lat="43.17388" lon="5.60532">
        <ele>15.04</ele>
        <time>2019-04-20T18:30:25Z</time>
      </trkpt>
      <trkpt lat="43.17387" lon="5.60534">
        <ele>15.04</ele>
        <time>2019-04-20T18:30:26Z</time>
      </trkpt>
      <trkpt lat="43.17386" lon="5.60547">
        <ele>14.08</ele>
        <time>2019-04-20T18:30:38Z</time>
      </trkpt>
      <trkpt lat="43.17384" lon="5.60552">
        <ele>14.08</ele>
        <time>2019-04-20T18:30:42Z</time>
      </trkpt>
      <trkpt lat="43.17383" lon="5.60554">
        <ele>14.08</ele>
        <time>2019-04-20T18:30:43Z</time>
      </trkpt>
      <trkpt lat="43.17382" lon="5.60556">
        <ele>14.08</ele>
        <time>2019-04-20T18:30:44Z</time>
      </trkpt>
      <trkpt lat="43.17382" lon="5.60558">
        <ele>14.56</ele>
        <time>2019-04-20T18:30:45Z</time>
      </trkpt>
      <trkpt lat="43.17379" lon="5.60562">
        <ele>13.6</ele>
        <time>2019-04-20T18:30:56Z</time>
      </trkpt>
      <trkpt lat="43.17378" lon="5.60563">
        <ele>13.6</ele>
        <time>2019-04-20T18:30:57Z</time>
      </trkpt>
      <trkpt lat="43.17377" lon="5.60565">
        <ele>13.6</ele>
        <time>2019-04-20T18:30:58Z</time>
      </trkpt>
      <trkpt lat="43.17376" lon="5.60567">
        <ele>13.12</ele>
        <time>2019-04-20T18:30:59Z</time>
      </trkpt>
      <trkpt lat="43.17376" lon="5.60569">
        <ele>13.6</ele>
        <time>2019-04-20T18:31:00Z</time>
      </trkpt>
      <trkpt lat="43.17374" lon="5.6057">
        <ele>13.6</ele>
        <time>2019-04-20T18:31:01Z</time>
      </trkpt>
      <trkpt lat="43.17374" lon="5.60571">
        <ele>13.6</ele>
        <time>2019-04-20T18:31:02Z</time>
      </trkpt>
      <trkpt lat="43.17374" lon="5.6058">
        <ele>13.12</ele>
        <time>2019-04-20T18:31:13Z</time>
      </trkpt>
      <trkpt lat="43.17376" lon="5.60586">
        <ele>13.12</ele>
        <time>2019-04-20T18:31:15Z</time>
      </trkpt>
      <trkpt lat="43.17377" lon="5.6059">
        <ele>13.12</ele>
        <time>2019-04-20T18:31:16Z</time>
      </trkpt>
      <trkpt lat="43.17379" lon="5.60599">
        <ele>13.12</ele>
        <time>2019-04-20T18:31:28Z</time>
      </trkpt>
      <trkpt lat="43.17371" lon="5.60612">
        <ele>13.12</ele>
        <time>2019-04-20T18:31:44Z</time>
      </trkpt>
      <trkpt lat="43.17371" lon="5.60613">
        <ele>13.12</ele>
        <time>2019-04-20T18:31:46Z</time>
      </trkpt>
      <trkpt lat="43.17373" lon="5.60613">
        <ele>12.63</ele>
        <time>2019-04-20T18:31:56Z</time>
      </trkpt>
      <trkpt lat="43.17372" lon="5.6061">
        <ele>12.63</ele>
        <time>2019-04-20T18:31:58Z</time>
      </trkpt>
      <trkpt lat="43.17374" lon="5.60599">
        <ele>13.12</ele>
        <time>2019-04-20T18:32:06Z</time>
      </trkpt>
      <trkpt lat="43.17361" lon="5.60594">
        <ele>13.6</ele>
        <time>2019-04-20T18:32:16Z</time>
      </trkpt>
      <trkpt lat="43.17344" lon="5.60588">
        <ele>13.6</ele>
        <time>2019-04-20T18:32:33Z</time>
      </trkpt>
    </trkseg>
  </trk>
</gpx>